<?xml version='1.0' encoding='UTF-8'?><gpx version="1.1" creator="JPX - https://github.com/jenetics/jpx" xmlns="http://www.topografix.com/GPX/1/1"><trk><trkseg><trkpt lat="43.699000682656276" lon="11.802657640765608"><ele>336.0</ele><time>2026-04-06T10:51:05.999Z</time></trkpt><trkpt lat="43.699038333757606" lon="11.802728555378865"><ele>336.0</ele><time>2026-04-06T10:51:15.998Z</time></trkpt><trkpt lat="43.69910816640937" lon="11.80273395619411"><ele>336.0</ele><time>2026-04-06T10:51:19.998Z</time></trkpt><trkpt lat="43.69917715802673" lon="11.802737290668475"><ele>336.0</ele><time>2026-04-06T10:51:23.998Z</time></trkpt><trkpt lat="43.69924722539421" lon="11.802696879225916"><ele>336.0</ele><time>2026-04-06T10:51:27.998Z</time></trkpt><trkpt lat="43.699201986916975" lon="11.802614784083383"><ele>336.0</ele><time>2026-04-06T10:51:31.998Z</time></trkpt><trkpt lat="43.69913490933075" lon="11.80258925463784"><ele>336.0</ele><time>2026-04-06T10:51:33.998Z</time></trkpt><trkpt lat="43.699060208024896" lon="11.802565180404622"><ele>336.0</ele><time>2026-04-06T10:51:36.998Z</time></trkpt><trkpt lat="43.69899297961379" lon="11.802537427879036"><ele>336.0</ele><time>2026-04-06T10:51:39.998Z</time></trkpt><trkpt lat="43.698934328680885" lon="11.802611230074906"><ele>336.0</ele><time>2026-04-06T10:51:42.998Z</time></trkpt><trkpt lat="43.69889185629437" lon="11.802688944173177"><ele>336.0</ele><time>2026-04-06T10:51:44.998Z</time></trkpt><trkpt lat="43.69882685113314" lon="11.80277239897924"><ele>336.0</ele><time>2026-04-06T10:51:46.998Z</time></trkpt><trkpt lat="43.69880496010723" lon="11.802872517375457"><ele>336.0</ele><time>2026-04-06T10:51:48.998Z</time></trkpt><trkpt lat="43.69877843498694" lon="11.802993719630123"><ele>335.8</ele><time>2026-04-06T10:51:50.998Z</time></trkpt><trkpt lat="43.69872386227791" lon="11.803116545851749"><ele>335.6</ele><time>2026-04-06T10:51:52.998Z</time></trkpt><trkpt lat="43.69868520369509" lon="11.803245600859883"><ele>335.4</ele><time>2026-04-06T10:51:54.998Z</time></trkpt><trkpt lat="43.698643674078546" lon="11.803377523450274"><ele>335.2</ele><time>2026-04-06T10:51:56.998Z</time></trkpt><trkpt lat="43.69858100592748" lon="11.8035001023487"><ele>335.0</ele><time>2026-04-06T10:51:58.998Z</time></trkpt><trkpt lat="43.698452924986405" lon="11.803568174593982"><ele>334.2</ele><time>2026-04-06T10:52:00.998Z</time></trkpt><trkpt lat="43.69839934931411" lon="11.803701937769974"><ele>333.4</ele><time>2026-04-06T10:52:02.998Z</time></trkpt><trkpt lat="43.698345951138755" lon="11.803821435526393"><ele>332.6</ele><time>2026-04-06T10:52:04.998Z</time></trkpt><trkpt lat="43.698267568856366" lon="11.803952092483417"><ele>331.8</ele><time>2026-04-06T10:52:06.998Z</time></trkpt><trkpt lat="43.698190329932075" lon="11.804067911180201"><ele>331.0</ele><time>2026-04-06T10:52:08.998Z</time></trkpt><trkpt lat="43.698115045099314" lon="11.804182480433562"><ele>331.0</ele><time>2026-04-06T10:52:10.998Z</time></trkpt><trkpt lat="43.69805383936845" lon="11.804275806678133"><ele>331.0</ele><time>2026-04-06T10:52:12.998Z</time></trkpt><trkpt lat="43.69807618669494" lon="11.804445362590947"><ele>331.0</ele><time>2026-04-06T10:52:14.998Z</time></trkpt><trkpt lat="43.6981381254662" lon="11.804537719804342"><ele>331.0</ele><time>2026-04-06T10:52:16.998Z</time></trkpt><trkpt lat="43.69821692237558" lon="11.804588432805419"><ele>331.0</ele><time>2026-04-06T10:52:18.998Z</time></trkpt><trkpt lat="43.698283414710815" lon="11.804661499948491"><ele>331.0</ele><time>2026-04-06T10:52:20.998Z</time></trkpt><trkpt lat="43.698343247563535" lon="11.80472748302187"><ele>331.0</ele><time>2026-04-06T10:52:22.998Z</time></trkpt><trkpt lat="43.698392144201286" lon="11.804804391843565"><ele>331.0</ele><time>2026-04-06T10:52:25.998Z</time></trkpt><trkpt lat="43.69838743364644" lon="11.804915153434637"><ele>331.0</ele><time>2026-04-06T10:52:28.998Z</time></trkpt><trkpt lat="43.69843583581526" lon="11.80498810952877"><ele>331.0</ele><time>2026-04-06T10:52:32.998Z</time></trkpt><trkpt lat="43.698481602126634" lon="11.805057166169282"><ele>331.0</ele><time>2026-04-06T10:52:36.998Z</time></trkpt><trkpt lat="43.69853015678402" lon="11.80513094955038"><ele>331.0</ele><time>2026-04-06T10:52:40.998Z</time></trkpt><trkpt lat="43.69858076576702" lon="11.80521134040158"><ele>331.0</ele><time>2026-04-06T10:52:44.998Z</time></trkpt><trkpt lat="43.698622275050084" lon="11.805277276651656"><ele>331.0</ele><time>2026-04-06T10:52:47.998Z</time></trkpt><trkpt lat="43.69866787988166" lon="11.805348415472507"><ele>331.0</ele><time>2026-04-06T10:52:50.998Z</time></trkpt><trkpt lat="43.69860790432649" lon="11.805254449184595"><ele>331.0</ele><time>2026-04-06T10:52:59.998Z</time></trkpt><trkpt lat="43.6985559918846" lon="11.805171987836312"><ele>331.0</ele><time>2026-04-06T10:53:02.998Z</time></trkpt><trkpt lat="43.698513431455446" lon="11.805105193348753"><ele>331.0</ele><time>2026-04-06T10:53:04.998Z</time></trkpt><trkpt lat="43.69845475783435" lon="11.805016660906587"><ele>331.0</ele><time>2026-04-06T10:53:07.998Z</time></trkpt><trkpt lat="43.69839686729509" lon="11.804929310053389"><ele>331.0</ele><time>2026-04-06T10:53:10.996Z</time></trkpt><trkpt lat="43.698352971718464" lon="11.804862947880753"><ele>331.0</ele><time>2026-04-06T10:53:12.995Z</time></trkpt><trkpt lat="43.698308346045714" lon="11.804795345520814"><ele>331.0</ele><time>2026-04-06T10:53:14.996Z</time></trkpt><trkpt lat="43.69825469663934" lon="11.804714073322563"><ele>331.0</ele><time>2026-04-06T10:53:16.995Z</time></trkpt><trkpt lat="43.698209715162164" lon="11.804645988057738"><ele>331.0</ele><time>2026-04-06T10:53:18.996Z</time></trkpt><trkpt lat="43.69821618878821" lon="11.804534369172274"><ele>331.0</ele><time>2026-04-06T10:53:20.996Z</time></trkpt><trkpt lat="43.69816888245407" lon="11.80444822493587"><ele>331.0</ele><time>2026-04-06T10:53:23.995Z</time></trkpt><trkpt lat="43.698103480046065" lon="11.804485324006526"><ele>331.0</ele><time>2026-04-06T10:53:24.995Z</time></trkpt><trkpt lat="43.69805579710245" lon="11.8044132109828"><ele>331.0</ele><time>2026-04-06T10:53:27.996Z</time></trkpt><trkpt lat="43.69832908290412" lon="11.804570482914"><ele>331.0</ele><time>2026-04-06T10:53:28.996Z</time></trkpt><trkpt lat="43.69837400995151" lon="11.804503137260559"><ele>331.0</ele><time>2026-04-06T10:53:30.996Z</time></trkpt><trkpt lat="43.69842071852099" lon="11.804433109023254"><ele>331.0</ele><time>2026-04-06T10:53:32.996Z</time></trkpt><trkpt lat="43.698469186533224" lon="11.8043604429248"><ele>331.0</ele><time>2026-04-06T10:53:34.996Z</time></trkpt><trkpt lat="43.69851343901463" lon="11.804294097001359"><ele>331.0</ele><time>2026-04-06T10:53:36.996Z</time></trkpt><trkpt lat="43.69855715119141" lon="11.804228561132485"><ele>331.0</ele><time>2026-04-06T10:53:38.996Z</time></trkpt><trkpt lat="43.698607364209685" lon="11.804153278830961"><ele>331.0</ele><time>2026-04-06T10:53:40.996Z</time></trkpt><trkpt lat="43.69865059390058" lon="11.804088466354148"><ele>331.0</ele><time>2026-04-06T10:53:42.996Z</time></trkpt><trkpt lat="43.698693526965776" lon="11.804024098597244"><ele>331.0</ele><time>2026-04-06T10:53:44.996Z</time></trkpt><trkpt lat="43.69875493607236" lon="11.803932030481079"><ele>331.0</ele><time>2026-04-06T10:53:47.996Z</time></trkpt><trkpt lat="43.69851613068963" lon="11.803573750470505"><ele>331.0</ele><time>2026-04-06T10:53:48.996Z</time></trkpt><trkpt lat="43.698553784984284" lon="11.80347074282509"><ele>331.66666666666663</ele><time>2026-04-06T10:53:51.996Z</time></trkpt><trkpt lat="43.6985974594197" lon="11.803376220681308"><ele>332.3333333333333</ele><time>2026-04-06T10:53:54.996Z</time></trkpt><trkpt lat="43.698635339019894" lon="11.803295051205732"><ele>333.0</ele><time>2026-04-06T10:53:56.996Z</time></trkpt><trkpt lat="43.698671830487626" lon="11.803203300860922"><ele>333.6666666666667</ele><time>2026-04-06T10:53:59.996Z</time></trkpt><trkpt lat="43.69869016119564" lon="11.803119698271457"><ele>334.33333333333337</ele><time>2026-04-06T10:54:01.996Z</time></trkpt><trkpt lat="43.69873305704337" lon="11.803011957682653"><ele>335.0</ele><time>2026-04-06T10:54:04.996Z</time></trkpt><trkpt lat="43.6987800792738" lon="11.802915122981224"><ele>335.0</ele><time>2026-04-06T10:54:07.996Z</time></trkpt><trkpt lat="43.69881851052839" lon="11.802818900660984"><ele>335.0</ele><time>2026-04-06T10:54:10.996Z</time></trkpt><trkpt lat="43.69886202962084" lon="11.802710919912975"><ele>335.0</ele><time>2026-04-06T10:54:13.996Z</time></trkpt><trkpt lat="43.698903942467865" lon="11.802615124894567"><ele>335.0</ele><time>2026-04-06T10:54:16.996Z</time></trkpt><trkpt lat="43.698959579239066" lon="11.802446216665453"><ele>335.0</ele><time>2026-04-06T10:54:25.996Z</time></trkpt><trkpt lat="43.69892938184075" lon="11.802368165985062"><ele>335.0</ele><time>2026-04-06T10:54:28.996Z</time></trkpt><trkpt lat="43.69884522919559" lon="11.802329541436743"><ele>335.1666666666667</ele><time>2026-04-06T10:54:31.996Z</time></trkpt><trkpt lat="43.69877063874235" lon="11.80227670297751"><ele>335.33333333333337</ele><time>2026-04-06T10:54:34.996Z</time></trkpt><trkpt lat="43.69869666038249" lon="11.802211661640387"><ele>335.5</ele><time>2026-04-06T10:54:37.996Z</time></trkpt><trkpt lat="43.69861930754795" lon="11.802143046348418"><ele>335.6666666666667</ele><time>2026-04-06T10:54:40.996Z</time></trkpt><trkpt lat="43.69856363572079" lon="11.802089094781511"><ele>335.8333333333333</ele><time>2026-04-06T10:54:42.996Z</time></trkpt><trkpt lat="43.69849654584589" lon="11.801999894317772"><ele>336.0</ele><time>2026-04-06T10:54:45.996Z</time></trkpt><trkpt lat="43.6984329586287" lon="11.801904602694188"><ele>335.1666666666667</ele><time>2026-04-06T10:54:48.996Z</time></trkpt><trkpt lat="43.6983705656096" lon="11.801811220789174"><ele>334.3333333333333</ele><time>2026-04-06T10:54:51.996Z</time></trkpt><trkpt lat="43.698311546892214" lon="11.801712611045676"><ele>333.5</ele><time>2026-04-06T10:54:54.996Z</time></trkpt><trkpt lat="43.69826952762014" lon="11.801631627122726"><ele>332.66666666666663</ele><time>2026-04-06T10:54:56.996Z</time></trkpt><trkpt lat="43.69821261505773" lon="11.80156036290024"><ele>331.8333333333333</ele><time>2026-04-06T10:54:58.996Z</time></trkpt><trkpt lat="43.69817214157856" lon="11.80145949052399"><ele>331.0</ele><time>2026-04-06T10:55:00.996Z</time></trkpt><trkpt lat="43.698130954653564" lon="11.801360800134415"><ele>331.0</ele><time>2026-04-06T10:55:02.996Z</time></trkpt><trkpt lat="43.69808589340309" lon="11.801254972818734"><ele>331.0</ele><time>2026-04-06T10:55:04.996Z</time></trkpt><trkpt lat="43.6980265387168" lon="11.801147404560977"><ele>331.0</ele><time>2026-04-06T10:55:06.996Z</time></trkpt><trkpt lat="43.69797074026087" lon="11.801020309822876"><ele>331.0</ele><time>2026-04-06T10:55:08.996Z</time></trkpt><trkpt lat="43.697902945830585" lon="11.800884476182173"><ele>331.0</ele><time>2026-04-06T10:55:10.996Z</time></trkpt><trkpt lat="43.697865505729766" lon="11.800811849290342"><ele>330.42857142857144</ele><time>2026-04-06T10:55:11.996Z</time></trkpt><trkpt lat="43.69782531963127" lon="11.800742926880499"><ele>329.85714285714283</ele><time>2026-04-06T10:55:12.996Z</time></trkpt><trkpt lat="43.697781011162334" lon="11.800676253041566"><ele>329.2857142857143</ele><time>2026-04-06T10:55:13.996Z</time></trkpt><trkpt lat="43.69772785058549" lon="11.800613880862205"><ele>328.7142857142857</ele><time>2026-04-06T10:55:14.996Z</time></trkpt><trkpt lat="43.69767167113127" lon="11.80055612027119"><ele>328.14285714285717</ele><time>2026-04-06T10:55:15.996Z</time></trkpt><trkpt lat="43.69761323032698" lon="11.80049818690088"><ele>327.57142857142856</ele><time>2026-04-06T10:55:16.993Z</time></trkpt><trkpt lat="43.697549752806815" lon="11.800444064158627"><ele>327.0</ele><time>2026-04-06T10:55:17.993Z</time></trkpt><trkpt lat="43.69748278481342" lon="11.800396602844778"><ele>327.0</ele><time>2026-04-06T10:55:18.993Z</time></trkpt><trkpt lat="43.69741241216104" lon="11.800355942303758"><ele>327.0</ele><time>2026-04-06T10:55:19.993Z</time></trkpt><trkpt lat="43.69733489457961" lon="11.8003207773211"><ele>327.0</ele><time>2026-04-06T10:55:20.992Z</time></trkpt><trkpt lat="43.69725872720434" lon="11.800288229165265"><ele>327.0</ele><time>2026-04-06T10:55:21.992Z</time></trkpt><trkpt lat="43.69717874696967" lon="11.800267774102512"><ele>327.0</ele><time>2026-04-06T10:55:22.992Z</time></trkpt><trkpt lat="43.69709505888821" lon="11.80025585352878"><ele>327.0</ele><time>2026-04-06T10:55:23.992Z</time></trkpt><trkpt lat="43.69701083629542" lon="11.800255316858575"><ele>327.0</ele><time>2026-04-06T10:55:24.992Z</time></trkpt><trkpt lat="43.69692969173173" lon="11.800249391631887"><ele>327.0</ele><time>2026-04-06T10:55:25.992Z</time></trkpt><trkpt lat="43.696847636174034" lon="11.800241933892583"><ele>327.0</ele><time>2026-04-06T10:55:26.992Z</time></trkpt><trkpt lat="43.69677042657983" lon="11.800209235912645"><ele>327.0</ele><time>2026-04-06T10:55:27.992Z</time></trkpt><trkpt lat="43.69670283225417" lon="11.80018775274857"><ele>327.0</ele><time>2026-04-06T10:55:28.992Z</time></trkpt><trkpt lat="43.69662693446936" lon="11.800080505789941"><ele>327.0</ele><time>2026-04-06T10:55:29.992Z</time></trkpt><trkpt lat="43.696602706237776" lon="11.79998955083027"><ele>326.3333333333333</ele><time>2026-04-06T10:55:30.992Z</time></trkpt><trkpt lat="43.69657263452688" lon="11.799911217257302"><ele>325.6666666666667</ele><time>2026-04-06T10:55:31.992Z</time></trkpt><trkpt lat="43.696557599181155" lon="11.799820214891524"><ele>325.0</ele><time>2026-04-06T10:55:32.992Z</time></trkpt><trkpt lat="43.696494969939096" lon="11.799782531250086"><ele>324.33333333333337</ele><time>2026-04-06T10:55:33.992Z</time></trkpt><trkpt lat="43.696399952835385" lon="11.79968360485936"><ele>323.6666666666667</ele><time>2026-04-06T10:55:35.992Z</time></trkpt><trkpt lat="43.69628808142479" lon="11.799630224176608"><ele>323.0</ele><time>2026-04-06T10:55:37.992Z</time></trkpt><trkpt lat="43.69617012229328" lon="11.799620898348788"><ele>323.0</ele><time>2026-04-06T10:55:39.992Z</time></trkpt><trkpt lat="43.69606500286787" lon="11.79962932020922"><ele>323.0</ele><time>2026-04-06T10:55:41.992Z</time></trkpt><trkpt lat="43.695958097165295" lon="11.799471796927095"><ele>323.0</ele><time>2026-04-06T10:55:43.992Z</time></trkpt><trkpt lat="43.69590311503479" lon="11.799335875163198"><ele>323.0</ele><time>2026-04-06T10:55:45.992Z</time></trkpt><trkpt lat="43.69585495463901" lon="11.799212901108811"><ele>323.1666666666667</ele><time>2026-04-06T10:55:47.992Z</time></trkpt><trkpt lat="43.69581442217973" lon="11.799109404434905"><ele>323.33333333333337</ele><time>2026-04-06T10:55:49.992Z</time></trkpt><trkpt lat="43.69578326439781" lon="11.799029845315982"><ele>323.5</ele><time>2026-04-06T10:55:51.992Z</time></trkpt><trkpt lat="43.69583031997655" lon="11.798906667182155"><ele>323.6666666666667</ele><time>2026-04-06T10:55:53.992Z</time></trkpt><trkpt lat="43.6958328473149" lon="11.7988155739956"><ele>323.8333333333333</ele><time>2026-04-06T10:55:55.992Z</time></trkpt><trkpt lat="43.69571185684256" lon="11.798838129486843"><ele>324.0</ele><time>2026-04-06T10:55:56.992Z</time></trkpt><trkpt lat="43.69567423743621" lon="11.798732750480552"><ele>324.0</ele><time>2026-04-06T10:55:58.992Z</time></trkpt><trkpt lat="43.69564339014497" lon="11.798646248814254"><ele>324.0</ele><time>2026-04-06T10:56:00.992Z</time></trkpt><trkpt lat="43.695601693751584" lon="11.79853244667287"><ele>324.0</ele><time>2026-04-06T10:56:02.992Z</time></trkpt><trkpt lat="43.69556287884125" lon="11.798425549797376"><ele>324.0</ele><time>2026-04-06T10:56:04.992Z</time></trkpt><trkpt lat="43.69552385156648" lon="11.798310883992523"><ele>324.0</ele><time>2026-04-06T10:56:06.992Z</time></trkpt><trkpt lat="43.69548487181212" lon="11.798187098441245"><ele>324.0</ele><time>2026-04-06T10:56:08.992Z</time></trkpt><trkpt lat="43.69544971998881" lon="11.798065607436195"><ele>324.0</ele><time>2026-04-06T10:56:10.992Z</time></trkpt><trkpt lat="43.69541930994406" lon="11.797938272532818"><ele>324.0</ele><time>2026-04-06T10:56:12.992Z</time></trkpt><trkpt lat="43.69539440325073" lon="11.79780449165277"><ele>324.0</ele><time>2026-04-06T10:56:14.992Z</time></trkpt><trkpt lat="43.69537840177912" lon="11.797672055885782"><ele>324.0</ele><time>2026-04-06T10:56:16.992Z</time></trkpt><trkpt lat="43.69537247013353" lon="11.79754733122766"><ele>324.0</ele><time>2026-04-06T10:56:18.992Z</time></trkpt><trkpt lat="43.69537236775046" lon="11.797430245754871"><ele>324.0</ele><time>2026-04-06T10:56:20.992Z</time></trkpt><trkpt lat="43.695376762333225" lon="11.79730666375606"><ele>324.0</ele><time>2026-04-06T10:56:23.992Z</time></trkpt><trkpt lat="43.69538186107715" lon="11.797212692183507"><ele>324.0</ele><time>2026-04-06T10:56:25.992Z</time></trkpt><trkpt lat="43.695416031955105" lon="11.797132487667838"><ele>324.0</ele><time>2026-04-06T10:56:29.992Z</time></trkpt><trkpt lat="43.69569669447251" lon="11.797181905286577"><ele>324.0</ele><time>2026-04-06T10:56:30.992Z</time></trkpt><trkpt lat="43.69577502549004" lon="11.797192694621499"><ele>324.0</ele><time>2026-04-06T10:56:32.992Z</time></trkpt><trkpt lat="43.69585006795345" lon="11.797200275658316"><ele>324.0</ele><time>2026-04-06T10:56:34.992Z</time></trkpt><trkpt lat="43.695932043057326" lon="11.797200828511372"><ele>324.0</ele><time>2026-04-06T10:56:36.992Z</time></trkpt><trkpt lat="43.69601221050228" lon="11.797209624446202"><ele>324.0</ele><time>2026-04-06T10:56:38.992Z</time></trkpt><trkpt lat="43.696083822738586" lon="11.797216360749573"><ele>324.0</ele><time>2026-04-06T10:56:40.992Z</time></trkpt><trkpt lat="43.696146891568546" lon="11.797233619380648"><ele>323.8333333333333</ele><time>2026-04-06T10:56:42.992Z</time></trkpt><trkpt lat="43.696230773023" lon="11.797262936023467"><ele>323.6666666666667</ele><time>2026-04-06T10:56:44.992Z</time></trkpt><trkpt lat="43.696297516990505" lon="11.797238700665185"><ele>323.5</ele><time>2026-04-06T10:56:46.992Z</time></trkpt><trkpt lat="43.696328695426686" lon="11.797121595125125"><ele>323.33333333333337</ele><time>2026-04-06T10:56:49.992Z</time></trkpt><trkpt lat="43.69641427608723" lon="11.797060553682881"><ele>323.1666666666667</ele><time>2026-04-06T10:56:52.992Z</time></trkpt><trkpt lat="43.696495322938276" lon="11.797040584382971"><ele>323.0</ele><time>2026-04-06T10:56:54.992Z</time></trkpt><trkpt lat="43.696581396221575" lon="11.79702531679536"><ele>323.0</ele><time>2026-04-06T10:56:56.992Z</time></trkpt><trkpt lat="43.69664869317466" lon="11.797009002285472"><ele>323.0</ele><time>2026-04-06T10:56:58.992Z</time></trkpt><trkpt lat="43.69672101007442" lon="11.79696753656106"><ele>323.0</ele><time>2026-04-06T10:57:00.992Z</time></trkpt><trkpt lat="43.69678068243218" lon="11.796914206075384"><ele>323.0</ele><time>2026-04-06T10:57:02.992Z</time></trkpt><trkpt lat="43.69684859623434" lon="11.796848195198011"><ele>323.0</ele><time>2026-04-06T10:57:04.992Z</time></trkpt><trkpt lat="43.69690770268928" lon="11.796777838784822"><ele>323.0</ele><time>2026-04-06T10:57:06.992Z</time></trkpt><trkpt lat="43.69696741012405" lon="11.796706329377324"><ele>323.33333333333337</ele><time>2026-04-06T10:57:08.992Z</time></trkpt><trkpt lat="43.69702516662128" lon="11.796623932197008"><ele>323.6666666666667</ele><time>2026-04-06T10:57:10.992Z</time></trkpt><trkpt lat="43.69709498622613" lon="11.796552111774425"><ele>324.0</ele><time>2026-04-06T10:57:12.992Z</time></trkpt><trkpt lat="43.697148932457104" lon="11.796477232962355"><ele>324.3333333333333</ele><time>2026-04-06T10:57:14.992Z</time></trkpt><trkpt lat="43.697206634967266" lon="11.796406494457923"><ele>324.66666666666663</ele><time>2026-04-06T10:57:16.992Z</time></trkpt><trkpt lat="43.697264078255344" lon="11.796338166280577"><ele>325.0</ele><time>2026-04-06T10:57:18.992Z</time></trkpt><trkpt lat="43.697320586608825" lon="11.79626959239305"><ele>325.0</ele><time>2026-04-06T10:57:20.992Z</time></trkpt><trkpt lat="43.69738547223138" lon="11.796184625308666"><ele>325.0</ele><time>2026-04-06T10:57:23.989Z</time></trkpt><trkpt lat="43.697449534577515" lon="11.79609140274669"><ele>325.0</ele><time>2026-04-06T10:57:26.988Z</time></trkpt><trkpt lat="43.697495837255524" lon="11.796024455851441"><ele>325.0</ele><time>2026-04-06T10:57:28.988Z</time></trkpt><trkpt lat="43.697545167899044" lon="11.795945739040627"><ele>325.0</ele><time>2026-04-06T10:57:30.989Z</time></trkpt><trkpt lat="43.69759364598608" lon="11.795872461686718"><ele>325.0</ele><time>2026-04-06T10:57:32.988Z</time></trkpt><trkpt lat="43.69764387450174" lon="11.795796580804746"><ele>325.16666666666663</ele><time>2026-04-06T10:57:34.987Z</time></trkpt><trkpt lat="43.6976912864428" lon="11.795738420755239"><ele>325.3333333333333</ele><time>2026-04-06T10:57:36.988Z</time></trkpt><trkpt lat="43.69773693564789" lon="11.795664818137176"><ele>325.5</ele><time>2026-04-06T10:57:38.987Z</time></trkpt><trkpt lat="43.697797222846894" lon="11.795591792072498"><ele>325.6666666666667</ele><time>2026-04-06T10:57:40.988Z</time></trkpt><trkpt lat="43.69786127334026" lon="11.795519773820331"><ele>325.83333333333337</ele><time>2026-04-06T10:57:42.988Z</time></trkpt><trkpt lat="43.69791388153191" lon="11.795424409617748"><ele>326.0</ele><time>2026-04-06T10:57:44.988Z</time></trkpt><trkpt lat="43.69788252680414" lon="11.795334647153885"><ele>326.0</ele><time>2026-04-06T10:57:46.988Z</time></trkpt><trkpt lat="43.69781585317026" lon="11.795325549670368"><ele>326.0</ele><time>2026-04-06T10:57:48.988Z</time></trkpt><trkpt lat="43.69773638861694" lon="11.795307469657596"><ele>326.0</ele><time>2026-04-06T10:57:51.988Z</time></trkpt><trkpt lat="43.697669402619226" lon="11.795271130397921"><ele>326.0</ele><time>2026-04-06T10:57:53.988Z</time></trkpt><trkpt lat="43.69760194740888" lon="11.79522746673156"><ele>326.0</ele><time>2026-04-06T10:57:55.988Z</time></trkpt><trkpt lat="43.697538158505516" lon="11.79520010743753"><ele>326.0</ele><time>2026-04-06T10:57:57.988Z</time></trkpt><trkpt lat="43.697465178151496" lon="11.79514240885889"><ele>326.0</ele><time>2026-04-06T10:57:59.988Z</time></trkpt><trkpt lat="43.69742492535083" lon="11.79506714538316"><ele>325.83333333333337</ele><time>2026-04-06T10:58:01.988Z</time></trkpt><trkpt lat="43.69738862791061" lon="11.794966640873438"><ele>325.6666666666667</ele><time>2026-04-06T10:58:03.988Z</time></trkpt><trkpt lat="43.69740635811639" lon="11.794833672763742"><ele>325.5</ele><time>2026-04-06T10:58:05.988Z</time></trkpt><trkpt lat="43.697415465706364" lon="11.79471746515448"><ele>325.3333333333333</ele><time>2026-04-06T10:58:07.988Z</time></trkpt><trkpt lat="43.697401262619664" lon="11.794610277204246"><ele>325.16666666666663</ele><time>2026-04-06T10:58:09.988Z</time></trkpt><trkpt lat="43.69738775705611" lon="11.794487177881672"><ele>325.0</ele><time>2026-04-06T10:58:11.988Z</time></trkpt><trkpt lat="43.697395632335166" lon="11.794388217580597"><ele>325.0</ele><time>2026-04-06T10:58:13.988Z</time></trkpt><trkpt lat="43.69739774245966" lon="11.794269725504154"><ele>325.0</ele><time>2026-04-06T10:58:15.988Z</time></trkpt><trkpt lat="43.697405362803735" lon="11.794159335485377"><ele>325.0</ele><time>2026-04-06T10:58:17.988Z</time></trkpt><trkpt lat="43.697422108711315" lon="11.794042082897322"><ele>325.0</ele><time>2026-04-06T10:58:19.988Z</time></trkpt><trkpt lat="43.69743768599063" lon="11.793941366435073"><ele>325.0</ele><time>2026-04-06T10:58:21.988Z</time></trkpt><trkpt lat="43.69744401161993" lon="11.793835641622458"><ele>325.0</ele><time>2026-04-06T10:58:23.988Z</time></trkpt><trkpt lat="43.697456151033954" lon="11.793715257053446"><ele>325.0</ele><time>2026-04-06T10:58:25.988Z</time></trkpt><trkpt lat="43.69746890433795" lon="11.793596869318579"><ele>325.0</ele><time>2026-04-06T10:58:27.988Z</time></trkpt><trkpt lat="43.69747444109828" lon="11.793482672486284"><ele>325.0</ele><time>2026-04-06T10:58:29.988Z</time></trkpt><trkpt lat="43.6974866660724" lon="11.793338551743746"><ele>325.0</ele><time>2026-04-06T10:58:31.988Z</time></trkpt><trkpt lat="43.6975111320919" lon="11.793172752888182"><ele>325.0</ele><time>2026-04-06T10:58:33.988Z</time></trkpt><trkpt lat="43.697540165551096" lon="11.793026512811174"><ele>325.0</ele><time>2026-04-06T10:58:35.988Z</time></trkpt><trkpt lat="43.6975632075937" lon="11.792908153515445"><ele>325.0</ele><time>2026-04-06T10:58:37.988Z</time></trkpt><trkpt lat="43.697573298900444" lon="11.7927856482029"><ele>325.0</ele><time>2026-04-06T10:58:39.988Z</time></trkpt><trkpt lat="43.697595307110994" lon="11.79267186871152"><ele>325.0</ele><time>2026-04-06T10:58:41.988Z</time></trkpt><trkpt lat="43.697624926028375" lon="11.792566351359428"><ele>325.0</ele><time>2026-04-06T10:58:43.988Z</time></trkpt><trkpt lat="43.697637946063" lon="11.792438647241186"><ele>325.0</ele><time>2026-04-06T10:58:45.988Z</time></trkpt><trkpt lat="43.69765825349557" lon="11.792337673854755"><ele>325.0</ele><time>2026-04-06T10:58:47.988Z</time></trkpt><trkpt lat="43.69768902421373" lon="11.792232445738776"><ele>325.0</ele><time>2026-04-06T10:58:49.988Z</time></trkpt><trkpt lat="43.6977167042728" lon="11.792112548051968"><ele>325.0</ele><time>2026-04-06T10:58:51.988Z</time></trkpt><trkpt lat="43.69773260976327" lon="11.791971333388625"><ele>325.0</ele><time>2026-04-06T10:58:53.988Z</time></trkpt><trkpt lat="43.69773995270029" lon="11.791875212033537"><ele>325.0</ele><time>2026-04-06T10:58:55.988Z</time></trkpt><trkpt lat="43.697766776471305" lon="11.79179403809915"><ele>325.0</ele><time>2026-04-06T10:58:57.988Z</time></trkpt><trkpt lat="43.69778832402894" lon="11.791675922469455"><ele>325.0</ele><time>2026-04-06T10:59:00.988Z</time></trkpt><trkpt lat="43.69781118174811" lon="11.791560410283953"><ele>325.0</ele><time>2026-04-06T10:59:03.988Z</time></trkpt><trkpt lat="43.697830140729" lon="11.79146334460157"><ele>325.0</ele><time>2026-04-06T10:59:06.988Z</time></trkpt><trkpt lat="43.697858540644184" lon="11.791344389283351"><ele>325.0</ele><time>2026-04-06T10:59:09.988Z</time></trkpt><trkpt lat="43.69788062287355" lon="11.791223878132113"><ele>325.0</ele><time>2026-04-06T10:59:12.988Z</time></trkpt><trkpt lat="43.6978883914825" lon="11.79113732390649"><ele>325.0</ele><time>2026-04-06T10:59:14.988Z</time></trkpt><trkpt lat="43.697908980440765" lon="11.791045455488531"><ele>325.16666666666663</ele><time>2026-04-06T10:59:17.988Z</time></trkpt><trkpt lat="43.697925200722715" lon="11.790936844283376"><ele>325.3333333333333</ele><time>2026-04-06T10:59:20.988Z</time></trkpt><trkpt lat="43.69795872507948" lon="11.790828593143623"><ele>325.5</ele><time>2026-04-06T10:59:23.988Z</time></trkpt><trkpt lat="43.69799617098701" lon="11.79072619492718"><ele>325.6666666666667</ele><time>2026-04-06T10:59:26.988Z</time></trkpt><trkpt lat="43.697992091199396" lon="11.790636848792056"><ele>325.83333333333337</ele><time>2026-04-06T10:59:35.984Z</time></trkpt><trkpt lat="43.697988666534854" lon="11.790544098898845"><ele>326.0</ele><time>2026-04-06T11:00:08.984Z</time></trkpt><trkpt lat="43.69803811295697" lon="11.790464175543987"><ele>326.0</ele><time>2026-04-06T11:00:14.984Z</time></trkpt><trkpt lat="43.69809150003882" lon="11.790378972445842"><ele>326.0</ele><time>2026-04-06T11:00:17.984Z</time></trkpt><trkpt lat="43.69813689594777" lon="11.790270495856452"><ele>326.0</ele><time>2026-04-06T11:00:20.984Z</time></trkpt><trkpt lat="43.69817923912715" lon="11.790180149530372"><ele>326.0</ele><time>2026-04-06T11:00:23.984Z</time></trkpt><trkpt lat="43.69822054303493" lon="11.79007700224828"><ele>326.0</ele><time>2026-04-06T11:00:26.984Z</time></trkpt><trkpt lat="43.698251679465265" lon="11.789993447632643"><ele>326.0</ele><time>2026-04-06T11:00:28.984Z</time></trkpt><trkpt lat="43.69830831519629" lon="11.789880277267972"><ele>326.0</ele><time>2026-04-06T11:00:30.984Z</time></trkpt><trkpt lat="43.698364818787155" lon="11.789746254258038"><ele>326.0</ele><time>2026-04-06T11:00:32.984Z</time></trkpt><trkpt lat="43.69842939091402" lon="11.789664135628616"><ele>326.0</ele><time>2026-04-06T11:00:34.984Z</time></trkpt><trkpt lat="43.69849434962977" lon="11.78955295951425"><ele>326.0</ele><time>2026-04-06T11:00:36.984Z</time></trkpt><trkpt lat="43.698554818281146" lon="11.789479673525392"><ele>326.0</ele><time>2026-04-06T11:00:38.984Z</time></trkpt><trkpt lat="43.69860591635109" lon="11.789410683400613"><ele>326.6</ele><time>2026-04-06T11:00:40.984Z</time></trkpt><trkpt lat="43.69865725018925" lon="11.78930879707159"><ele>327.20000000000005</ele><time>2026-04-06T11:00:42.984Z</time></trkpt><trkpt lat="43.69871871660608" lon="11.789199573182573"><ele>327.79999999999995</ele><time>2026-04-06T11:00:44.984Z</time></trkpt><trkpt lat="43.69876748865345" lon="11.78909149138379"><ele>328.4</ele><time>2026-04-06T11:00:46.984Z</time></trkpt><trkpt lat="43.69882415121037" lon="11.788986580841764"><ele>329.0</ele><time>2026-04-06T11:00:48.984Z</time></trkpt><trkpt lat="43.698873900630524" lon="11.788898386759284"><ele>329.0</ele><time>2026-04-06T11:00:50.984Z</time></trkpt><trkpt lat="43.69893735594718" lon="11.78881437471194"><ele>329.0</ele><time>2026-04-06T11:00:52.984Z</time></trkpt><trkpt lat="43.69899147378331" lon="11.78871909969928"><ele>329.0</ele><time>2026-04-06T11:00:54.984Z</time></trkpt><trkpt lat="43.69905247130714" lon="11.788635961975473"><ele>329.0</ele><time>2026-04-06T11:00:56.984Z</time></trkpt><trkpt lat="43.699106324048344" lon="11.788550369416834"><ele>329.0</ele><time>2026-04-06T11:00:58.984Z</time></trkpt><trkpt lat="43.69915823924031" lon="11.788461311925326"><ele>329.0</ele><time>2026-04-06T11:01:00.984Z</time></trkpt><trkpt lat="43.69920984357787" lon="11.788372364585825"><ele>328.5</ele><time>2026-04-06T11:01:02.984Z</time></trkpt><trkpt lat="43.69926552816299" lon="11.788289234229499"><ele>328.0</ele><time>2026-04-06T11:01:04.984Z</time></trkpt><trkpt lat="43.69931908769371" lon="11.788205764616777"><ele>327.5</ele><time>2026-04-06T11:01:06.984Z</time></trkpt><trkpt lat="43.699383014924216" lon="11.788121201849629"><ele>327.0</ele><time>2026-04-06T11:01:08.984Z</time></trkpt><trkpt lat="43.69945189453836" lon="11.788039709759254"><ele>326.5</ele><time>2026-04-06T11:01:10.984Z</time></trkpt><trkpt lat="43.69950807475268" lon="11.787967504499829"><ele>326.0</ele><time>2026-04-06T11:01:12.984Z</time></trkpt><trkpt lat="43.69955557970633" lon="11.787886573238103"><ele>326.0</ele><time>2026-04-06T11:01:14.984Z</time></trkpt><trkpt lat="43.699600839170294" lon="11.787801413793424"><ele>326.0</ele><time>2026-04-06T11:01:16.984Z</time></trkpt><trkpt lat="43.699643797876504" lon="11.787700158041016"><ele>326.0</ele><time>2026-04-06T11:01:18.984Z</time></trkpt><trkpt lat="43.69968973722979" lon="11.787614726609746"><ele>326.0</ele><time>2026-04-06T11:01:20.984Z</time></trkpt><trkpt lat="43.69973331969494" lon="11.78753995527213"><ele>326.0</ele><time>2026-04-06T11:01:22.984Z</time></trkpt><trkpt lat="43.699778925164345" lon="11.787471087037883"><ele>326.0</ele><time>2026-04-06T11:01:24.984Z</time></trkpt><trkpt lat="43.69982002153046" lon="11.78739621629358"><ele>326.0</ele><time>2026-04-06T11:01:26.984Z</time></trkpt><trkpt lat="43.69986112597444" lon="11.787327264966908"><ele>326.0</ele><time>2026-04-06T11:01:28.984Z</time></trkpt><trkpt lat="43.699908782427485" lon="11.787242855136409"><ele>326.0</ele><time>2026-04-06T11:01:30.984Z</time></trkpt><trkpt lat="43.69993905358643" lon="11.787152560698635"><ele>326.0</ele><time>2026-04-06T11:01:32.984Z</time></trkpt><trkpt lat="43.69997080073843" lon="11.787045028968327"><ele>326.0</ele><time>2026-04-06T11:01:34.981Z</time></trkpt><trkpt lat="43.699991051469716" lon="11.786939028483669"><ele>326.0</ele><time>2026-04-06T11:01:36.981Z</time></trkpt><trkpt lat="43.70001921205785" lon="11.78682447313253"><ele>326.0</ele><time>2026-04-06T11:01:38.981Z</time></trkpt><trkpt lat="43.70004246278687" lon="11.78671995163358"><ele>326.0</ele><time>2026-04-06T11:01:40.981Z</time></trkpt><trkpt lat="43.700080455861745" lon="11.78661906114145"><ele>326.0</ele><time>2026-04-06T11:01:42.981Z</time></trkpt><trkpt lat="43.700123607719156" lon="11.786516103982962"><ele>326.0</ele><time>2026-04-06T11:01:44.981Z</time></trkpt><trkpt lat="43.70016685193697" lon="11.786418997482146"><ele>326.0</ele><time>2026-04-06T11:01:46.981Z</time></trkpt><trkpt lat="43.700235231903754" lon="11.786333371070855"><ele>326.0</ele><time>2026-04-06T11:01:48.981Z</time></trkpt><trkpt lat="43.70029312306954" lon="11.786246948080889"><ele>326.0</ele><time>2026-04-06T11:01:50.981Z</time></trkpt><trkpt lat="43.70035143756291" lon="11.786168257298707"><ele>326.0</ele><time>2026-04-06T11:01:52.981Z</time></trkpt><trkpt lat="43.70040940327442" lon="11.786090756034103"><ele>326.0</ele><time>2026-04-06T11:01:54.981Z</time></trkpt><trkpt lat="43.700460972804706" lon="11.786010700160126"><ele>326.0</ele><time>2026-04-06T11:01:56.981Z</time></trkpt><trkpt lat="43.700516111371115" lon="11.785934210844314"><ele>326.0</ele><time>2026-04-06T11:01:58.981Z</time></trkpt><trkpt lat="43.70056650909849" lon="11.785843344641876"><ele>326.0</ele><time>2026-04-06T11:02:00.981Z</time></trkpt><trkpt lat="43.70062629676956" lon="11.785760658951622"><ele>326.0</ele><time>2026-04-06T11:02:02.981Z</time></trkpt><trkpt lat="43.700688564494634" lon="11.785700332697937"><ele>326.0</ele><time>2026-04-06T11:02:04.981Z</time></trkpt><trkpt lat="43.7007578210286" lon="11.785672931089293"><ele>326.0</ele><time>2026-04-06T11:02:06.981Z</time></trkpt><trkpt lat="43.700827284138576" lon="11.785646860816346"><ele>326.0</ele><time>2026-04-06T11:02:08.981Z</time></trkpt><trkpt lat="43.700897829452515" lon="11.785627931610833"><ele>326.0</ele><time>2026-04-06T11:02:10.981Z</time></trkpt><trkpt lat="43.700969054128095" lon="11.785598459845414"><ele>326.0</ele><time>2026-04-06T11:02:12.981Z</time></trkpt><trkpt lat="43.70103244846303" lon="11.785569470107264"><ele>326.0</ele><time>2026-04-06T11:02:14.981Z</time></trkpt><trkpt lat="43.70109404390697" lon="11.785543780458163"><ele>326.0</ele><time>2026-04-06T11:02:16.981Z</time></trkpt><trkpt lat="43.701171308768416" lon="11.785525981597978"><ele>326.0</ele><time>2026-04-06T11:02:18.981Z</time></trkpt><trkpt lat="43.7012462690008" lon="11.785495911420506"><ele>326.0</ele><time>2026-04-06T11:02:20.981Z</time></trkpt><trkpt lat="43.701328663997344" lon="11.785468711015245"><ele>326.0</ele><time>2026-04-06T11:02:22.981Z</time></trkpt><trkpt lat="43.70140354403279" lon="11.785446146745452"><ele>326.0</ele><time>2026-04-06T11:02:24.981Z</time></trkpt><trkpt lat="43.70147805017622" lon="11.785423911018343"><ele>326.0</ele><time>2026-04-06T11:02:26.981Z</time></trkpt><trkpt lat="43.70155919437422" lon="11.78540233912807"><ele>326.0</ele><time>2026-04-06T11:02:28.981Z</time></trkpt><trkpt lat="43.70164134501324" lon="11.785373911233819"><ele>326.0</ele><time>2026-04-06T11:02:30.981Z</time></trkpt><trkpt lat="43.701730450350574" lon="11.785350772407117"><ele>326.0</ele><time>2026-04-06T11:02:32.981Z</time></trkpt><trkpt lat="43.70181352651384" lon="11.78533959479908"><ele>326.0</ele><time>2026-04-06T11:02:34.981Z</time></trkpt><trkpt lat="43.701889166094645" lon="11.785348863666528"><ele>326.0</ele><time>2026-04-06T11:02:36.981Z</time></trkpt><trkpt lat="43.701958702522134" lon="11.785356736623042"><ele>326.0</ele><time>2026-04-06T11:02:38.981Z</time></trkpt><trkpt lat="43.70204189279486" lon="11.785372943541033"><ele>326.0</ele><time>2026-04-06T11:02:40.981Z</time></trkpt><trkpt lat="43.70212953476477" lon="11.785381207132835"><ele>326.20000000000005</ele><time>2026-04-06T11:02:42.981Z</time></trkpt><trkpt lat="43.70223680106961" lon="11.78539317133053"><ele>326.40000000000003</ele><time>2026-04-06T11:02:44.981Z</time></trkpt><trkpt lat="43.70233442644037" lon="11.785388599737074"><ele>326.6</ele><time>2026-04-06T11:02:46.981Z</time></trkpt><trkpt lat="43.70242358746178" lon="11.785372240005458"><ele>326.8</ele><time>2026-04-06T11:02:48.981Z</time></trkpt><trkpt lat="43.70251895873728" lon="11.785353759625972"><ele>327.0</ele><time>2026-04-06T11:02:50.981Z</time></trkpt><trkpt lat="43.702613600443016" lon="11.785339358346603"><ele>327.0</ele><time>2026-04-06T11:02:52.981Z</time></trkpt><trkpt lat="43.70269717057346" lon="11.785326682943909"><ele>327.0</ele><time>2026-04-06T11:02:54.981Z</time></trkpt><trkpt lat="43.70278431299921" lon="11.785307444688362"><ele>327.0</ele><time>2026-04-06T11:02:56.981Z</time></trkpt><trkpt lat="43.7028714468004" lon="11.78529194725484"><ele>327.0</ele><time>2026-04-06T11:02:58.981Z</time></trkpt><trkpt lat="43.70296144909883" lon="11.785271776756293"><ele>327.0</ele><time>2026-04-06T11:03:00.981Z</time></trkpt><trkpt lat="43.703046964233124" lon="11.785255205617457"><ele>327.0</ele><time>2026-04-06T11:03:02.981Z</time></trkpt><trkpt lat="43.70313203518245" lon="11.785235789833203"><ele>327.0</ele><time>2026-04-06T11:03:04.981Z</time></trkpt><trkpt lat="43.70321773943067" lon="11.78522637493681"><ele>327.0</ele><time>2026-04-06T11:03:06.981Z</time></trkpt><trkpt lat="43.70330799539135" lon="11.78521145927147"><ele>327.0</ele><time>2026-04-06T11:03:08.981Z</time></trkpt><trkpt lat="43.70339527337057" lon="11.78519554227254"><ele>327.0</ele><time>2026-04-06T11:03:10.981Z</time></trkpt><trkpt lat="43.70348196787633" lon="11.785173281120866"><ele>327.0</ele><time>2026-04-06T11:03:12.981Z</time></trkpt><trkpt lat="43.70356896142996" lon="11.785149151080793"><ele>327.0</ele><time>2026-04-06T11:03:14.981Z</time></trkpt><trkpt lat="43.703652764476985" lon="11.785130546519841"><ele>326.8333333333333</ele><time>2026-04-06T11:03:16.981Z</time></trkpt><trkpt lat="43.70373414507577" lon="11.78510287781976"><ele>326.6666666666667</ele><time>2026-04-06T11:03:18.981Z</time></trkpt><trkpt lat="43.70381079751438" lon="11.785061306115194"><ele>326.5</ele><time>2026-04-06T11:03:20.981Z</time></trkpt><trkpt lat="43.70390074155855" lon="11.785050342538396"><ele>326.33333333333337</ele><time>2026-04-06T11:03:22.981Z</time></trkpt><trkpt lat="43.703990775887114" lon="11.785051466568184"><ele>326.1666666666667</ele><time>2026-04-06T11:03:24.981Z</time></trkpt><trkpt lat="43.704082449467194" lon="11.785048358053382"><ele>326.0</ele><time>2026-04-06T11:03:26.981Z</time></trkpt><trkpt lat="43.70415993563845" lon="11.785045235996124"><ele>326.0</ele><time>2026-04-06T11:03:28.981Z</time></trkpt><trkpt lat="43.704244298061184" lon="11.785032721094012"><ele>326.0</ele><time>2026-04-06T11:03:30.981Z</time></trkpt><trkpt lat="43.7043245335652" lon="11.785021955769222"><ele>326.0</ele><time>2026-04-06T11:03:32.981Z</time></trkpt><trkpt lat="43.70441072171096" lon="11.78500608670632"><ele>326.0</ele><time>2026-04-06T11:03:34.981Z</time></trkpt><trkpt lat="43.70449319911615" lon="11.784984108292443"><ele>326.0</ele><time>2026-04-06T11:03:36.981Z</time></trkpt><trkpt lat="43.704569468204376" lon="11.784964322103335"><ele>326.0</ele><time>2026-04-06T11:03:38.981Z</time></trkpt><trkpt lat="43.70464511795866" lon="11.784939017307526"><ele>325.8</ele><time>2026-04-06T11:03:40.977Z</time></trkpt><trkpt lat="43.70478160680534" lon="11.78491168453153"><ele>325.6</ele><time>2026-04-06T11:03:42.977Z</time></trkpt><trkpt lat="43.704870292471426" lon="11.784888812277789"><ele>325.4</ele><time>2026-04-06T11:03:44.977Z</time></trkpt><trkpt lat="43.70496243288197" lon="11.784861852183537"><ele>325.2</ele><time>2026-04-06T11:03:46.977Z</time></trkpt><trkpt lat="43.70505304092598" lon="11.78483396959119"><ele>325.0</ele><time>2026-04-06T11:03:48.977Z</time></trkpt><trkpt lat="43.70515021452053" lon="11.784803406614412"><ele>325.0</ele><time>2026-04-06T11:03:50.977Z</time></trkpt><trkpt lat="43.70523982716741" lon="11.7847776587199"><ele>325.0</ele><time>2026-04-06T11:03:52.977Z</time></trkpt><trkpt lat="43.70533153798701" lon="11.784755274211314"><ele>325.0</ele><time>2026-04-06T11:03:54.977Z</time></trkpt><trkpt lat="43.705440745858176" lon="11.784746813613609"><ele>325.0</ele><time>2026-04-06T11:03:56.977Z</time></trkpt><trkpt lat="43.7055153333794" lon="11.784743849901922"><ele>325.0</ele><time>2026-04-06T11:03:58.976Z</time></trkpt><trkpt lat="43.70560344927592" lon="11.784725002691125"><ele>325.3333333333333</ele><time>2026-04-06T11:04:00.976Z</time></trkpt><trkpt lat="43.705671437060055" lon="11.784698986629307"><ele>325.66666666666663</ele><time>2026-04-06T11:04:02.976Z</time></trkpt><trkpt lat="43.705763041020134" lon="11.784682792247835"><ele>326.0</ele><time>2026-04-06T11:04:04.976Z</time></trkpt><trkpt lat="43.7058522300026" lon="11.784656381946906"><ele>326.3333333333333</ele><time>2026-04-06T11:04:07.976Z</time></trkpt><trkpt lat="43.70595880709193" lon="11.78464134873187"><ele>326.6666666666667</ele><time>2026-04-06T11:04:09.976Z</time></trkpt><trkpt lat="43.70602914445175" lon="11.78461676476036"><ele>327.0</ele><time>2026-04-06T11:04:11.976Z</time></trkpt><trkpt lat="43.706120569819866" lon="11.784574335634549"><ele>327.0</ele><time>2026-04-06T11:04:13.976Z</time></trkpt><trkpt lat="43.70620926922967" lon="11.784573932006513"><ele>327.0</ele><time>2026-04-06T11:04:15.976Z</time></trkpt><trkpt lat="43.70631029607869" lon="11.784590129601034"><ele>327.0</ele><time>2026-04-06T11:04:17.976Z</time></trkpt><trkpt lat="43.70640821420662" lon="11.78458678004097"><ele>327.0</ele><time>2026-04-06T11:04:19.976Z</time></trkpt><trkpt lat="43.70650155774096" lon="11.784581026837046"><ele>327.0</ele><time>2026-04-06T11:04:21.976Z</time></trkpt><trkpt lat="43.7066051946125" lon="11.78455043072881"><ele>327.0</ele><time>2026-04-06T11:04:23.976Z</time></trkpt><trkpt lat="43.70669457462094" lon="11.784513527205904"><ele>327.0</ele><time>2026-04-06T11:04:25.976Z</time></trkpt><trkpt lat="43.706780816435305" lon="11.784487386429417"><ele>327.0</ele><time>2026-04-06T11:04:27.976Z</time></trkpt><trkpt lat="43.70687382957995" lon="11.78445629136669"><ele>327.0</ele><time>2026-04-06T11:04:29.976Z</time></trkpt><trkpt lat="43.706968130953236" lon="11.784416992325044"><ele>327.0</ele><time>2026-04-06T11:04:31.976Z</time></trkpt><trkpt lat="43.707058896658666" lon="11.784382732740065"><ele>327.1666666666667</ele><time>2026-04-06T11:04:33.976Z</time></trkpt><trkpt lat="43.70714329017112" lon="11.784354013478742"><ele>327.3333333333333</ele><time>2026-04-06T11:04:35.976Z</time></trkpt><trkpt lat="43.70722197866816" lon="11.784320507095206"><ele>327.5</ele><time>2026-04-06T11:04:37.976Z</time></trkpt><trkpt lat="43.707305198976705" lon="11.784279939557663"><ele>327.66666666666663</ele><time>2026-04-06T11:04:39.976Z</time></trkpt><trkpt lat="43.70739018050498" lon="11.784251309571443"><ele>327.8333333333333</ele><time>2026-04-06T11:04:41.976Z</time></trkpt><trkpt lat="43.7074740583666" lon="11.784220719459242"><ele>328.0</ele><time>2026-04-06T11:04:43.976Z</time></trkpt><trkpt lat="43.70756026215568" lon="11.784181651471423"><ele>328.0</ele><time>2026-04-06T11:04:45.976Z</time></trkpt><trkpt lat="43.707640934103885" lon="11.784153837533406"><ele>328.0</ele><time>2026-04-06T11:04:47.976Z</time></trkpt><trkpt lat="43.70772990177314" lon="11.784114187362956"><ele>328.0</ele><time>2026-04-06T11:04:49.976Z</time></trkpt><trkpt lat="43.70781869224729" lon="11.784077975045282"><ele>328.0</ele><time>2026-04-06T11:04:51.976Z</time></trkpt><trkpt lat="43.70790153755814" lon="11.784052980120322"><ele>328.0</ele><time>2026-04-06T11:04:53.976Z</time></trkpt><trkpt lat="43.70798529711458" lon="11.784020644902146"><ele>328.0</ele><time>2026-04-06T11:04:55.976Z</time></trkpt><trkpt lat="43.708066023679294" lon="11.783991157561855"><ele>327.8333333333333</ele><time>2026-04-06T11:04:57.976Z</time></trkpt><trkpt lat="43.70814684546422" lon="11.783954301413617"><ele>327.66666666666663</ele><time>2026-04-06T11:04:59.976Z</time></trkpt><trkpt lat="43.70822691867074" lon="11.783920475494686"><ele>327.5</ele><time>2026-04-06T11:05:01.976Z</time></trkpt><trkpt lat="43.70830210486382" lon="11.783884492062862"><ele>327.3333333333333</ele><time>2026-04-06T11:05:03.976Z</time></trkpt><trkpt lat="43.708377589094624" lon="11.783855056802278"><ele>327.1666666666667</ele><time>2026-04-06T11:05:05.976Z</time></trkpt><trkpt lat="43.70845913260065" lon="11.783827066683651"><ele>327.0</ele><time>2026-04-06T11:05:07.976Z</time></trkpt><trkpt lat="43.70854186717235" lon="11.783795678860416"><ele>327.0</ele><time>2026-04-06T11:05:09.976Z</time></trkpt><trkpt lat="43.70862653470711" lon="11.78377547564009"><ele>327.0</ele><time>2026-04-06T11:05:11.976Z</time></trkpt><trkpt lat="43.70871428036084" lon="11.783741191936715"><ele>327.0</ele><time>2026-04-06T11:05:13.976Z</time></trkpt><trkpt lat="43.708786668040396" lon="11.783718329177344"><ele>327.0</ele><time>2026-04-06T11:05:15.976Z</time></trkpt><trkpt lat="43.708861001139816" lon="11.783690377609705"><ele>327.0</ele><time>2026-04-06T11:05:17.976Z</time></trkpt><trkpt lat="43.70893988726568" lon="11.783654169312804"><ele>327.0</ele><time>2026-04-06T11:05:19.976Z</time></trkpt><trkpt lat="43.70902176580199" lon="11.783625289947548"><ele>327.0</ele><time>2026-04-06T11:05:21.976Z</time></trkpt><trkpt lat="43.70910552785187" lon="11.783592067306685"><ele>327.0</ele><time>2026-04-06T11:05:23.976Z</time></trkpt><trkpt lat="43.709184100044176" lon="11.78355745948597"><ele>327.0</ele><time>2026-04-06T11:05:25.976Z</time></trkpt><trkpt lat="43.70926281167418" lon="11.783531154070035"><ele>327.0</ele><time>2026-04-06T11:05:27.976Z</time></trkpt><trkpt lat="43.7093416713854" lon="11.783497437897624"><ele>327.0</ele><time>2026-04-06T11:05:29.976Z</time></trkpt><trkpt lat="43.70942239610037" lon="11.783472299665915"><ele>327.0</ele><time>2026-04-06T11:05:31.976Z</time></trkpt><trkpt lat="43.70949639408146" lon="11.783437811058139"><ele>327.0</ele><time>2026-04-06T11:05:33.976Z</time></trkpt><trkpt lat="43.70957306715568" lon="11.783403577732884"><ele>327.0</ele><time>2026-04-06T11:05:35.976Z</time></trkpt><trkpt lat="43.709658978888584" lon="11.783360280149587"><ele>327.0</ele><time>2026-04-06T11:05:37.976Z</time></trkpt><trkpt lat="43.709732426154716" lon="11.783323082575984"><ele>327.0</ele><time>2026-04-06T11:05:39.976Z</time></trkpt><trkpt lat="43.709805478281694" lon="11.783281493802065"><ele>327.0</ele><time>2026-04-06T11:05:41.976Z</time></trkpt><trkpt lat="43.709870460136564" lon="11.783233181142009"><ele>327.0</ele><time>2026-04-06T11:05:43.976Z</time></trkpt><trkpt lat="43.70994472620602" lon="11.78317643030786"><ele>327.0</ele><time>2026-04-06T11:05:45.976Z</time></trkpt><trkpt lat="43.71001508253325" lon="11.783122196885243"><ele>327.0</ele><time>2026-04-06T11:05:47.973Z</time></trkpt><trkpt lat="43.710080808357446" lon="11.783066481221994"><ele>327.0</ele><time>2026-04-06T11:05:49.974Z</time></trkpt><trkpt lat="43.710154889163256" lon="11.783016370466502"><ele>327.0</ele><time>2026-04-06T11:05:51.973Z</time></trkpt><trkpt lat="43.71022426723338" lon="11.78296083000689"><ele>327.0</ele><time>2026-04-06T11:05:53.973Z</time></trkpt><trkpt lat="43.710294827991675" lon="11.782897833251338"><ele>327.0</ele><time>2026-04-06T11:05:55.973Z</time></trkpt><trkpt lat="43.71035961200293" lon="11.782841175360984"><ele>327.3333333333333</ele><time>2026-04-06T11:05:57.973Z</time></trkpt><trkpt lat="43.710433453956156" lon="11.782785467192957"><ele>327.6666666666667</ele><time>2026-04-06T11:05:59.973Z</time></trkpt><trkpt lat="43.710503933322165" lon="11.782720667151922"><ele>328.0</ele><time>2026-04-06T11:06:01.973Z</time></trkpt><trkpt lat="43.710570285348936" lon="11.782665353269927"><ele>328.33333333333337</ele><time>2026-04-06T11:06:03.973Z</time></trkpt><trkpt lat="43.710637248467464" lon="11.782617437343486"><ele>328.6666666666667</ele><time>2026-04-06T11:06:05.973Z</time></trkpt><trkpt lat="43.71070863840746" lon="11.782560957130535"><ele>329.0</ele><time>2026-04-06T11:06:07.973Z</time></trkpt><trkpt lat="43.71077887783523" lon="11.782520545213318"><ele>329.0</ele><time>2026-04-06T11:06:09.973Z</time></trkpt><trkpt lat="43.710859755488634" lon="11.78246421403596"><ele>329.0</ele><time>2026-04-06T11:06:11.973Z</time></trkpt><trkpt lat="43.710938428289815" lon="11.782409094613103"><ele>329.0</ele><time>2026-04-06T11:06:13.973Z</time></trkpt><trkpt lat="43.71101400891383" lon="11.782361305953364"><ele>329.0</ele><time>2026-04-06T11:06:15.973Z</time></trkpt><trkpt lat="43.71109087429123" lon="11.782314259095987"><ele>329.0</ele><time>2026-04-06T11:06:17.973Z</time></trkpt><trkpt lat="43.71116969748092" lon="11.782264061419193"><ele>329.0</ele><time>2026-04-06T11:06:19.973Z</time></trkpt><trkpt lat="43.71124734089485" lon="11.782209614513771"><ele>329.1666666666667</ele><time>2026-04-06T11:06:21.973Z</time></trkpt><trkpt lat="43.71132402501499" lon="11.782155990672551"><ele>329.33333333333337</ele><time>2026-04-06T11:06:23.973Z</time></trkpt><trkpt lat="43.71139577154335" lon="11.782103994362835"><ele>329.5</ele><time>2026-04-06T11:06:25.973Z</time></trkpt><trkpt lat="43.71146390137907" lon="11.782049078548187"><ele>329.6666666666667</ele><time>2026-04-06T11:06:27.973Z</time></trkpt><trkpt lat="43.71153718340145" lon="11.781991839025533"><ele>329.8333333333333</ele><time>2026-04-06T11:06:29.973Z</time></trkpt><trkpt lat="43.71160484913391" lon="11.781933244322502"><ele>330.0</ele><time>2026-04-06T11:06:31.973Z</time></trkpt><trkpt lat="43.71167203108078" lon="11.781866754502577"><ele>329.8333333333333</ele><time>2026-04-06T11:06:33.973Z</time></trkpt><trkpt lat="43.711738731304216" lon="11.78180013312096"><ele>329.6666666666667</ele><time>2026-04-06T11:06:35.973Z</time></trkpt><trkpt lat="43.71181061512263" lon="11.781732003784613"><ele>329.5</ele><time>2026-04-06T11:06:37.973Z</time></trkpt><trkpt lat="43.711878028145506" lon="11.781666117632236"><ele>329.33333333333337</ele><time>2026-04-06T11:06:39.973Z</time></trkpt><trkpt lat="43.711947579292556" lon="11.781597647749225"><ele>329.1666666666667</ele><time>2026-04-06T11:06:41.973Z</time></trkpt><trkpt lat="43.71201494639572" lon="11.781529760536424"><ele>329.0</ele><time>2026-04-06T11:06:43.973Z</time></trkpt><trkpt lat="43.71208197362219" lon="11.781469578761067"><ele>329.0</ele><time>2026-04-06T11:06:45.973Z</time></trkpt><trkpt lat="43.71215110446792" lon="11.781403846787995"><ele>329.0</ele><time>2026-04-06T11:06:47.973Z</time></trkpt><trkpt lat="43.71222388573713" lon="11.781336675284727"><ele>329.0</ele><time>2026-04-06T11:06:49.973Z</time></trkpt><trkpt lat="43.712290877709556" lon="11.781271741476234"><ele>329.0</ele><time>2026-04-06T11:06:51.973Z</time></trkpt><trkpt lat="43.712361014449904" lon="11.781208128544348"><ele>329.0</ele><time>2026-04-06T11:06:53.973Z</time></trkpt><trkpt lat="43.71242013326154" lon="11.781137281941117"><ele>329.0</ele><time>2026-04-06T11:06:55.973Z</time></trkpt><trkpt lat="43.712477660654756" lon="11.781039349826218"><ele>329.1666666666667</ele><time>2026-04-06T11:06:57.973Z</time></trkpt><trkpt lat="43.71255393240765" lon="11.780950504996479"><ele>329.33333333333337</ele><time>2026-04-06T11:06:59.973Z</time></trkpt><trkpt lat="43.712609237807264" lon="11.780895745701537"><ele>329.5</ele><time>2026-04-06T11:07:01.973Z</time></trkpt><trkpt lat="43.71267425824101" lon="11.780824643666831"><ele>329.6666666666667</ele><time>2026-04-06T11:07:03.973Z</time></trkpt><trkpt lat="43.71273916921411" lon="11.780767952782824"><ele>329.8333333333333</ele><time>2026-04-06T11:07:05.973Z</time></trkpt><trkpt lat="43.712802459753526" lon="11.780698594177693"><ele>330.0</ele><time>2026-04-06T11:07:07.973Z</time></trkpt><trkpt lat="43.71286546275666" lon="11.780628566328733"><ele>330.0</ele><time>2026-04-06T11:07:09.973Z</time></trkpt><trkpt lat="43.712924600837205" lon="11.780568342751135"><ele>330.0</ele><time>2026-04-06T11:07:11.973Z</time></trkpt><trkpt lat="43.71298916451471" lon="11.780507162842037"><ele>330.0</ele><time>2026-04-06T11:07:13.973Z</time></trkpt><trkpt lat="43.71305115399869" lon="11.780455910752176"><ele>330.0</ele><time>2026-04-06T11:07:15.973Z</time></trkpt><trkpt lat="43.713114587647105" lon="11.7803877343654"><ele>330.0</ele><time>2026-04-06T11:07:17.973Z</time></trkpt><trkpt lat="43.71318062726209" lon="11.780321720578266"><ele>330.0</ele><time>2026-04-06T11:07:19.973Z</time></trkpt><trkpt lat="43.71325757587497" lon="11.780259355181672"><ele>330.0</ele><time>2026-04-06T11:07:21.973Z</time></trkpt><trkpt lat="43.71333232325968" lon="11.780191501014857"><ele>330.0</ele><time>2026-04-06T11:07:23.973Z</time></trkpt><trkpt lat="43.71341336743988" lon="11.780110709178473"><ele>330.0</ele><time>2026-04-06T11:07:25.973Z</time></trkpt><trkpt lat="43.71348804660354" lon="11.780036956627752"><ele>330.0</ele><time>2026-04-06T11:07:27.973Z</time></trkpt><trkpt lat="43.71355932492484" lon="11.779961010182188"><ele>330.0</ele><time>2026-04-06T11:07:29.973Z</time></trkpt><trkpt lat="43.71363050269" lon="11.779887727237814"><ele>330.0</ele><time>2026-04-06T11:07:31.973Z</time></trkpt><trkpt lat="43.713699664537195" lon="11.779830115825428"><ele>330.0</ele><time>2026-04-06T11:07:33.973Z</time></trkpt><trkpt lat="43.7137674643158" lon="11.779765248742683"><ele>330.0</ele><time>2026-04-06T11:07:35.973Z</time></trkpt><trkpt lat="43.71384243872871" lon="11.779702173349586"><ele>330.0</ele><time>2026-04-06T11:07:37.973Z</time></trkpt><trkpt lat="43.71392581497472" lon="11.77962732240316"><ele>330.0</ele><time>2026-04-06T11:07:39.973Z</time></trkpt><trkpt lat="43.713993705257934" lon="11.779559638082201"><ele>330.0</ele><time>2026-04-06T11:07:41.973Z</time></trkpt><trkpt lat="43.71407513146266" lon="11.77949368996781"><ele>330.0</ele><time>2026-04-06T11:07:43.973Z</time></trkpt><trkpt lat="43.714148412796405" lon="11.779458545829948"><ele>330.0</ele><time>2026-04-06T11:07:45.973Z</time></trkpt><trkpt lat="43.714239320363006" lon="11.779464576929573"><ele>330.0</ele><time>2026-04-06T11:07:47.973Z</time></trkpt><trkpt lat="43.71433039339881" lon="11.779461960222775"><ele>330.0</ele><time>2026-04-06T11:07:49.973Z</time></trkpt><trkpt lat="43.714441566579374" lon="11.779403928437642"><ele>330.0</ele><time>2026-04-06T11:07:52.97Z</time></trkpt><trkpt lat="43.71453681042016" lon="11.779346887835404"><ele>330.1666666666667</ele><time>2026-04-06T11:09:06.97Z</time></trkpt><trkpt lat="43.71460964407903" lon="11.779263394778166"><ele>330.3333333333333</ele><time>2026-04-06T11:09:09.97Z</time></trkpt><trkpt lat="43.714674529608594" lon="11.77919450771871"><ele>330.5</ele><time>2026-04-06T11:09:12.97Z</time></trkpt><trkpt lat="43.714731261803486" lon="11.779142269694379"><ele>330.66666666666663</ele><time>2026-04-06T11:09:14.97Z</time></trkpt><trkpt lat="43.714785992402355" lon="11.779093080645518"><ele>330.8333333333333</ele><time>2026-04-06T11:09:16.97Z</time></trkpt><trkpt lat="43.71486437873047" lon="11.779025434378838"><ele>331.0</ele><time>2026-04-06T11:09:19.97Z</time></trkpt><trkpt lat="43.714916887595415" lon="11.778975309882854"><ele>331.0</ele><time>2026-04-06T11:09:21.97Z</time></trkpt><trkpt lat="43.71497054251058" lon="11.77892904065552"><ele>331.0</ele><time>2026-04-06T11:09:23.97Z</time></trkpt><trkpt lat="43.71502171057707" lon="11.778875772418438"><ele>331.0</ele><time>2026-04-06T11:09:25.97Z</time></trkpt><trkpt lat="43.71507761168486" lon="11.778825027596563"><ele>331.0</ele><time>2026-04-06T11:09:27.97Z</time></trkpt><trkpt lat="43.715130412794394" lon="11.778766112929697"><ele>331.0</ele><time>2026-04-06T11:09:29.97Z</time></trkpt><trkpt lat="43.71519434557531" lon="11.778702068075036"><ele>331.0</ele><time>2026-04-06T11:09:31.97Z</time></trkpt><trkpt lat="43.71527035663348" lon="11.778628729107764"><ele>331.0</ele><time>2026-04-06T11:09:33.97Z</time></trkpt><trkpt lat="43.71535960879021" lon="11.778538983082267"><ele>331.0</ele><time>2026-04-06T11:09:35.97Z</time></trkpt><trkpt lat="43.7154512606347" lon="11.778446900787847"><ele>331.0</ele><time>2026-04-06T11:09:37.97Z</time></trkpt><trkpt lat="43.7155489480177" lon="11.77835594326133"><ele>331.0</ele><time>2026-04-06T11:09:39.97Z</time></trkpt><trkpt lat="43.71563859256063" lon="11.778263377474632"><ele>331.0</ele><time>2026-04-06T11:09:41.97Z</time></trkpt><trkpt lat="43.715728857546566" lon="11.778173468406864"><ele>331.0</ele><time>2026-04-06T11:09:43.97Z</time></trkpt><trkpt lat="43.71582155743334" lon="11.778080906872853"><ele>331.0</ele><time>2026-04-06T11:09:45.97Z</time></trkpt><trkpt lat="43.715916608771025" lon="11.777984524765648"><ele>331.0</ele><time>2026-04-06T11:09:47.97Z</time></trkpt><trkpt lat="43.71602174808485" lon="11.777899300090056"><ele>331.0</ele><time>2026-04-06T11:09:49.97Z</time></trkpt><trkpt lat="43.71607332145645" lon="11.777848883133476"><ele>331.0</ele><time>2026-04-06T11:09:50.97Z</time></trkpt><trkpt lat="43.716167573231985" lon="11.777746484502291"><ele>331.0</ele><time>2026-04-06T11:09:52.97Z</time></trkpt><trkpt lat="43.71626860547945" lon="11.777649628192004"><ele>331.0</ele><time>2026-04-06T11:09:54.97Z</time></trkpt><trkpt lat="43.716355812303775" lon="11.777555211871798"><ele>331.0</ele><time>2026-04-06T11:09:56.97Z</time></trkpt><trkpt lat="43.71644245807703" lon="11.77749371581515"><ele>331.0</ele><time>2026-04-06T11:09:58.966Z</time></trkpt><trkpt lat="43.716529049850834" lon="11.777396793989004"><ele>331.0</ele><time>2026-04-06T11:10:00.966Z</time></trkpt><trkpt lat="43.71659899450917" lon="11.777276550727171"><ele>331.0</ele><time>2026-04-06T11:10:02.967Z</time></trkpt><trkpt lat="43.71665544974539" lon="11.777181938723723"><ele>331.0</ele><time>2026-04-06T11:10:03.967Z</time></trkpt><trkpt lat="43.71671749170297" lon="11.77712779843289"><ele>331.0</ele><time>2026-04-06T11:10:04.967Z</time></trkpt><trkpt lat="43.71682380634867" lon="11.777035624008047"><ele>331.0</ele><time>2026-04-06T11:10:06.966Z</time></trkpt><trkpt lat="43.71693213859295" lon="11.776942524192576"><ele>331.0</ele><time>2026-04-06T11:10:08.967Z</time></trkpt><trkpt lat="43.717027844558366" lon="11.776830944314344"><ele>331.75</ele><time>2026-04-06T11:10:10.966Z</time></trkpt><trkpt lat="43.717129232730784" lon="11.776738518739473"><ele>332.5</ele><time>2026-04-06T11:10:12.966Z</time></trkpt><trkpt lat="43.71723025377405" lon="11.776650308416057"><ele>333.25</ele><time>2026-04-06T11:10:14.966Z</time></trkpt><trkpt lat="43.71732655240059" lon="11.776551522843393"><ele>334.0</ele><time>2026-04-06T11:10:16.966Z</time></trkpt><trkpt lat="43.71742430000194" lon="11.776456066718016"><ele>334.0</ele><time>2026-04-06T11:10:18.966Z</time></trkpt><trkpt lat="43.71747497379151" lon="11.776398261505626"><ele>334.0</ele><time>2026-04-06T11:10:19.966Z</time></trkpt><trkpt lat="43.717572450593494" lon="11.776299127130933"><ele>334.0</ele><time>2026-04-06T11:10:21.966Z</time></trkpt><trkpt lat="43.71762187092576" lon="11.77623936761971"><ele>334.0</ele><time>2026-04-06T11:10:22.966Z</time></trkpt><trkpt lat="43.717724273365654" lon="11.77613051791867"><ele>334.0</ele><time>2026-04-06T11:10:24.966Z</time></trkpt><trkpt lat="43.71777735578256" lon="11.776074547276066"><ele>334.0</ele><time>2026-04-06T11:10:25.966Z</time></trkpt><trkpt lat="43.717872053456865" lon="11.775983883990751"><ele>334.16666666666663</ele><time>2026-04-06T11:10:27.966Z</time></trkpt><trkpt lat="43.717965034679025" lon="11.775890588381904"><ele>334.3333333333333</ele><time>2026-04-06T11:10:29.966Z</time></trkpt><trkpt lat="43.71801557743088" lon="11.775827541781398"><ele>334.5</ele><time>2026-04-06T11:10:30.966Z</time></trkpt><trkpt lat="43.718069222789445" lon="11.775762057487507"><ele>334.6666666666667</ele><time>2026-04-06T11:10:31.966Z</time></trkpt><trkpt lat="43.718120616657316" lon="11.775708640771947"><ele>334.83333333333337</ele><time>2026-04-06T11:10:32.966Z</time></trkpt><trkpt lat="43.718214449398104" lon="11.775616984197411"><ele>335.0</ele><time>2026-04-06T11:10:34.966Z</time></trkpt><trkpt lat="43.71830467533855" lon="11.775523828917619"><ele>335.0</ele><time>2026-04-06T11:10:36.966Z</time></trkpt><trkpt lat="43.7184083697172" lon="11.775424341384616"><ele>335.0</ele><time>2026-04-06T11:10:38.966Z</time></trkpt><trkpt lat="43.71850554247261" lon="11.77533174398524"><ele>335.0</ele><time>2026-04-06T11:10:40.966Z</time></trkpt><trkpt lat="43.718593972328584" lon="11.77524514734793"><ele>335.0</ele><time>2026-04-06T11:10:42.966Z</time></trkpt><trkpt lat="43.71868713517856" lon="11.775150547769531"><ele>335.4</ele><time>2026-04-06T11:10:44.966Z</time></trkpt><trkpt lat="43.718770646817454" lon="11.775062471500304"><ele>335.8</ele><time>2026-04-06T11:10:46.966Z</time></trkpt><trkpt lat="43.71886656002231" lon="11.774974372715409"><ele>336.20000000000005</ele><time>2026-04-06T11:10:48.966Z</time></trkpt><trkpt lat="43.718962487551664" lon="11.774932107853283"><ele>336.6</ele><time>2026-04-06T11:10:50.966Z</time></trkpt><trkpt lat="43.71905067522499" lon="11.774872700566718"><ele>337.0</ele><time>2026-04-06T11:10:52.966Z</time></trkpt><trkpt lat="43.71913790307328" lon="11.774824025507437"><ele>337.0</ele><time>2026-04-06T11:10:54.966Z</time></trkpt><trkpt lat="43.719225456999006" lon="11.77476605053024"><ele>337.0</ele><time>2026-04-06T11:10:56.966Z</time></trkpt><trkpt lat="43.71929488454954" lon="11.774747426026524"><ele>337.0</ele><time>2026-04-06T11:10:58.966Z</time></trkpt><trkpt lat="43.71936460150222" lon="11.774709692898906"><ele>337.0</ele><time>2026-04-06T11:11:00.966Z</time></trkpt><trkpt lat="43.71943737222825" lon="11.774674720413431"><ele>337.0</ele><time>2026-04-06T11:11:02.966Z</time></trkpt><trkpt lat="43.71950999405729" lon="11.77463367383084"><ele>337.0</ele><time>2026-04-06T11:11:04.966Z</time></trkpt><trkpt lat="43.71958229476436" lon="11.774587099086657"><ele>336.66666666666663</ele><time>2026-04-06T11:11:06.966Z</time></trkpt><trkpt lat="43.71965569995505" lon="11.774549297836078"><ele>336.3333333333333</ele><time>2026-04-06T11:11:08.966Z</time></trkpt><trkpt lat="43.71972228215322" lon="11.774506965698237"><ele>336.0</ele><time>2026-04-06T11:11:10.966Z</time></trkpt><trkpt lat="43.71979259211633" lon="11.774469296712391"><ele>335.6666666666667</ele><time>2026-04-06T11:11:12.966Z</time></trkpt><trkpt lat="43.7198582340329" lon="11.774435411225133"><ele>335.33333333333337</ele><time>2026-04-06T11:11:14.966Z</time></trkpt><trkpt lat="43.71992812685077" lon="11.774400613269265"><ele>335.0</ele><time>2026-04-06T11:11:16.966Z</time></trkpt><trkpt lat="43.72000330817976" lon="11.77436539556168"><ele>335.2857142857143</ele><time>2026-04-06T11:11:18.966Z</time></trkpt><trkpt lat="43.72007080807638" lon="11.774324771356062"><ele>335.57142857142856</ele><time>2026-04-06T11:11:20.966Z</time></trkpt><trkpt lat="43.72013438051432" lon="11.77428224201486"><ele>335.8571428571429</ele><time>2026-04-06T11:11:22.966Z</time></trkpt><trkpt lat="43.720206049113884" lon="11.774244417635607"><ele>336.1428571428571</ele><time>2026-04-06T11:11:24.966Z</time></trkpt><trkpt lat="43.720275344895164" lon="11.774212188430559"><ele>336.42857142857144</ele><time>2026-04-06T11:11:26.966Z</time></trkpt><trkpt lat="43.72034870352363" lon="11.77419109180924"><ele>336.7142857142857</ele><time>2026-04-06T11:11:28.966Z</time></trkpt><trkpt lat="43.72042365003918" lon="11.774168170473839"><ele>337.0</ele><time>2026-04-06T11:11:30.966Z</time></trkpt><trkpt lat="43.720496501829935" lon="11.774153115195382"><ele>337.16666666666663</ele><time>2026-04-06T11:11:32.966Z</time></trkpt><trkpt lat="43.720569060780235" lon="11.774140383543768"><ele>337.3333333333333</ele><time>2026-04-06T11:11:34.966Z</time></trkpt><trkpt lat="43.72064115537789" lon="11.774121532674194"><ele>337.5</ele><time>2026-04-06T11:11:36.966Z</time></trkpt><trkpt lat="43.72071793929732" lon="11.774099980872101"><ele>337.6666666666667</ele><time>2026-04-06T11:11:38.966Z</time></trkpt><trkpt lat="43.7207941406936" lon="11.774078894669644"><ele>337.83333333333337</ele><time>2026-04-06T11:11:40.966Z</time></trkpt><trkpt lat="43.720870023310994" lon="11.774060266504948"><ele>338.0</ele><time>2026-04-06T11:11:42.966Z</time></trkpt><trkpt lat="43.72094406906035" lon="11.774043372547977"><ele>338.0</ele><time>2026-04-06T11:11:44.966Z</time></trkpt><trkpt lat="43.72101706324902" lon="11.774021371626143"><ele>338.0</ele><time>2026-04-06T11:11:46.966Z</time></trkpt><trkpt lat="43.721095063324505" lon="11.773999899555044"><ele>338.0</ele><time>2026-04-06T11:11:48.966Z</time></trkpt><trkpt lat="43.72117313991409" lon="11.77397753140645"><ele>338.0</ele><time>2026-04-06T11:11:50.966Z</time></trkpt><trkpt lat="43.72124681132452" lon="11.773959268902718"><ele>338.0</ele><time>2026-04-06T11:11:52.966Z</time></trkpt><trkpt lat="43.72130940590686" lon="11.773940020011754"><ele>338.0</ele><time>2026-04-06T11:11:54.966Z</time></trkpt><trkpt lat="43.72137163174236" lon="11.773909919734926"><ele>338.0</ele><time>2026-04-06T11:11:56.966Z</time></trkpt><trkpt lat="43.72142575832632" lon="11.773842960493816"><ele>337.8571428571429</ele><time>2026-04-06T11:11:58.966Z</time></trkpt><trkpt lat="43.721440254333544" lon="11.773738786476681"><ele>337.7142857142857</ele><time>2026-04-06T11:12:00.966Z</time></trkpt><trkpt lat="43.72143632733224" lon="11.773641113323691"><ele>337.57142857142856</ele><time>2026-04-06T11:12:02.966Z</time></trkpt><trkpt lat="43.72142074978841" lon="11.77355652573995"><ele>337.42857142857144</ele><time>2026-04-06T11:12:04.963Z</time></trkpt><trkpt lat="43.72142101906535" lon="11.773463629960684"><ele>337.2857142857143</ele><time>2026-04-06T11:12:06.964Z</time></trkpt><trkpt lat="43.721426646855285" lon="11.77337054090073"><ele>337.14285714285717</ele><time>2026-04-06T11:12:08.963Z</time></trkpt><trkpt lat="43.72142779958552" lon="11.773277513690205"><ele>337.0</ele><time>2026-04-06T11:12:10.963Z</time></trkpt><trkpt lat="43.721440156720064" lon="11.773189292405357"><ele>337.0</ele><time>2026-04-06T11:12:12.963Z</time></trkpt><trkpt lat="43.721486549293836" lon="11.773128168524984"><ele>337.0</ele><time>2026-04-06T11:12:14.963Z</time></trkpt><trkpt lat="43.721571011128304" lon="11.773100517106315"><ele>337.0</ele><time>2026-04-06T11:12:17.964Z</time></trkpt><trkpt lat="43.721662439804696" lon="11.773096280644324"><ele>337.0</ele><time>2026-04-06T11:12:20.962Z</time></trkpt><trkpt lat="43.721730760062286" lon="11.773088287206075"><ele>337.0</ele><time>2026-04-06T11:12:22.963Z</time></trkpt><trkpt lat="43.72179795652168" lon="11.773087974677372"><ele>337.0</ele><time>2026-04-06T11:12:24.963Z</time></trkpt><trkpt lat="43.72187174637482" lon="11.773089834580198"><ele>336.8333333333333</ele><time>2026-04-06T11:12:26.963Z</time></trkpt><trkpt lat="43.721948964135315" lon="11.773107563013742"><ele>336.66666666666663</ele><time>2026-04-06T11:12:28.963Z</time></trkpt><trkpt lat="43.72203944051255" lon="11.773115223686201"><ele>336.5</ele><time>2026-04-06T11:12:31.963Z</time></trkpt><trkpt lat="43.722132174731215" lon="11.77312499365653"><ele>336.3333333333333</ele><time>2026-04-06T11:12:34.963Z</time></trkpt><trkpt lat="43.72219533112888" lon="11.773139539126257"><ele>336.1666666666667</ele><time>2026-04-06T11:12:36.963Z</time></trkpt><trkpt lat="43.72226127873886" lon="11.773145082378605"><ele>336.0</ele><time>2026-04-06T11:12:38.963Z</time></trkpt><trkpt lat="43.72233851081903" lon="11.773153197722491"><ele>336.0</ele><time>2026-04-06T11:12:40.963Z</time></trkpt><trkpt lat="43.722412027806925" lon="11.773163253637092"><ele>336.0</ele><time>2026-04-06T11:12:42.963Z</time></trkpt><trkpt lat="43.722483838529016" lon="11.773170894902423"><ele>336.0</ele><time>2026-04-06T11:12:44.963Z</time></trkpt><trkpt lat="43.72256178627936" lon="11.77318467982021"><ele>336.0</ele><time>2026-04-06T11:12:46.963Z</time></trkpt><trkpt lat="43.722627556344726" lon="11.77320457769157"><ele>336.0</ele><time>2026-04-06T11:12:48.963Z</time></trkpt><trkpt lat="43.72272340973332" lon="11.77323469462201"><ele>336.0</ele><time>2026-04-06T11:12:51.963Z</time></trkpt><trkpt lat="43.72278707620309" lon="11.773259424816734"><ele>335.57142857142856</ele><time>2026-04-06T11:12:53.963Z</time></trkpt><trkpt lat="43.722856125744954" lon="11.77328410699044"><ele>335.1428571428571</ele><time>2026-04-06T11:12:55.963Z</time></trkpt><trkpt lat="43.72291939266256" lon="11.77330972261788"><ele>334.7142857142857</ele><time>2026-04-06T11:12:57.963Z</time></trkpt><trkpt lat="43.72298554825253" lon="11.773326130808888"><ele>334.2857142857143</ele><time>2026-04-06T11:12:59.963Z</time></trkpt><trkpt lat="43.72304740637583" lon="11.773344828234883"><ele>333.85714285714283</ele><time>2026-04-06T11:13:01.963Z</time></trkpt><trkpt lat="43.72311468643994" lon="11.773367329900672"><ele>333.42857142857144</ele><time>2026-04-06T11:13:03.963Z</time></trkpt><trkpt lat="43.723176664026646" lon="11.773386955594283"><ele>333.0</ele><time>2026-04-06T11:13:05.963Z</time></trkpt><trkpt lat="43.723247016729125" lon="11.773406782063978"><ele>333.0</ele><time>2026-04-06T11:13:07.963Z</time></trkpt><trkpt lat="43.723313361803996" lon="11.773421315193453"><ele>333.0</ele><time>2026-04-06T11:13:09.963Z</time></trkpt><trkpt lat="43.723387888169206" lon="11.773429074845353"><ele>333.0</ele><time>2026-04-06T11:13:11.963Z</time></trkpt><trkpt lat="43.723452469620455" lon="11.773439100655395"><ele>333.0</ele><time>2026-04-06T11:13:13.963Z</time></trkpt><trkpt lat="43.723530980862556" lon="11.773441069926882"><ele>333.0</ele><time>2026-04-06T11:13:16.963Z</time></trkpt><trkpt lat="43.72360633427968" lon="11.773438302956183"><ele>333.0</ele><time>2026-04-06T11:13:19.963Z</time></trkpt><trkpt lat="43.72369549233238" lon="11.773428090830093"><ele>333.3333333333333</ele><time>2026-04-06T11:13:22.963Z</time></trkpt><trkpt lat="43.723787020462304" lon="11.77341511436443"><ele>333.6666666666667</ele><time>2026-04-06T11:13:25.963Z</time></trkpt><trkpt lat="43.72386729022937" lon="11.773399377527799"><ele>334.0</ele><time>2026-04-06T11:13:27.963Z</time></trkpt><trkpt lat="43.72394626063758" lon="11.77340295217171"><ele>334.33333333333337</ele><time>2026-04-06T11:13:29.963Z</time></trkpt><trkpt lat="43.72403231129666" lon="11.77338967911401"><ele>334.6666666666667</ele><time>2026-04-06T11:13:31.963Z</time></trkpt><trkpt lat="43.724117802589475" lon="11.77337695965171"><ele>335.0</ele><time>2026-04-06T11:13:33.963Z</time></trkpt><trkpt lat="43.72419978459511" lon="11.773356500661336"><ele>334.99999999999994</ele><time>2026-04-06T11:13:35.963Z</time></trkpt><trkpt lat="43.72427124994429" lon="11.773343703157858"><ele>335.0</ele><time>2026-04-06T11:13:37.963Z</time></trkpt><trkpt lat="43.724340939296226" lon="11.773328715999986"><ele>335.0</ele><time>2026-04-06T11:13:39.963Z</time></trkpt><trkpt lat="43.72440872649008" lon="11.773323961115187"><ele>335.0</ele><time>2026-04-06T11:13:41.963Z</time></trkpt><trkpt lat="43.7244776880073" lon="11.773313923468534"><ele>335.0</ele><time>2026-04-06T11:13:43.963Z</time></trkpt><trkpt lat="43.72454431835132" lon="11.773313504165516"><ele>334.99999999999994</ele><time>2026-04-06T11:13:45.963Z</time></trkpt><trkpt lat="43.724608783983925" lon="11.77334085511088"><ele>335.0</ele><time>2026-04-06T11:13:47.963Z</time></trkpt><trkpt lat="43.72467613800402" lon="11.773356533360836"><ele>335.33333333333337</ele><time>2026-04-06T11:13:49.963Z</time></trkpt><trkpt lat="43.72475060332781" lon="11.773355705537226"><ele>335.6666666666667</ele><time>2026-04-06T11:13:51.963Z</time></trkpt><trkpt lat="43.724816274170955" lon="11.773336305768233"><ele>336.0</ele><time>2026-04-06T11:13:53.963Z</time></trkpt><trkpt lat="43.724886073366385" lon="11.773280585333177"><ele>336.3333333333333</ele><time>2026-04-06T11:13:56.963Z</time></trkpt><trkpt lat="43.72496360469919" lon="11.773209431558705"><ele>336.66666666666663</ele><time>2026-04-06T11:13:59.963Z</time></trkpt><trkpt lat="43.725022089840884" lon="11.77316327128184"><ele>337.0</ele><time>2026-04-06T11:14:01.963Z</time></trkpt><trkpt lat="43.72508148995126" lon="11.773100280274546"><ele>337.0</ele><time>2026-04-06T11:14:03.963Z</time></trkpt><trkpt lat="43.72515401720869" lon="11.773011210276827"><ele>337.0</ele><time>2026-04-06T11:14:05.963Z</time></trkpt><trkpt lat="43.725233334150644" lon="11.772949728254373"><ele>337.0</ele><time>2026-04-06T11:14:07.963Z</time></trkpt><trkpt lat="43.72530226596753" lon="11.772873181899442"><ele>337.0</ele><time>2026-04-06T11:14:09.963Z</time></trkpt><trkpt lat="43.72536699691805" lon="11.772800204632862"><ele>337.0</ele><time>2026-04-06T11:14:11.96Z</time></trkpt><trkpt lat="43.725427878020035" lon="11.772727073462576"><ele>337.0</ele><time>2026-04-06T11:14:13.961Z</time></trkpt><trkpt lat="43.725482865250925" lon="11.772662590502176"><ele>337.28571428571433</ele><time>2026-04-06T11:14:15.961Z</time></trkpt><trkpt lat="43.7255362848932" lon="11.772592298484437"><ele>337.57142857142856</ele><time>2026-04-06T11:14:17.96Z</time></trkpt><trkpt lat="43.72558758929736" lon="11.772529442848388"><ele>337.8571428571429</ele><time>2026-04-06T11:14:19.961Z</time></trkpt><trkpt lat="43.7256356696073" lon="11.772466558149977"><ele>338.14285714285717</ele><time>2026-04-06T11:14:21.96Z</time></trkpt><trkpt lat="43.72568142607661" lon="11.772390888236314"><ele>338.42857142857144</ele><time>2026-04-06T11:14:23.96Z</time></trkpt><trkpt lat="43.72572757439162" lon="11.77232918055723"><ele>338.7142857142857</ele><time>2026-04-06T11:14:25.96Z</time></trkpt><trkpt lat="43.725772390865835" lon="11.772267199888836"><ele>339.0</ele><time>2026-04-06T11:14:27.961Z</time></trkpt><trkpt lat="43.7258470219967" lon="11.772179063722369"><ele>339.0</ele><time>2026-04-06T11:14:30.96Z</time></trkpt><trkpt lat="43.72590283019554" lon="11.772110068402492"><ele>339.0</ele><time>2026-04-06T11:14:32.96Z</time></trkpt><trkpt lat="43.72596003571452" lon="11.772027694754566"><ele>339.0</ele><time>2026-04-06T11:14:34.96Z</time></trkpt><trkpt lat="43.7260144879668" lon="11.77195341057503"><ele>339.0</ele><time>2026-04-06T11:14:36.96Z</time></trkpt><trkpt lat="43.72607087678121" lon="11.77187241852392"><ele>339.0</ele><time>2026-04-06T11:14:38.96Z</time></trkpt><trkpt lat="43.72611511847146" lon="11.771788003784446"><ele>339.0</ele><time>2026-04-06T11:14:40.96Z</time></trkpt><trkpt lat="43.72615763853612" lon="11.771720725104988"><ele>339.6</ele><time>2026-04-06T11:14:42.96Z</time></trkpt><trkpt lat="43.72621685386128" lon="11.771623537118312"><ele>340.2</ele><time>2026-04-06T11:14:45.96Z</time></trkpt><trkpt lat="43.72627473599986" lon="11.77150835076239"><ele>340.8</ele><time>2026-04-06T11:14:48.96Z</time></trkpt><trkpt lat="43.72632575041425" lon="11.77141700335032"><ele>341.40000000000003</ele><time>2026-04-06T11:14:50.96Z</time></trkpt><trkpt lat="43.72638337576149" lon="11.771315607774355"><ele>342.0</ele><time>2026-04-06T11:14:52.96Z</time></trkpt><trkpt lat="43.726443879011235" lon="11.771216548283636"><ele>342.0</ele><time>2026-04-06T11:14:54.96Z</time></trkpt><trkpt lat="43.72649494940056" lon="11.771116300768938"><ele>342.0</ele><time>2026-04-06T11:14:56.96Z</time></trkpt><trkpt lat="43.726550877970055" lon="11.771026758270287"><ele>342.0</ele><time>2026-04-06T11:14:58.96Z</time></trkpt><trkpt lat="43.72659689478713" lon="11.770939155684346"><ele>342.0</ele><time>2026-04-06T11:15:00.96Z</time></trkpt><trkpt lat="43.72663988271394" lon="11.770860044959287"><ele>342.0</ele><time>2026-04-06T11:15:02.96Z</time></trkpt><trkpt lat="43.72668357814619" lon="11.770775479847964"><ele>342.0</ele><time>2026-04-06T11:15:04.96Z</time></trkpt><trkpt lat="43.72673015418433" lon="11.770689682093892"><ele>341.8333333333333</ele><time>2026-04-06T11:15:06.96Z</time></trkpt><trkpt lat="43.72677621178436" lon="11.770603117963782"><ele>341.6666666666667</ele><time>2026-04-06T11:15:08.96Z</time></trkpt><trkpt lat="43.7268279296659" lon="11.770499351737486"><ele>341.5</ele><time>2026-04-06T11:15:10.96Z</time></trkpt><trkpt lat="43.72687552019568" lon="11.770425771190453"><ele>341.33333333333337</ele><time>2026-04-06T11:15:12.96Z</time></trkpt><trkpt lat="43.72692302934696" lon="11.770340866878762"><ele>341.1666666666667</ele><time>2026-04-06T11:15:14.96Z</time></trkpt><trkpt lat="43.7269696647317" lon="11.77024765165917"><ele>341.0</ele><time>2026-04-06T11:15:16.96Z</time></trkpt><trkpt lat="43.727014884190524" lon="11.770158520415276"><ele>341.0</ele><time>2026-04-06T11:15:18.96Z</time></trkpt><trkpt lat="43.72706526876266" lon="11.770069692883098"><ele>341.0</ele><time>2026-04-06T11:15:20.96Z</time></trkpt><trkpt lat="43.727109809535825" lon="11.76998746622808"><ele>341.0</ele><time>2026-04-06T11:15:22.96Z</time></trkpt><trkpt lat="43.727153168080115" lon="11.769901676602203"><ele>341.0</ele><time>2026-04-06T11:15:24.96Z</time></trkpt><trkpt lat="43.72719866369845" lon="11.769812727145856"><ele>341.0</ele><time>2026-04-06T11:15:26.96Z</time></trkpt><trkpt lat="43.72723955240086" lon="11.769720840975015"><ele>341.0</ele><time>2026-04-06T11:15:28.96Z</time></trkpt><trkpt lat="43.72729318208862" lon="11.769642351918582"><ele>341.0</ele><time>2026-04-06T11:15:30.96Z</time></trkpt><trkpt lat="43.7273301443145" lon="11.769566635547775"><ele>341.0</ele><time>2026-04-06T11:15:32.96Z</time></trkpt><trkpt lat="43.72736566755702" lon="11.76949218823074"><ele>341.0</ele><time>2026-04-06T11:15:34.96Z</time></trkpt><trkpt lat="43.72740463862116" lon="11.769408213579146"><ele>341.0</ele><time>2026-04-06T11:15:36.96Z</time></trkpt><trkpt lat="43.72743964102903" lon="11.769329062341038"><ele>341.0</ele><time>2026-04-06T11:15:38.96Z</time></trkpt><trkpt lat="43.72746943860661" lon="11.769245728557992"><ele>341.0</ele><time>2026-04-06T11:15:40.96Z</time></trkpt><trkpt lat="43.727496553608056" lon="11.769158957788465"><ele>341.0</ele><time>2026-04-06T11:15:42.96Z</time></trkpt><trkpt lat="43.72754288947682" lon="11.769044450024415"><ele>340.7142857142857</ele><time>2026-04-06T11:15:45.96Z</time></trkpt><trkpt lat="43.72756406968055" lon="11.76895975081691"><ele>340.42857142857144</ele><time>2026-04-06T11:15:47.96Z</time></trkpt><trkpt lat="43.72759222706519" lon="11.768871144066049"><ele>340.1428571428571</ele><time>2026-04-06T11:15:49.96Z</time></trkpt><trkpt lat="43.72760964212651" lon="11.768783860401069"><ele>339.8571428571429</ele><time>2026-04-06T11:15:54.96Z</time></trkpt><trkpt lat="43.727672457928755" lon="11.768795420032792"><ele>339.5714285714286</ele><time>2026-04-06T11:15:59.96Z</time></trkpt><trkpt lat="43.72776043486758" lon="11.768753166940654"><ele>339.2857142857143</ele><time>2026-04-06T11:16:01.96Z</time></trkpt><trkpt lat="43.72779835016231" lon="11.7686395203208"><ele>339.0</ele><time>2026-04-06T11:16:03.96Z</time></trkpt><trkpt lat="43.72784708599836" lon="11.768530622163969"><ele>339.4285714285714</ele><time>2026-04-06T11:16:06.96Z</time></trkpt><trkpt lat="43.727887069243415" lon="11.768441561888299"><ele>339.8571428571429</ele><time>2026-04-06T11:16:08.96Z</time></trkpt><trkpt lat="43.72792789219029" lon="11.768365560167872"><ele>340.2857142857143</ele><time>2026-04-06T11:16:11.96Z</time></trkpt><trkpt lat="43.72798478360179" lon="11.768426239074774"><ele>340.71428571428567</ele><time>2026-04-06T11:16:13.96Z</time></trkpt><trkpt lat="43.728051081139434" lon="11.768485473162963"><ele>341.1428571428571</ele><time>2026-04-06T11:16:17.958Z</time></trkpt><trkpt lat="43.7281296487039" lon="11.768508191850827"><ele>341.57142857142856</ele><time>2026-04-06T11:16:21.958Z</time></trkpt><trkpt lat="43.728198249168564" lon="11.76852132232279"><ele>342.0</ele><time>2026-04-06T11:16:26.958Z</time></trkpt><trkpt lat="43.728262629252605" lon="11.768551576934014"><ele>341.99999999999994</ele><time>2026-04-06T11:16:29.958Z</time></trkpt><trkpt lat="43.72831519143961" lon="11.76847899174713"><ele>342.0</ele><time>2026-04-06T11:16:33.958Z</time></trkpt><trkpt lat="43.728323924450955" lon="11.768376303066557"><ele>342.0</ele><time>2026-04-06T11:16:38.957Z</time></trkpt><trkpt lat="43.72827214974101" lon="11.76832552952481"><ele>342.0</ele><time>2026-04-06T11:16:41.957Z</time></trkpt><trkpt lat="43.728279931066304" lon="11.768226470071085"><ele>342.0</ele><time>2026-04-06T11:16:48.957Z</time></trkpt><trkpt lat="43.72834454091001" lon="11.768222199155412"><ele>341.99999999999994</ele><time>2026-04-06T11:16:53.957Z</time></trkpt><trkpt lat="43.728277839868944" lon="11.768282742292394"><ele>342.0</ele><time>2026-04-06T11:17:09.957Z</time></trkpt><trkpt lat="43.72824893299316" lon="11.768382147747568"><ele>341.99999999999994</ele><time>2026-04-06T11:17:13.957Z</time></trkpt><trkpt lat="43.72828576068198" lon="11.768471671674996"><ele>342.0</ele><time>2026-04-06T11:17:15.957Z</time></trkpt><trkpt lat="43.72834289845554" lon="11.768540642195905"><ele>342.0</ele><time>2026-04-06T11:17:17.957Z</time></trkpt><trkpt lat="43.72839986935717" lon="11.768596410246174"><ele>342.0</ele><time>2026-04-06T11:17:19.957Z</time></trkpt><trkpt lat="43.728449856170975" lon="11.768650855608781"><ele>342.0</ele><time>2026-04-06T11:17:22.957Z</time></trkpt><trkpt lat="43.72849758232715" lon="11.768723208328092"><ele>341.99999999999994</ele><time>2026-04-06T11:17:51.957Z</time></trkpt><trkpt lat="43.728572210838486" lon="11.768740364373244"><ele>342.0</ele><time>2026-04-06T11:18:00.957Z</time></trkpt><trkpt lat="43.72853959015859" lon="11.768663013165662"><ele>342.0</ele><time>2026-04-06T11:18:13.957Z</time></trkpt><trkpt lat="43.728476823933555" lon="11.768606196810776"><ele>342.0</ele><time>2026-04-06T11:18:19.957Z</time></trkpt><trkpt lat="43.72841254961255" lon="11.768527559678008"><ele>342.0</ele><time>2026-04-06T11:18:23.956Z</time></trkpt><trkpt lat="43.72835063143585" lon="11.768447985092322"><ele>342.0</ele><time>2026-04-06T11:18:26.955Z</time></trkpt><trkpt lat="43.72830106897272" lon="11.768390916239442"><ele>342.0</ele><time>2026-04-06T11:18:28.956Z</time></trkpt><trkpt lat="43.72821872965015" lon="11.768275131658323"><ele>342.0</ele><time>2026-04-06T11:18:31.956Z</time></trkpt><trkpt lat="43.72815130303915" lon="11.768188686176734"><ele>341.99999999999994</ele><time>2026-04-06T11:18:34.955Z</time></trkpt><trkpt lat="43.72808108603109" lon="11.768114285223318"><ele>342.0</ele><time>2026-04-06T11:18:37.955Z</time></trkpt><trkpt lat="43.72802456488461" lon="11.768074766621382"><ele>342.0</ele><time>2026-04-06T11:18:39.955Z</time></trkpt><trkpt lat="43.72795607854467" lon="11.768034296643476"><ele>342.0</ele><time>2026-04-06T11:18:42.955Z</time></trkpt><trkpt lat="43.72789371070466" lon="11.768014096243359"><ele>342.0</ele><time>2026-04-06T11:18:45.955Z</time></trkpt><trkpt lat="43.72784116290949" lon="11.767957399807267"><ele>341.99999999999994</ele><time>2026-04-06T11:18:49.955Z</time></trkpt><trkpt lat="43.727816437098" lon="11.76784972971211"><ele>342.0</ele><time>2026-04-06T11:18:53.955Z</time></trkpt><trkpt lat="43.72784461952281" lon="11.767760061446708"><ele>341.99999999999994</ele><time>2026-04-06T11:18:55.955Z</time></trkpt><trkpt lat="43.72786042181751" lon="11.76766190575589"><ele>342.0</ele><time>2026-04-06T11:18:57.955Z</time></trkpt><trkpt lat="43.7278813175123" lon="11.767565829803177"><ele>342.0</ele><time>2026-04-06T11:18:59.955Z</time></trkpt><trkpt lat="43.72790151479138" lon="11.767466981312973"><ele>342.0</ele><time>2026-04-06T11:19:01.955Z</time></trkpt><trkpt lat="43.727916968610295" lon="11.767379504330576"><ele>342.0</ele><time>2026-04-06T11:19:03.955Z</time></trkpt><trkpt lat="43.727940844002205" lon="11.767284440350737"><ele>341.99999999999994</ele><time>2026-04-06T11:19:05.955Z</time></trkpt><trkpt lat="43.727955282407265" lon="11.767185251211354"><ele>342.0</ele><time>2026-04-06T11:19:07.955Z</time></trkpt><trkpt lat="43.7279771250014" lon="11.767087090945552"><ele>342.0</ele><time>2026-04-06T11:19:09.955Z</time></trkpt><trkpt lat="43.727998888367566" lon="11.766989927500314"><ele>342.0</ele><time>2026-04-06T11:19:11.955Z</time></trkpt><trkpt lat="43.72801996491273" lon="11.766886576383422"><ele>342.0</ele><time>2026-04-06T11:19:13.955Z</time></trkpt><trkpt lat="43.7280390835097" lon="11.76677859821108"><ele>342.0</ele><time>2026-04-06T11:19:15.955Z</time></trkpt><trkpt lat="43.72806088619321" lon="11.766687257051933"><ele>342.0</ele><time>2026-04-06T11:19:17.955Z</time></trkpt><trkpt lat="43.72808230985289" lon="11.766592040305026"><ele>342.0</ele><time>2026-04-06T11:19:19.955Z</time></trkpt><trkpt lat="43.72811630361015" lon="11.766492663694008"><ele>341.8333333333333</ele><time>2026-04-06T11:19:21.955Z</time></trkpt><trkpt lat="43.72816451268983" lon="11.766397839003801"><ele>341.6666666666667</ele><time>2026-04-06T11:19:23.955Z</time></trkpt><trkpt lat="43.728222411173256" lon="11.766308826777106"><ele>341.5</ele><time>2026-04-06T11:19:25.955Z</time></trkpt><trkpt lat="43.72827344710213" lon="11.766229750342536"><ele>341.33333333333337</ele><time>2026-04-06T11:19:27.955Z</time></trkpt><trkpt lat="43.72832045668109" lon="11.766157657263497"><ele>341.1666666666667</ele><time>2026-04-06T11:19:29.955Z</time></trkpt><trkpt lat="43.72837126493461" lon="11.766100161703577"><ele>341.0</ele><time>2026-04-06T11:19:32.955Z</time></trkpt><trkpt lat="43.72843304950366" lon="11.766038286476196"><ele>341.0</ele><time>2026-04-06T11:19:36.955Z</time></trkpt><trkpt lat="43.72848447425595" lon="11.76598150075542"><ele>341.0</ele><time>2026-04-06T11:19:39.955Z</time></trkpt><trkpt lat="43.72842644301056" lon="11.766043500560452"><ele>341.0</ele><time>2026-04-06T11:20:02.955Z</time></trkpt><trkpt lat="43.728378227492435" lon="11.766101386403788"><ele>341.0</ele><time>2026-04-06T11:20:04.955Z</time></trkpt><trkpt lat="43.728330779262514" lon="11.76617235324808"><ele>341.0</ele><time>2026-04-06T11:20:06.955Z</time></trkpt><trkpt lat="43.72828423648289" lon="11.766241987040836"><ele>341.0</ele><time>2026-04-06T11:20:08.955Z</time></trkpt><trkpt lat="43.728224316839146" lon="11.766331794380704"><ele>341.0</ele><time>2026-04-06T11:20:11.955Z</time></trkpt><trkpt lat="43.728157375618935" lon="11.7663506585437"><ele>341.0</ele><time>2026-04-06T11:20:34.952Z</time></trkpt><trkpt lat="43.728094554400634" lon="11.766360369334736"><ele>341.0</ele><time>2026-04-06T11:20:58.953Z</time></trkpt><trkpt lat="43.728053544433195" lon="11.766433119963589"><ele>341.0</ele><time>2026-04-06T11:21:09.952Z</time></trkpt><trkpt lat="43.72801200858983" lon="11.7665399699131"><ele>341.0</ele><time>2026-04-06T11:21:13.952Z</time></trkpt><trkpt lat="43.72798794184852" lon="11.766646373218705"><ele>341.0</ele><time>2026-04-06T11:21:16.952Z</time></trkpt><trkpt lat="43.72797146885804" lon="11.766761532597249"><ele>341.0</ele><time>2026-04-06T11:21:19.952Z</time></trkpt><trkpt lat="43.72796027075926" lon="11.766853180796664"><ele>341.1428571428571</ele><time>2026-04-06T11:21:21.952Z</time></trkpt><trkpt lat="43.72794387497605" lon="11.766948932474897"><ele>341.2857142857143</ele><time>2026-04-06T11:21:23.952Z</time></trkpt><trkpt lat="43.7279197009702" lon="11.76704698238748"><ele>341.42857142857144</ele><time>2026-04-06T11:21:25.952Z</time></trkpt><trkpt lat="43.72790110741243" lon="11.767149424586295"><ele>341.57142857142856</ele><time>2026-04-06T11:21:27.952Z</time></trkpt><trkpt lat="43.72788931527335" lon="11.767237058372054"><ele>341.7142857142857</ele><time>2026-04-06T11:21:29.952Z</time></trkpt><trkpt lat="43.72787054344941" lon="11.767359994454814"><ele>341.85714285714283</ele><time>2026-04-06T11:21:32.952Z</time></trkpt><trkpt lat="43.727849451633276" lon="11.767445005853281"><ele>342.0</ele><time>2026-04-06T11:21:34.952Z</time></trkpt><trkpt lat="43.72783012373016" lon="11.76754424007139"><ele>342.0</ele><time>2026-04-06T11:21:36.952Z</time></trkpt><trkpt lat="43.727814387342555" lon="11.7676384020843"><ele>342.0</ele><time>2026-04-06T11:21:38.952Z</time></trkpt><trkpt lat="43.727804820059575" lon="11.767729366244613"><ele>342.0</ele><time>2026-04-06T11:21:40.952Z</time></trkpt><trkpt lat="43.72783460056073" lon="11.767827622892472"><ele>342.0</ele><time>2026-04-06T11:21:43.952Z</time></trkpt><trkpt lat="43.727869740861166" lon="11.76790944539487"><ele>342.0</ele><time>2026-04-06T11:21:46.952Z</time></trkpt><trkpt lat="43.72779774868541" lon="11.767946340323965"><ele>342.0</ele><time>2026-04-06T11:21:51.952Z</time></trkpt><trkpt lat="43.72770920918794" lon="11.767896362829772"><ele>341.1666666666667</ele><time>2026-04-06T11:21:54.952Z</time></trkpt><trkpt lat="43.72764490585027" lon="11.767875374240193"><ele>340.3333333333333</ele><time>2026-04-06T11:21:56.952Z</time></trkpt><trkpt lat="43.72757656716878" lon="11.767853477839896"><ele>339.5</ele><time>2026-04-06T11:21:58.952Z</time></trkpt><trkpt lat="43.727490765829806" lon="11.767828645359339"><ele>338.66666666666663</ele><time>2026-04-06T11:22:00.952Z</time></trkpt><trkpt lat="43.72742309581062" lon="11.767806948521182"><ele>337.8333333333333</ele><time>2026-04-06T11:22:02.952Z</time></trkpt><trkpt lat="43.727350137513646" lon="11.767781712148699"><ele>337.0</ele><time>2026-04-06T11:22:04.952Z</time></trkpt><trkpt lat="43.72726957521232" lon="11.767761895804234"><ele>337.0</ele><time>2026-04-06T11:22:06.952Z</time></trkpt><trkpt lat="43.72718386578573" lon="11.767734150206605"><ele>337.0</ele><time>2026-04-06T11:22:08.952Z</time></trkpt><trkpt lat="43.727096550933545" lon="11.767698691006395"><ele>337.0</ele><time>2026-04-06T11:22:10.952Z</time></trkpt><trkpt lat="43.72700840438221" lon="11.767667659587609"><ele>337.0</ele><time>2026-04-06T11:22:12.952Z</time></trkpt><trkpt lat="43.72693263223016" lon="11.767652282194481"><ele>337.0</ele><time>2026-04-06T11:22:14.952Z</time></trkpt><trkpt lat="43.726947150709286" lon="11.767461191016272"><ele>337.66666666666663</ele><time>2026-04-06T11:22:23.952Z</time></trkpt><trkpt lat="43.726975476698655" lon="11.76734239208956"><ele>338.3333333333333</ele><time>2026-04-06T11:22:26.952Z</time></trkpt><trkpt lat="43.726994684552835" lon="11.767242210432286"><ele>339.0</ele><time>2026-04-06T11:22:28.952Z</time></trkpt><trkpt lat="43.72702407553021" lon="11.767140112275635"><ele>339.6666666666667</ele><time>2026-04-06T11:22:30.952Z</time></trkpt><trkpt lat="43.7270497810443" lon="11.76703826576982"><ele>340.33333333333337</ele><time>2026-04-06T11:22:32.952Z</time></trkpt><trkpt lat="43.727086158534696" lon="11.766935923159137"><ele>341.0</ele><time>2026-04-06T11:22:34.949Z</time></trkpt><trkpt lat="43.72716342877059" lon="11.766864806051878"><ele>341.0</ele><time>2026-04-06T11:22:36.949Z</time></trkpt><trkpt lat="43.72723940915955" lon="11.76689516647043"><ele>341.0</ele><time>2026-04-06T11:22:38.949Z</time></trkpt><trkpt lat="43.72730121886878" lon="11.766920135082833"><ele>341.0</ele><time>2026-04-06T11:22:42.949Z</time></trkpt><trkpt lat="43.72736200584671" lon="11.766840473133751"><ele>341.0</ele><time>2026-04-06T11:22:45.949Z</time></trkpt><trkpt lat="43.72740772642013" lon="11.766737704205008"><ele>341.0</ele><time>2026-04-06T11:22:48.949Z</time></trkpt><trkpt lat="43.72743869137053" lon="11.766634827784824"><ele>341.0</ele><time>2026-04-06T11:22:51.948Z</time></trkpt><trkpt lat="43.727468466295626" lon="11.766527504048542"><ele>341.0</ele><time>2026-04-06T11:22:54.948Z</time></trkpt><trkpt lat="43.72750051879028" lon="11.766450983109285"><ele>341.0</ele><time>2026-04-06T11:22:56.948Z</time></trkpt><trkpt lat="43.727524520895365" lon="11.766337158983001"><ele>341.0</ele><time>2026-04-06T11:22:59.948Z</time></trkpt><trkpt lat="43.72756950729241" lon="11.766164295196132"><ele>341.0</ele><time>2026-04-06T11:23:03.948Z</time></trkpt><trkpt lat="43.727593740470695" lon="11.766020442116726"><ele>341.0</ele><time>2026-04-06T11:23:05.948Z</time></trkpt><trkpt lat="43.72761785044563" lon="11.765873256992538"><ele>341.0</ele><time>2026-04-06T11:23:07.948Z</time></trkpt><trkpt lat="43.72764026970738" lon="11.765734593831242"><ele>341.0</ele><time>2026-04-06T11:23:09.948Z</time></trkpt><trkpt lat="43.72765705125919" lon="11.765599289945268"><ele>341.0</ele><time>2026-04-06T11:23:11.948Z</time></trkpt><trkpt lat="43.727678415041304" lon="11.765471518313813"><ele>341.0</ele><time>2026-04-06T11:23:13.948Z</time></trkpt><trkpt lat="43.72769492037065" lon="11.765363597968243"><ele>341.0</ele><time>2026-04-06T11:23:15.948Z</time></trkpt><trkpt lat="43.727713296813285" lon="11.765259432526863"><ele>340.85714285714283</ele><time>2026-04-06T11:23:17.948Z</time></trkpt><trkpt lat="43.72772583354134" lon="11.765169476662727"><ele>340.7142857142857</ele><time>2026-04-06T11:23:19.948Z</time></trkpt><trkpt lat="43.72774629928642" lon="11.765081145382103"><ele>340.57142857142856</ele><time>2026-04-06T11:23:21.948Z</time></trkpt><trkpt lat="43.72776232389172" lon="11.764994162368282"><ele>340.42857142857144</ele><time>2026-04-06T11:23:23.948Z</time></trkpt><trkpt lat="43.727782437362166" lon="11.76491156140466"><ele>340.2857142857143</ele><time>2026-04-06T11:23:25.948Z</time></trkpt><trkpt lat="43.7278028727535" lon="11.764785739499438"><ele>340.14285714285717</ele><time>2026-04-06T11:23:28.948Z</time></trkpt><trkpt lat="43.727821479025536" lon="11.764666847707927"><ele>340.0</ele><time>2026-04-06T11:23:31.948Z</time></trkpt><trkpt lat="43.727830875169936" lon="11.764536639511288"><ele>340.0</ele><time>2026-04-06T11:23:34.948Z</time></trkpt><trkpt lat="43.727841328234604" lon="11.764447291759133"><ele>340.0</ele><time>2026-04-06T11:23:36.948Z</time></trkpt><trkpt lat="43.727849679055495" lon="11.76432498401291"><ele>340.0</ele><time>2026-04-06T11:23:39.948Z</time></trkpt><trkpt lat="43.727852675620035" lon="11.764199125303849"><ele>340.0</ele><time>2026-04-06T11:23:42.948Z</time></trkpt><trkpt lat="43.72785569969535" lon="11.764078995823864"><ele>340.0</ele><time>2026-04-06T11:23:45.948Z</time></trkpt><trkpt lat="43.72787420524458" lon="11.763955975408747"><ele>340.0</ele><time>2026-04-06T11:23:48.948Z</time></trkpt><trkpt lat="43.72787857529872" lon="11.763837122504247"><ele>340.0</ele><time>2026-04-06T11:23:51.948Z</time></trkpt><trkpt lat="43.72790597180975" lon="11.763723477098846"><ele>340.0</ele><time>2026-04-06T11:23:55.948Z</time></trkpt><trkpt lat="43.72793598868739" lon="11.763620262208107"><ele>340.0</ele><time>2026-04-06T11:23:58.948Z</time></trkpt><trkpt lat="43.72797016126286" lon="11.763506441341859"><ele>340.0</ele><time>2026-04-06T11:24:01.948Z</time></trkpt><trkpt lat="43.727997757007394" lon="11.763423525366434"><ele>340.0</ele><time>2026-04-06T11:24:03.948Z</time></trkpt><trkpt lat="43.728028868530544" lon="11.763311322852488"><ele>340.0</ele><time>2026-04-06T11:24:05.948Z</time></trkpt><trkpt lat="43.72807387120026" lon="11.763198990756635"><ele>340.2</ele><time>2026-04-06T11:24:07.948Z</time></trkpt><trkpt lat="43.728117397969505" lon="11.763082973097847"><ele>340.4</ele><time>2026-04-06T11:24:09.948Z</time></trkpt><trkpt lat="43.7281471793869" lon="11.762946313829914"><ele>340.6</ele><time>2026-04-06T11:24:11.948Z</time></trkpt><trkpt lat="43.72817628906087" lon="11.762828657132538"><ele>340.8</ele><time>2026-04-06T11:24:13.948Z</time></trkpt><trkpt lat="43.728206131821736" lon="11.762718923143566"><ele>341.0</ele><time>2026-04-06T11:24:15.948Z</time></trkpt><trkpt lat="43.728231962913874" lon="11.762606586798976"><ele>341.0</ele><time>2026-04-06T11:24:17.948Z</time></trkpt><trkpt lat="43.728263833480376" lon="11.762490379402395"><ele>341.0</ele><time>2026-04-06T11:24:19.948Z</time></trkpt><trkpt lat="43.72829003532386" lon="11.762380387436613"><ele>341.0</ele><time>2026-04-06T11:24:21.948Z</time></trkpt><trkpt lat="43.72831919039803" lon="11.762279142322868"><ele>341.0</ele><time>2026-04-06T11:24:23.948Z</time></trkpt><trkpt lat="43.728344078686916" lon="11.762183391437143"><ele>341.0</ele><time>2026-04-06T11:24:25.948Z</time></trkpt><trkpt lat="43.72836889728885" lon="11.76207863105807"><ele>341.0</ele><time>2026-04-06T11:24:27.948Z</time></trkpt><trkpt lat="43.728402771125666" lon="11.761971418556056"><ele>340.83333333333337</ele><time>2026-04-06T11:24:29.948Z</time></trkpt><trkpt lat="43.72842976780114" lon="11.761859192967512"><ele>340.6666666666667</ele><time>2026-04-06T11:24:31.948Z</time></trkpt><trkpt lat="43.72845781025119" lon="11.761753415815608"><ele>340.5</ele><time>2026-04-06T11:24:33.948Z</time></trkpt><trkpt lat="43.728491393300374" lon="11.761636820256669"><ele>340.3333333333333</ele><time>2026-04-06T11:24:35.948Z</time></trkpt><trkpt lat="43.72852811597116" lon="11.76152109894309"><ele>340.16666666666663</ele><time>2026-04-06T11:24:37.948Z</time></trkpt><trkpt lat="43.72856441467806" lon="11.761412153179208"><ele>340.0</ele><time>2026-04-06T11:24:39.948Z</time></trkpt><trkpt lat="43.728595154718896" lon="11.761305328299443"><ele>340.0</ele><time>2026-04-06T11:24:41.946Z</time></trkpt><trkpt lat="43.728625641920175" lon="11.761190657736817"><ele>340.0</ele><time>2026-04-06T11:24:43.945Z</time></trkpt><trkpt lat="43.72866136071092" lon="11.761077309995137"><ele>340.0</ele><time>2026-04-06T11:24:45.946Z</time></trkpt><trkpt lat="43.7286950790016" lon="11.76094751432562"><ele>340.0</ele><time>2026-04-06T11:24:47.945Z</time></trkpt><trkpt lat="43.72872851725003" lon="11.76079904755084"><ele>340.0</ele><time>2026-04-06T11:24:49.945Z</time></trkpt><trkpt lat="43.728768047214324" lon="11.760664947574725"><ele>340.0</ele><time>2026-04-06T11:24:51.945Z</time></trkpt><trkpt lat="43.72880106226251" lon="11.760534234919291"><ele>340.0</ele><time>2026-04-06T11:24:53.946Z</time></trkpt><trkpt lat="43.72882619658122" lon="11.760418125865273"><ele>340.0</ele><time>2026-04-06T11:24:55.945Z</time></trkpt><trkpt lat="43.728842766328405" lon="11.760302099874176"><ele>340.0</ele><time>2026-04-06T11:24:57.945Z</time></trkpt><trkpt lat="43.728861119609796" lon="11.760190605517243"><ele>340.0</ele><time>2026-04-06T11:24:59.945Z</time></trkpt><trkpt lat="43.72887956327635" lon="11.760076926698385"><ele>340.0</ele><time>2026-04-06T11:25:01.945Z</time></trkpt><trkpt lat="43.72891634025991" lon="11.7599720962865"><ele>340.16666666666663</ele><time>2026-04-06T11:25:03.945Z</time></trkpt><trkpt lat="43.72895627950016" lon="11.75986118304878"><ele>340.3333333333333</ele><time>2026-04-06T11:25:05.945Z</time></trkpt><trkpt lat="43.728998579808" lon="11.759754455367284"><ele>340.5</ele><time>2026-04-06T11:25:07.945Z</time></trkpt><trkpt lat="43.72902786270684" lon="11.759658385972063"><ele>340.6666666666667</ele><time>2026-04-06T11:25:09.945Z</time></trkpt><trkpt lat="43.7290574253615" lon="11.759549359927187"><ele>340.83333333333337</ele><time>2026-04-06T11:25:11.945Z</time></trkpt><trkpt lat="43.729085804979135" lon="11.759422080079478"><ele>341.0</ele><time>2026-04-06T11:25:13.945Z</time></trkpt><trkpt lat="43.72911730528963" lon="11.759309674571586"><ele>341.1666666666667</ele><time>2026-04-06T11:25:15.945Z</time></trkpt><trkpt lat="43.72914544877709" lon="11.759199154777637"><ele>341.33333333333337</ele><time>2026-04-06T11:25:17.945Z</time></trkpt><trkpt lat="43.729178720407425" lon="11.759091613340367"><ele>341.5</ele><time>2026-04-06T11:25:19.945Z</time></trkpt><trkpt lat="43.7292111017533" lon="11.759002979573111"><ele>341.6666666666667</ele><time>2026-04-06T11:25:21.945Z</time></trkpt><trkpt lat="43.72923652675353" lon="11.758921292600064"><ele>341.8333333333333</ele><time>2026-04-06T11:25:23.945Z</time></trkpt><trkpt lat="43.72927059155605" lon="11.758836516743816"><ele>342.0</ele><time>2026-04-06T11:25:25.945Z</time></trkpt><trkpt lat="43.729309185267645" lon="11.758737880629145"><ele>342.0</ele><time>2026-04-06T11:25:27.945Z</time></trkpt><trkpt lat="43.72934603393792" lon="11.758626203234478"><ele>342.0</ele><time>2026-04-06T11:25:29.945Z</time></trkpt><trkpt lat="43.729388175988774" lon="11.758519983775276"><ele>342.0</ele><time>2026-04-06T11:25:31.945Z</time></trkpt><trkpt lat="43.72942767267498" lon="11.758428035650038"><ele>342.0</ele><time>2026-04-06T11:25:33.945Z</time></trkpt><trkpt lat="43.729461063964585" lon="11.758334328852936"><ele>342.0</ele><time>2026-04-06T11:25:35.945Z</time></trkpt><trkpt lat="43.72950542849833" lon="11.758245548815713"><ele>342.0</ele><time>2026-04-06T11:25:37.945Z</time></trkpt><trkpt lat="43.729549155748686" lon="11.75815394639266"><ele>342.0</ele><time>2026-04-06T11:25:39.945Z</time></trkpt><trkpt lat="43.729590107904265" lon="11.758058474389447"><ele>342.0</ele><time>2026-04-06T11:25:41.945Z</time></trkpt><trkpt lat="43.72963781028295" lon="11.757970330834498"><ele>342.0</ele><time>2026-04-06T11:25:43.945Z</time></trkpt><trkpt lat="43.72967861453201" lon="11.757876662616452"><ele>342.0</ele><time>2026-04-06T11:25:45.945Z</time></trkpt><trkpt lat="43.72972061491326" lon="11.757783002288734"><ele>342.0</ele><time>2026-04-06T11:25:47.945Z</time></trkpt><trkpt lat="43.7297637839379" lon="11.757689909446785"><ele>342.0</ele><time>2026-04-06T11:25:49.945Z</time></trkpt><trkpt lat="43.729811834501525" lon="11.757597095670866"><ele>342.0</ele><time>2026-04-06T11:25:51.945Z</time></trkpt><trkpt lat="43.72986400312103" lon="11.75750952502191"><ele>342.0</ele><time>2026-04-06T11:25:53.945Z</time></trkpt><trkpt lat="43.72991952716957" lon="11.757434169003867"><ele>342.0</ele><time>2026-04-06T11:25:55.945Z</time></trkpt><trkpt lat="43.72997571092915" lon="11.757349283876005"><ele>342.0</ele><time>2026-04-06T11:25:57.945Z</time></trkpt><trkpt lat="43.730030494994935" lon="11.757264241814893"><ele>342.0</ele><time>2026-04-06T11:25:59.945Z</time></trkpt><trkpt lat="43.73008706366456" lon="11.757172619295767"><ele>342.0</ele><time>2026-04-06T11:26:01.945Z</time></trkpt><trkpt lat="43.730139230167964" lon="11.757078668040089"><ele>342.0</ele><time>2026-04-06T11:26:03.945Z</time></trkpt><trkpt lat="43.73019378157386" lon="11.756987012382629"><ele>342.0</ele><time>2026-04-06T11:26:05.945Z</time></trkpt><trkpt lat="43.730246414154145" lon="11.756898395084244"><ele>342.0</ele><time>2026-04-06T11:26:07.945Z</time></trkpt><trkpt lat="43.73029044997624" lon="11.756801702914002"><ele>342.0</ele><time>2026-04-06T11:26:09.945Z</time></trkpt><trkpt lat="43.73034474360139" lon="11.756704899143527"><ele>342.0</ele><time>2026-04-06T11:26:11.945Z</time></trkpt><trkpt lat="43.730388248845586" lon="11.756600967766932"><ele>342.0</ele><time>2026-04-06T11:26:13.945Z</time></trkpt><trkpt lat="43.73043911015377" lon="11.75649600769456"><ele>342.1666666666667</ele><time>2026-04-06T11:26:15.945Z</time></trkpt><trkpt lat="43.730481580094796" lon="11.756398879318194"><ele>342.3333333333333</ele><time>2026-04-06T11:26:17.945Z</time></trkpt><trkpt lat="43.730519480073355" lon="11.756313541976734"><ele>342.5</ele><time>2026-04-06T11:26:19.945Z</time></trkpt><trkpt lat="43.730560569971985" lon="11.756220030495102"><ele>342.66666666666663</ele><time>2026-04-06T11:26:21.945Z</time></trkpt><trkpt lat="43.73059706490934" lon="11.756121263420281"><ele>342.8333333333333</ele><time>2026-04-06T11:26:23.945Z</time></trkpt><trkpt lat="43.73064639185628" lon="11.756032133021272"><ele>343.0</ele><time>2026-04-06T11:26:25.945Z</time></trkpt><trkpt lat="43.730681463433356" lon="11.755934586220418"><ele>343.0</ele><time>2026-04-06T11:26:27.945Z</time></trkpt><trkpt lat="43.73072418977984" lon="11.755828534475423"><ele>343.0</ele><time>2026-04-06T11:26:29.945Z</time></trkpt><trkpt lat="43.73075381338908" lon="11.755715945859565"><ele>343.0</ele><time>2026-04-06T11:26:31.945Z</time></trkpt><trkpt lat="43.73078089266644" lon="11.755604195785322"><ele>343.0</ele><time>2026-04-06T11:26:33.945Z</time></trkpt><trkpt lat="43.73080733723939" lon="11.755489106133076"><ele>343.0</ele><time>2026-04-06T11:26:35.945Z</time></trkpt><trkpt lat="43.73084317584527" lon="11.755384965737028"><ele>343.0</ele><time>2026-04-06T11:26:37.945Z</time></trkpt><trkpt lat="43.730878315336334" lon="11.755280608536317"><ele>343.0</ele><time>2026-04-06T11:26:39.945Z</time></trkpt><trkpt lat="43.73091446648029" lon="11.755185650047094"><ele>343.0</ele><time>2026-04-06T11:26:41.945Z</time></trkpt><trkpt lat="43.730950994366744" lon="11.755081874930243"><ele>343.0</ele><time>2026-04-06T11:26:43.945Z</time></trkpt><trkpt lat="43.73098949872611" lon="11.754982142495571"><ele>343.0</ele><time>2026-04-06T11:26:45.945Z</time></trkpt><trkpt lat="43.73102524928088" lon="11.754881387509624"><ele>343.0</ele><time>2026-04-06T11:26:47.941Z</time></trkpt><trkpt lat="43.731069713274444" lon="11.754780090588579"><ele>343.0</ele><time>2026-04-06T11:26:49.941Z</time></trkpt><trkpt lat="43.731113802407585" lon="11.754681501597902"><ele>342.8333333333333</ele><time>2026-04-06T11:26:51.942Z</time></trkpt><trkpt lat="43.731155583814534" lon="11.754590899603032"><ele>342.66666666666663</ele><time>2026-04-06T11:26:53.941Z</time></trkpt><trkpt lat="43.73120124532881" lon="11.754495537984956"><ele>342.5</ele><time>2026-04-06T11:26:55.941Z</time></trkpt><trkpt lat="43.73124178285877" lon="11.754411183712579"><ele>342.3333333333333</ele><time>2026-04-06T11:26:57.941Z</time></trkpt><trkpt lat="43.731286065049225" lon="11.75431714189631"><ele>342.1666666666667</ele><time>2026-04-06T11:26:59.941Z</time></trkpt><trkpt lat="43.731326137686445" lon="11.754214031533932"><ele>342.0</ele><time>2026-04-06T11:27:01.941Z</time></trkpt><trkpt lat="43.73136503395226" lon="11.754112800221883"><ele>342.0</ele><time>2026-04-06T11:27:03.94Z</time></trkpt><trkpt lat="43.73140411169918" lon="11.754014965078085"><ele>342.0</ele><time>2026-04-06T11:27:05.94Z</time></trkpt><trkpt lat="43.73144475983882" lon="11.75391524178461"><ele>342.0</ele><time>2026-04-06T11:27:07.94Z</time></trkpt><trkpt lat="43.73147971878744" lon="11.753804817020143"><ele>342.0</ele><time>2026-04-06T11:27:09.94Z</time></trkpt><trkpt lat="43.73150556120252" lon="11.75368786958877"><ele>342.0</ele><time>2026-04-06T11:27:11.94Z</time></trkpt><trkpt lat="43.73155442082267" lon="11.753585163161832"><ele>342.0</ele><time>2026-04-06T11:27:13.94Z</time></trkpt><trkpt lat="43.73160122414072" lon="11.753468769800902"><ele>342.3333333333333</ele><time>2026-04-06T11:27:15.94Z</time></trkpt><trkpt lat="43.731644207762194" lon="11.753370115433484"><ele>342.6666666666667</ele><time>2026-04-06T11:27:17.94Z</time></trkpt><trkpt lat="43.73168177132621" lon="11.753271971821405"><ele>343.0</ele><time>2026-04-06T11:27:19.94Z</time></trkpt><trkpt lat="43.731725341027946" lon="11.753164448583705"><ele>343.33333333333337</ele><time>2026-04-06T11:27:21.94Z</time></trkpt><trkpt lat="43.7317660177314" lon="11.75305361095974"><ele>343.6666666666667</ele><time>2026-04-06T11:27:23.94Z</time></trkpt><trkpt lat="43.73181688382133" lon="11.75295118099119"><ele>344.0</ele><time>2026-04-06T11:27:25.94Z</time></trkpt><trkpt lat="43.73186278769485" lon="11.752850297281894"><ele>344.0</ele><time>2026-04-06T11:27:27.94Z</time></trkpt><trkpt lat="43.731917183714664" lon="11.752756477179393"><ele>344.0</ele><time>2026-04-06T11:27:29.94Z</time></trkpt><trkpt lat="43.73196980439064" lon="11.75264474018458"><ele>344.0</ele><time>2026-04-06T11:27:31.94Z</time></trkpt><trkpt lat="43.732023011775325" lon="11.75253393842935"><ele>344.0</ele><time>2026-04-06T11:27:33.94Z</time></trkpt><trkpt lat="43.73207342344916" lon="11.752429044341586"><ele>344.0</ele><time>2026-04-06T11:27:35.94Z</time></trkpt><trkpt lat="43.73212316859848" lon="11.75232108925648"><ele>344.1666666666667</ele><time>2026-04-06T11:27:37.94Z</time></trkpt><trkpt lat="43.73216968442525" lon="11.752226886300292"><ele>344.33333333333337</ele><time>2026-04-06T11:27:39.94Z</time></trkpt><trkpt lat="43.73220638661885" lon="11.752131926096395"><ele>344.5</ele><time>2026-04-06T11:27:41.94Z</time></trkpt><trkpt lat="43.73223533648439" lon="11.752017559195632"><ele>344.6666666666667</ele><time>2026-04-06T11:27:43.94Z</time></trkpt><trkpt lat="43.732254221862796" lon="11.751904277102856"><ele>344.8333333333333</ele><time>2026-04-06T11:27:45.94Z</time></trkpt><trkpt lat="43.732257481609" lon="11.75178882420709"><ele>345.0</ele><time>2026-04-06T11:27:47.94Z</time></trkpt><trkpt lat="43.7322356895569" lon="11.75168044306974"><ele>345.0</ele><time>2026-04-06T11:27:49.94Z</time></trkpt><trkpt lat="43.7322093696326" lon="11.751581517980544"><ele>345.0</ele><time>2026-04-06T11:27:51.94Z</time></trkpt><trkpt lat="43.73226017979435" lon="11.751487068490874"><ele>345.0</ele><time>2026-04-06T11:27:54.94Z</time></trkpt><trkpt lat="43.73232327648981" lon="11.751460030687351"><ele>345.0</ele><time>2026-04-06T11:27:56.94Z</time></trkpt><trkpt lat="43.732390201001685" lon="11.751413200022983"><ele>345.0</ele><time>2026-04-06T11:27:58.941Z</time></trkpt><trkpt lat="43.732454252536506" lon="11.751334173547184"><ele>345.0</ele><time>2026-04-06T11:28:00.941Z</time></trkpt><trkpt lat="43.73250549442334" lon="11.751191378572628"><ele>345.0</ele><time>2026-04-06T11:28:02.941Z</time></trkpt><trkpt lat="43.73252736234054" lon="11.751102574482802"><ele>345.0</ele><time>2026-04-06T11:28:03.941Z</time></trkpt><trkpt lat="43.732546202036396" lon="11.75101463997159"><ele>345.0</ele><time>2026-04-06T11:28:04.941Z</time></trkpt><trkpt lat="43.73256455568304" lon="11.75092793350918"><ele>345.0</ele><time>2026-04-06T11:28:05.941Z</time></trkpt><trkpt lat="43.73262390076978" lon="11.750780968889659"><ele>345.0</ele><time>2026-04-06T11:28:07.941Z</time></trkpt><trkpt lat="43.73268284128086" lon="11.750659817805094"><ele>345.0</ele><time>2026-04-06T11:28:09.941Z</time></trkpt><trkpt lat="43.73273095957382" lon="11.750536099195443"><ele>345.0</ele><time>2026-04-06T11:28:11.941Z</time></trkpt><trkpt lat="43.73277465822302" lon="11.750419855415513"><ele>345.0</ele><time>2026-04-06T11:28:13.941Z</time></trkpt><trkpt lat="43.732812730318926" lon="11.750312503222776"><ele>345.0</ele><time>2026-04-06T11:28:15.941Z</time></trkpt><trkpt lat="43.732843362051945" lon="11.750203854057492"><ele>345.0</ele><time>2026-04-06T11:28:17.941Z</time></trkpt><trkpt lat="43.73285766658292" lon="11.750087980008347"><ele>345.0</ele><time>2026-04-06T11:28:19.941Z</time></trkpt><trkpt lat="43.73285545318529" lon="11.749970180301377"><ele>345.0</ele><time>2026-04-06T11:28:21.941Z</time></trkpt><trkpt lat="43.73284837021547" lon="11.749855630732657"><ele>345.0</ele><time>2026-04-06T11:28:23.941Z</time></trkpt><trkpt lat="43.73284790905301" lon="11.749741271923112"><ele>345.0</ele><time>2026-04-06T11:28:25.941Z</time></trkpt><trkpt lat="43.73284139215504" lon="11.74963091771536"><ele>345.0</ele><time>2026-04-06T11:28:27.941Z</time></trkpt><trkpt lat="43.732836667075425" lon="11.749521098975016"><ele>345.0</ele><time>2026-04-06T11:28:29.941Z</time></trkpt><trkpt lat="43.732841269503375" lon="11.749405278860559"><ele>345.0</ele><time>2026-04-06T11:28:31.941Z</time></trkpt><trkpt lat="43.73284469105938" lon="11.749285831438222"><ele>345.0</ele><time>2026-04-06T11:28:33.941Z</time></trkpt><trkpt lat="43.73285557952235" lon="11.74916784744569"><ele>345.0</ele><time>2026-04-06T11:28:35.941Z</time></trkpt><trkpt lat="43.73287568920806" lon="11.74905327841862"><ele>345.0</ele><time>2026-04-06T11:28:37.941Z</time></trkpt><trkpt lat="43.73289643005687" lon="11.748947223137085"><ele>345.0</ele><time>2026-04-06T11:28:39.941Z</time></trkpt><trkpt lat="43.73292926696143" lon="11.748844768753264"><ele>345.0</ele><time>2026-04-06T11:28:41.941Z</time></trkpt><trkpt lat="43.73295935157395" lon="11.748738437471507"><ele>345.0</ele><time>2026-04-06T11:28:43.941Z</time></trkpt><trkpt lat="43.73299800289844" lon="11.748648201626066"><ele>345.0</ele><time>2026-04-06T11:28:45.941Z</time></trkpt><trkpt lat="43.73303423385099" lon="11.74855154711103"><ele>345.0</ele><time>2026-04-06T11:28:47.941Z</time></trkpt><trkpt lat="43.733076894570445" lon="11.748460777281933"><ele>345.0</ele><time>2026-04-06T11:28:49.941Z</time></trkpt><trkpt lat="43.733122489784094" lon="11.748368031353252"><ele>345.0</ele><time>2026-04-06T11:28:51.942Z</time></trkpt><trkpt lat="43.73317186151797" lon="11.748274735319406"><ele>345.0</ele><time>2026-04-06T11:28:53.938Z</time></trkpt><trkpt lat="43.73322135216728" lon="11.748186092870487"><ele>345.0</ele><time>2026-04-06T11:28:55.938Z</time></trkpt><trkpt lat="43.73327431176652" lon="11.748095457145075"><ele>345.0</ele><time>2026-04-06T11:28:57.938Z</time></trkpt><trkpt lat="43.733324661303044" lon="11.748005812925472"><ele>345.0</ele><time>2026-04-06T11:28:59.938Z</time></trkpt><trkpt lat="43.733369008827005" lon="11.74790328856135"><ele>345.0</ele><time>2026-04-06T11:29:01.938Z</time></trkpt><trkpt lat="43.733397000970264" lon="11.747795803317807"><ele>345.0</ele><time>2026-04-06T11:29:03.937Z</time></trkpt><trkpt lat="43.733396284232995" lon="11.747678566746576"><ele>345.0</ele><time>2026-04-06T11:29:05.938Z</time></trkpt><trkpt lat="43.73340034054992" lon="11.74756205622603"><ele>345.0</ele><time>2026-04-06T11:29:07.938Z</time></trkpt><trkpt lat="43.73340021650261" lon="11.747448643371802"><ele>345.0</ele><time>2026-04-06T11:29:09.937Z</time></trkpt><trkpt lat="43.73342659367756" lon="11.74733950424784"><ele>344.8333333333333</ele><time>2026-04-06T11:29:11.938Z</time></trkpt><trkpt lat="43.73346698991436" lon="11.747237690872252"><ele>344.6666666666667</ele><time>2026-04-06T11:29:13.938Z</time></trkpt><trkpt lat="43.73350892021543" lon="11.74713763660931"><ele>344.5</ele><time>2026-04-06T11:29:15.938Z</time></trkpt><trkpt lat="43.73353360982518" lon="11.747033866394636"><ele>344.33333333333337</ele><time>2026-04-06T11:29:17.938Z</time></trkpt><trkpt lat="43.73354395108947" lon="11.746921912219856"><ele>344.1666666666667</ele><time>2026-04-06T11:29:19.938Z</time></trkpt><trkpt lat="43.73355088672248" lon="11.746811449093066"><ele>344.0</ele><time>2026-04-06T11:29:21.938Z</time></trkpt><trkpt lat="43.73357921513413" lon="11.746692471134411"><ele>344.0</ele><time>2026-04-06T11:29:23.938Z</time></trkpt><trkpt lat="43.73360667052654" lon="11.746582514994367"><ele>344.0</ele><time>2026-04-06T11:29:25.938Z</time></trkpt><trkpt lat="43.73363542442621" lon="11.746479603944348"><ele>344.0</ele><time>2026-04-06T11:29:27.938Z</time></trkpt><trkpt lat="43.7336634034025" lon="11.746382145171735"><ele>344.0</ele><time>2026-04-06T11:29:29.938Z</time></trkpt><trkpt lat="43.733693135895834" lon="11.746289921468694"><ele>344.0</ele><time>2026-04-06T11:29:31.938Z</time></trkpt><trkpt lat="43.733719753620655" lon="11.746186738674664"><ele>344.0</ele><time>2026-04-06T11:29:33.938Z</time></trkpt><trkpt lat="43.73375440126144" lon="11.746083700191885"><ele>343.83333333333337</ele><time>2026-04-06T11:29:35.938Z</time></trkpt><trkpt lat="43.73377991880413" lon="11.745979854162861"><ele>343.6666666666667</ele><time>2026-04-06T11:29:37.938Z</time></trkpt><trkpt lat="43.73381082478287" lon="11.745875174309624"><ele>343.5</ele><time>2026-04-06T11:29:39.938Z</time></trkpt><trkpt lat="43.73384496684687" lon="11.745777708341063"><ele>343.3333333333333</ele><time>2026-04-06T11:29:41.938Z</time></trkpt><trkpt lat="43.733880948300396" lon="11.745692715406838"><ele>343.16666666666663</ele><time>2026-04-06T11:29:43.938Z</time></trkpt><trkpt lat="43.73391546101142" lon="11.745603578960711"><ele>343.0</ele><time>2026-04-06T11:29:45.938Z</time></trkpt><trkpt lat="43.73395713754819" lon="11.745522183561876"><ele>343.0</ele><time>2026-04-06T11:29:47.938Z</time></trkpt><trkpt lat="43.734000040299826" lon="11.745429706613045"><ele>343.0</ele><time>2026-04-06T11:29:49.938Z</time></trkpt><trkpt lat="43.734046810211055" lon="11.745352198382939"><ele>343.0</ele><time>2026-04-06T11:29:51.938Z</time></trkpt><trkpt lat="43.734097249378046" lon="11.745276346241608"><ele>343.0</ele><time>2026-04-06T11:29:53.938Z</time></trkpt><trkpt lat="43.73414988866433" lon="11.74520297443514"><ele>343.0</ele><time>2026-04-06T11:29:55.938Z</time></trkpt><trkpt lat="43.734193762456904" lon="11.745117437217992"><ele>343.0</ele><time>2026-04-06T11:29:57.938Z</time></trkpt><trkpt lat="43.73423799194779" lon="11.745010935573747"><ele>343.3333333333333</ele><time>2026-04-06T11:29:59.938Z</time></trkpt><trkpt lat="43.73427987520542" lon="11.744917459181984"><ele>343.66666666666663</ele><time>2026-04-06T11:30:01.938Z</time></trkpt><trkpt lat="43.734318601741926" lon="11.744808200300456"><ele>344.0</ele><time>2026-04-06T11:30:03.938Z</time></trkpt><trkpt lat="43.73436113498541" lon="11.744713674335731"><ele>344.3333333333333</ele><time>2026-04-06T11:30:05.938Z</time></trkpt><trkpt lat="43.73439081041656" lon="11.744596133426864"><ele>344.6666666666667</ele><time>2026-04-06T11:30:07.938Z</time></trkpt><trkpt lat="43.73442004020249" lon="11.744476821047291"><ele>345.0</ele><time>2026-04-06T11:30:09.938Z</time></trkpt><trkpt lat="43.73444952229718" lon="11.744355658415822"><ele>345.3333333333333</ele><time>2026-04-06T11:30:11.938Z</time></trkpt><trkpt lat="43.73447999811629" lon="11.744239882052145"><ele>345.6666666666667</ele><time>2026-04-06T11:30:13.938Z</time></trkpt><trkpt lat="43.7345093094477" lon="11.744133885332896"><ele>346.0</ele><time>2026-04-06T11:30:15.938Z</time></trkpt><trkpt lat="43.73453404877546" lon="11.74403104689453"><ele>346.33333333333337</ele><time>2026-04-06T11:30:17.938Z</time></trkpt><trkpt lat="43.73455661899606" lon="11.743931562441055"><ele>346.6666666666667</ele><time>2026-04-06T11:30:19.938Z</time></trkpt><trkpt lat="43.7345889310298" lon="11.743830007577232"><ele>347.0</ele><time>2026-04-06T11:30:21.938Z</time></trkpt><trkpt lat="43.734624870478704" lon="11.743728987268707"><ele>347.0</ele><time>2026-04-06T11:30:23.938Z</time></trkpt><trkpt lat="43.73466129392527" lon="11.74361218171158"><ele>347.0</ele><time>2026-04-06T11:30:25.938Z</time></trkpt><trkpt lat="43.73470745864495" lon="11.743507014219544"><ele>347.0</ele><time>2026-04-06T11:30:27.938Z</time></trkpt><trkpt lat="43.734748673009335" lon="11.743405363735247"><ele>347.0</ele><time>2026-04-06T11:30:29.938Z</time></trkpt><trkpt lat="43.734783409673" lon="11.74329843671066"><ele>347.0</ele><time>2026-04-06T11:30:31.938Z</time></trkpt><trkpt lat="43.73480397141659" lon="11.743190553516179"><ele>347.0</ele><time>2026-04-06T11:30:33.938Z</time></trkpt><trkpt lat="43.73481900387634" lon="11.74309261214177"><ele>346.83333333333337</ele><time>2026-04-06T11:30:35.938Z</time></trkpt><trkpt lat="43.73483113849649" lon="11.74299033827018"><ele>346.6666666666667</ele><time>2026-04-06T11:30:37.938Z</time></trkpt><trkpt lat="43.73485138215551" lon="11.742889062785531"><ele>346.5</ele><time>2026-04-06T11:30:39.938Z</time></trkpt><trkpt lat="43.73486705304906" lon="11.742785771237314"><ele>346.3333333333333</ele><time>2026-04-06T11:30:41.938Z</time></trkpt><trkpt lat="43.73488957253957" lon="11.742675830659422"><ele>346.16666666666663</ele><time>2026-04-06T11:30:43.938Z</time></trkpt><trkpt lat="43.73491183670721" lon="11.742561295234344"><ele>346.0</ele><time>2026-04-06T11:30:45.938Z</time></trkpt><trkpt lat="43.73493716141719" lon="11.742452400181305"><ele>346.16666666666663</ele><time>2026-04-06T11:30:47.938Z</time></trkpt><trkpt lat="43.734966231647896" lon="11.742341675659045"><ele>346.3333333333333</ele><time>2026-04-06T11:30:49.938Z</time></trkpt><trkpt lat="43.73499785057346" lon="11.742231252861904"><ele>346.5</ele><time>2026-04-06T11:30:51.938Z</time></trkpt><trkpt lat="43.735026782204876" lon="11.742128798674536"><ele>346.6666666666667</ele><time>2026-04-06T11:30:53.938Z</time></trkpt><trkpt lat="43.73506417890296" lon="11.742036229331111"><ele>346.83333333333337</ele><time>2026-04-06T11:30:55.938Z</time></trkpt><trkpt lat="43.735099483459116" lon="11.741947926869104"><ele>347.0</ele><time>2026-04-06T11:30:57.938Z</time></trkpt><trkpt lat="43.73513470217979" lon="11.741856277638428"><ele>347.0</ele><time>2026-04-06T11:30:59.934Z</time></trkpt><trkpt lat="43.73517120720154" lon="11.741758445603779"><ele>347.0</ele><time>2026-04-06T11:31:01.934Z</time></trkpt><trkpt lat="43.73521421683711" lon="11.741659424420536"><ele>347.0</ele><time>2026-04-06T11:31:03.934Z</time></trkpt><trkpt lat="43.735254422275275" lon="11.741568100966953"><ele>347.0</ele><time>2026-04-06T11:31:05.934Z</time></trkpt><trkpt lat="43.73530384525597" lon="11.741478408754453"><ele>347.0</ele><time>2026-04-06T11:31:07.933Z</time></trkpt><trkpt lat="43.735359540619406" lon="11.741393072012292"><ele>347.0</ele><time>2026-04-06T11:31:09.933Z</time></trkpt><trkpt lat="43.735422612519635" lon="11.741313043431255"><ele>347.1666666666667</ele><time>2026-04-06T11:31:11.933Z</time></trkpt><trkpt lat="43.735488196467436" lon="11.741228752363945"><ele>347.33333333333337</ele><time>2026-04-06T11:31:13.934Z</time></trkpt><trkpt lat="43.735559732606994" lon="11.741145548575734"><ele>347.5</ele><time>2026-04-06T11:31:15.933Z</time></trkpt><trkpt lat="43.73563101328159" lon="11.741067316871524"><ele>347.6666666666667</ele><time>2026-04-06T11:31:17.933Z</time></trkpt><trkpt lat="43.73569747810584" lon="11.740984074942498"><ele>347.8333333333333</ele><time>2026-04-06T11:31:19.933Z</time></trkpt><trkpt lat="43.735753686382296" lon="11.740906870069919"><ele>348.0</ele><time>2026-04-06T11:31:21.933Z</time></trkpt><trkpt lat="43.73579486373399" lon="11.740837613379794"><ele>348.0</ele><time>2026-04-06T11:31:23.933Z</time></trkpt><trkpt lat="43.73585924338437" lon="11.740786210578777"><ele>348.0</ele><time>2026-04-06T11:31:25.933Z</time></trkpt><trkpt lat="43.73591255823064" lon="11.740709785159963"><ele>348.0</ele><time>2026-04-06T11:31:27.933Z</time></trkpt><trkpt lat="43.73595526111947" lon="11.740641068680416"><ele>348.0</ele><time>2026-04-06T11:31:29.933Z</time></trkpt><trkpt lat="43.73599119148187" lon="11.740559321433503"><ele>348.0</ele><time>2026-04-06T11:31:32.933Z</time></trkpt><trkpt lat="43.73602716916061" lon="11.740474093280762"><ele>348.0</ele><time>2026-04-06T11:31:35.933Z</time></trkpt><trkpt lat="43.736070900521575" lon="11.740364161811621"><ele>348.0</ele><time>2026-04-06T11:31:38.933Z</time></trkpt><trkpt lat="43.736111025540076" lon="11.74028791517211"><ele>348.1666666666667</ele><time>2026-04-06T11:31:40.933Z</time></trkpt><trkpt lat="43.736167492186546" lon="11.740189731062184"><ele>348.3333333333333</ele><time>2026-04-06T11:31:43.933Z</time></trkpt><trkpt lat="43.736218488486465" lon="11.740107345108639"><ele>348.5</ele><time>2026-04-06T11:31:46.933Z</time></trkpt><trkpt lat="43.73626020188701" lon="11.7400264738575"><ele>348.66666666666663</ele><time>2026-04-06T11:31:49.933Z</time></trkpt><trkpt lat="43.736307828481856" lon="11.739967990965477"><ele>348.8333333333333</ele><time>2026-04-06T11:31:52.933Z</time></trkpt><trkpt lat="43.73634467238809" lon="11.739883210071433"><ele>349.0</ele><time>2026-04-06T11:31:55.933Z</time></trkpt><trkpt lat="43.73639544919143" lon="11.739796355225016"><ele>349.0</ele><time>2026-04-06T11:31:58.933Z</time></trkpt><trkpt lat="43.736432247540904" lon="11.739720282350532"><ele>349.0</ele><time>2026-04-06T11:32:01.933Z</time></trkpt><trkpt lat="43.73646647727499" lon="11.739631131538635"><ele>349.0</ele><time>2026-04-06T11:32:04.933Z</time></trkpt><trkpt lat="43.736495532405435" lon="11.739522671031748"><ele>349.0</ele><time>2026-04-06T11:32:07.933Z</time></trkpt><trkpt lat="43.736516994007474" lon="11.739431914236377"><ele>349.0</ele><time>2026-04-06T11:32:10.933Z</time></trkpt><trkpt lat="43.736544318436" lon="11.739310127906185"><ele>349.0</ele><time>2026-04-06T11:32:13.933Z</time></trkpt><trkpt lat="43.736569858116376" lon="11.739222332715846"><ele>349.0</ele><time>2026-04-06T11:32:15.933Z</time></trkpt><trkpt lat="43.73659958747252" lon="11.73912732557937"><ele>349.0</ele><time>2026-04-06T11:32:17.933Z</time></trkpt><trkpt lat="43.73662534023825" lon="11.739041567471226"><ele>349.0</ele><time>2026-04-06T11:32:19.933Z</time></trkpt><trkpt lat="43.73666249607865" lon="11.738944356002076"><ele>349.0</ele><time>2026-04-06T11:32:21.933Z</time></trkpt><trkpt lat="43.73669369941419" lon="11.73882603957281"><ele>349.0</ele><time>2026-04-06T11:32:23.933Z</time></trkpt><trkpt lat="43.73673148699818" lon="11.738718810417081"><ele>349.0</ele><time>2026-04-06T11:32:25.933Z</time></trkpt><trkpt lat="43.73676449780677" lon="11.738605922056891"><ele>349.0</ele><time>2026-04-06T11:32:27.933Z</time></trkpt><trkpt lat="43.736792912653414" lon="11.738494547985999"><ele>349.0</ele><time>2026-04-06T11:32:29.933Z</time></trkpt><trkpt lat="43.73683987523904" lon="11.738403287062747"><ele>349.0</ele><time>2026-04-06T11:32:31.933Z</time></trkpt><trkpt lat="43.73687388624978" lon="11.738310780625202"><ele>349.0</ele><time>2026-04-06T11:32:33.933Z</time></trkpt><trkpt lat="43.73691170506483" lon="11.738216227069994"><ele>349.0</ele><time>2026-04-06T11:32:35.933Z</time></trkpt><trkpt lat="43.73695535000702" lon="11.738123461949579"><ele>349.0</ele><time>2026-04-06T11:32:37.933Z</time></trkpt><trkpt lat="43.73700341057698" lon="11.738027956136353"><ele>348.8333333333333</ele><time>2026-04-06T11:32:39.933Z</time></trkpt><trkpt lat="43.737046297101216" lon="11.737927795922728"><ele>348.66666666666663</ele><time>2026-04-06T11:32:41.933Z</time></trkpt><trkpt lat="43.737092536898814" lon="11.737835461148638"><ele>348.5</ele><time>2026-04-06T11:32:43.933Z</time></trkpt><trkpt lat="43.737124635214606" lon="11.737744944245625"><ele>348.3333333333333</ele><time>2026-04-06T11:32:45.933Z</time></trkpt><trkpt lat="43.73716537463893" lon="11.737630264336804"><ele>348.1666666666667</ele><time>2026-04-06T11:32:48.933Z</time></trkpt><trkpt lat="43.73720479308317" lon="11.737540183012278"><ele>348.0</ele><time>2026-04-06T11:32:51.933Z</time></trkpt><trkpt lat="43.737236775149" lon="11.737442208986408"><ele>348.3333333333333</ele><time>2026-04-06T11:32:55.933Z</time></trkpt><trkpt lat="43.73728494371488" lon="11.737354154418433"><ele>348.6666666666667</ele><time>2026-04-06T11:33:00.933Z</time></trkpt><trkpt lat="43.737316371126106" lon="11.737271876087043"><ele>349.0</ele><time>2026-04-06T11:33:04.93Z</time></trkpt><trkpt lat="43.73735478086715" lon="11.73718610987995"><ele>349.33333333333337</ele><time>2026-04-06T11:33:09.929Z</time></trkpt><trkpt lat="43.737414416197325" lon="11.7370545835808"><ele>349.6666666666667</ele><time>2026-04-06T11:33:15.929Z</time></trkpt><trkpt lat="43.737469326929855" lon="11.736985316493582"><ele>350.0</ele><time>2026-04-06T11:33:19.929Z</time></trkpt><trkpt lat="43.737519904080855" lon="11.736900947476876"><ele>350.14285714285717</ele><time>2026-04-06T11:33:24.929Z</time></trkpt><trkpt lat="43.73756236802346" lon="11.736820514629729"><ele>350.2857142857143</ele><time>2026-04-06T11:33:27.929Z</time></trkpt><trkpt lat="43.73760951702023" lon="11.736743874744715"><ele>350.42857142857144</ele><time>2026-04-06T11:33:30.929Z</time></trkpt><trkpt lat="43.73766393251454" lon="11.736661879578707"><ele>350.57142857142856</ele><time>2026-04-06T11:33:34.929Z</time></trkpt><trkpt lat="43.737705998197086" lon="11.736594185915491"><ele>350.7142857142857</ele><time>2026-04-06T11:33:37.929Z</time></trkpt><trkpt lat="43.73775174040966" lon="11.736525887406966"><ele>350.8571428571429</ele><time>2026-04-06T11:33:40.929Z</time></trkpt><trkpt lat="43.737793379048526" lon="11.736440029025939"><ele>351.0</ele><time>2026-04-06T11:33:44.929Z</time></trkpt><trkpt lat="43.73784940784945" lon="11.736365979692293"><ele>351.00000000000006</ele><time>2026-04-06T11:33:48.929Z</time></trkpt><trkpt lat="43.73789895916423" lon="11.736287956499517"><ele>351.0</ele><time>2026-04-06T11:33:52.929Z</time></trkpt><trkpt lat="43.737941508184065" lon="11.736218886614251"><ele>351.0</ele><time>2026-04-06T11:33:55.929Z</time></trkpt><trkpt lat="43.737987858833854" lon="11.736149130499221"><ele>351.0</ele><time>2026-04-06T11:33:58.929Z</time></trkpt><trkpt lat="43.73803025728164" lon="11.736082476147121"><ele>351.0</ele><time>2026-04-06T11:34:01.929Z</time></trkpt><trkpt lat="43.73808421127972" lon="11.735995918933876"><ele>351.00000000000006</ele><time>2026-04-06T11:34:05.929Z</time></trkpt><trkpt lat="43.738135859643805" lon="11.735925961478921"><ele>351.0</ele><time>2026-04-06T11:34:08.929Z</time></trkpt><trkpt lat="43.73817874355856" lon="11.735858871294965"><ele>351.00000000000006</ele><time>2026-04-06T11:34:10.929Z</time></trkpt><trkpt lat="43.7382274451405" lon="11.735796927475297"><ele>351.0</ele><time>2026-04-06T11:34:12.929Z</time></trkpt><trkpt lat="43.73827649557298" lon="11.73573053269752"><ele>351.0</ele><time>2026-04-06T11:34:14.929Z</time></trkpt><trkpt lat="43.738338807961235" lon="11.735648803117334"><ele>351.0</ele><time>2026-04-06T11:34:17.929Z</time></trkpt><trkpt lat="43.73840837243374" lon="11.735637812905795"><ele>351.0</ele><time>2026-04-06T11:34:20.929Z</time></trkpt><trkpt lat="43.73845669470704" lon="11.735703868548075"><ele>351.00000000000006</ele><time>2026-04-06T11:34:23.929Z</time></trkpt><trkpt lat="43.73851498371053" lon="11.73576246196905"><ele>351.0</ele><time>2026-04-06T11:34:26.929Z</time></trkpt><trkpt lat="43.73858286091743" lon="11.735830930934895"><ele>351.00000000000006</ele><time>2026-04-06T11:34:29.929Z</time></trkpt><trkpt lat="43.738649244802154" lon="11.735904314342323"><ele>351.0</ele><time>2026-04-06T11:34:32.929Z</time></trkpt><trkpt lat="43.73869664084817" lon="11.735965503913048"><ele>351.0</ele><time>2026-04-06T11:34:34.929Z</time></trkpt><trkpt lat="43.73875844995474" lon="11.735996725813399"><ele>351.0</ele><time>2026-04-06T11:34:36.929Z</time></trkpt><trkpt lat="43.738824304028995" lon="11.736021127733443"><ele>351.0</ele><time>2026-04-06T11:34:39.929Z</time></trkpt><trkpt lat="43.73891049305451" lon="11.736014332187032"><ele>351.00000000000006</ele><time>2026-04-06T11:34:43.929Z</time></trkpt><trkpt lat="43.73897234846239" lon="11.735996281267111"><ele>351.0</ele><time>2026-04-06T11:34:45.929Z</time></trkpt><trkpt lat="43.739044731888036" lon="11.736007000841699"><ele>351.00000000000006</ele><time>2026-04-06T11:34:47.929Z</time></trkpt><trkpt lat="43.739116360075705" lon="11.736019594009335"><ele>351.0</ele><time>2026-04-06T11:34:49.929Z</time></trkpt><trkpt lat="43.73918427601595" lon="11.736006471653782"><ele>351.0</ele><time>2026-04-06T11:34:51.929Z</time></trkpt><trkpt lat="43.73924897513334" lon="11.73599394269325"><ele>351.0</ele><time>2026-04-06T11:34:53.929Z</time></trkpt><trkpt lat="43.739321062553664" lon="11.735989847595519"><ele>351.0</ele><time>2026-04-06T11:34:55.929Z</time></trkpt><trkpt lat="43.73939629982803" lon="11.735975819174522"><ele>351.00000000000006</ele><time>2026-04-06T11:34:57.929Z</time></trkpt><trkpt lat="43.739485402152894" lon="11.735956462830455"><ele>351.0</ele><time>2026-04-06T11:34:59.929Z</time></trkpt><trkpt lat="43.73957754153571" lon="11.735934866607339"><ele>351.00000000000006</ele><time>2026-04-06T11:35:01.929Z</time></trkpt><trkpt lat="43.73966078756387" lon="11.735918947034218"><ele>351.0</ele><time>2026-04-06T11:35:03.929Z</time></trkpt><trkpt lat="43.73973327036993" lon="11.735904358073231"><ele>351.0</ele><time>2026-04-06T11:35:05.929Z</time></trkpt><trkpt lat="43.7398071354058" lon="11.735886183128256"><ele>351.0</ele><time>2026-04-06T11:35:07.929Z</time></trkpt><trkpt lat="43.73987579756319" lon="11.735873089005489"><ele>351.0</ele><time>2026-04-06T11:35:09.929Z</time></trkpt><trkpt lat="43.739944607498195" lon="11.73586558576085"><ele>351.00000000000006</ele><time>2026-04-06T11:35:11.925Z</time></trkpt><trkpt lat="43.74001672564025" lon="11.735855642969524"><ele>351.0</ele><time>2026-04-06T11:35:13.926Z</time></trkpt><trkpt lat="43.740082741257396" lon="11.735855833633048"><ele>351.0</ele><time>2026-04-06T11:35:15.926Z</time></trkpt><trkpt lat="43.74014253405469" lon="11.735910100292472"><ele>351.0</ele><time>2026-04-06T11:35:17.925Z</time></trkpt><trkpt lat="43.74015802877983" lon="11.73604105977854"><ele>351.0</ele><time>2026-04-06T11:35:20.925Z</time></trkpt><trkpt lat="43.74017415561818" lon="11.736140148112035"><ele>351.0</ele><time>2026-04-06T11:35:22.925Z</time></trkpt><trkpt lat="43.740192699338074" lon="11.73624291301917"><ele>351.0</ele><time>2026-04-06T11:35:24.925Z</time></trkpt><trkpt lat="43.7402144986564" lon="11.736334704650075"><ele>351.0</ele><time>2026-04-06T11:35:26.925Z</time></trkpt><trkpt lat="43.74022345398486" lon="11.736430150527344"><ele>351.14285714285717</ele><time>2026-04-06T11:35:28.924Z</time></trkpt><trkpt lat="43.74023823923997" lon="11.736528169938873"><ele>351.2857142857143</ele><time>2026-04-06T11:35:30.924Z</time></trkpt><trkpt lat="43.74025307353877" lon="11.736634050876038"><ele>351.42857142857144</ele><time>2026-04-06T11:35:32.924Z</time></trkpt><trkpt lat="43.74026094320814" lon="11.73672629021558"><ele>351.57142857142856</ele><time>2026-04-06T11:35:34.924Z</time></trkpt><trkpt lat="43.74028217773847" lon="11.73682603483668"><ele>351.7142857142857</ele><time>2026-04-06T11:35:37.924Z</time></trkpt><trkpt lat="43.74035199204936" lon="11.736861849438496"><ele>351.8571428571429</ele><time>2026-04-06T11:35:40.924Z</time></trkpt><trkpt lat="43.74041441068229" lon="11.736832158408603"><ele>352.0</ele><time>2026-04-06T11:35:42.924Z</time></trkpt><trkpt lat="43.74048064949321" lon="11.736818167370192"><ele>352.0</ele><time>2026-04-06T11:35:44.924Z</time></trkpt><trkpt lat="43.74055395844719" lon="11.736809222101302"><ele>352.0</ele><time>2026-04-06T11:35:46.924Z</time></trkpt><trkpt lat="43.74061853361717" lon="11.736798914343026"><ele>352.0</ele><time>2026-04-06T11:35:48.924Z</time></trkpt><trkpt lat="43.74068826788742" lon="11.736789761914132"><ele>352.0</ele><time>2026-04-06T11:35:50.924Z</time></trkpt><trkpt lat="43.74076381882164" lon="11.736773801963247"><ele>352.0</ele><time>2026-04-06T11:35:52.924Z</time></trkpt><trkpt lat="43.740837015310134" lon="11.736762752999148"><ele>352.0</ele><time>2026-04-06T11:35:54.924Z</time></trkpt><trkpt lat="43.74090135079523" lon="11.736747881791302"><ele>352.0</ele><time>2026-04-06T11:35:56.924Z</time></trkpt><trkpt lat="43.740966443582245" lon="11.736731153768265"><ele>352.0</ele><time>2026-04-06T11:35:58.924Z</time></trkpt><trkpt lat="43.74103650786996" lon="11.736720194335305"><ele>352.0</ele><time>2026-04-06T11:36:00.924Z</time></trkpt><trkpt lat="43.74111037012802" lon="11.736697835544087"><ele>352.0</ele><time>2026-04-06T11:36:02.924Z</time></trkpt><trkpt lat="43.74117879125259" lon="11.736676324597365"><ele>352.0</ele><time>2026-04-06T11:36:04.924Z</time></trkpt><trkpt lat="43.74124790669242" lon="11.736658457928186"><ele>352.0</ele><time>2026-04-06T11:36:06.924Z</time></trkpt><trkpt lat="43.741319522005405" lon="11.736637218449326"><ele>352.0</ele><time>2026-04-06T11:36:08.924Z</time></trkpt><trkpt lat="43.74138994562145" lon="11.736622527471711"><ele>352.0</ele><time>2026-04-06T11:36:10.924Z</time></trkpt><trkpt lat="43.74146077877529" lon="11.736604760877233"><ele>352.0</ele><time>2026-04-06T11:36:12.924Z</time></trkpt><trkpt lat="43.741527658339294" lon="11.736596388393066"><ele>352.0</ele><time>2026-04-06T11:36:14.924Z</time></trkpt><trkpt lat="43.7415973890095" lon="11.736581049690328"><ele>352.0</ele><time>2026-04-06T11:36:16.924Z</time></trkpt><trkpt lat="43.74166431076304" lon="11.736555994927427"><ele>352.0</ele><time>2026-04-06T11:36:18.924Z</time></trkpt><trkpt lat="43.74173519859814" lon="11.736535405395731"><ele>352.0</ele><time>2026-04-06T11:36:20.924Z</time></trkpt><trkpt lat="43.74180962517232" lon="11.736503119970374"><ele>352.0</ele><time>2026-04-06T11:36:22.924Z</time></trkpt><trkpt lat="43.7418789329754" lon="11.736481179821768"><ele>352.0</ele><time>2026-04-06T11:36:24.924Z</time></trkpt><trkpt lat="43.741951531354" lon="11.736500521231445"><ele>352.16666666666663</ele><time>2026-04-06T11:36:26.924Z</time></trkpt><trkpt lat="43.74198816592797" lon="11.7366024002103"><ele>352.3333333333333</ele><time>2026-04-06T11:36:28.924Z</time></trkpt><trkpt lat="43.741994853103826" lon="11.736723490280799"><ele>352.5</ele><time>2026-04-06T11:36:30.924Z</time></trkpt><trkpt lat="43.742008068760946" lon="11.736825562001615"><ele>352.6666666666667</ele><time>2026-04-06T11:36:32.924Z</time></trkpt><trkpt lat="43.74202585026468" lon="11.736922724925437"><ele>352.83333333333337</ele><time>2026-04-06T11:36:34.924Z</time></trkpt><trkpt lat="43.742043203194356" lon="11.737013890270712"><ele>353.0</ele><time>2026-04-06T11:36:36.924Z</time></trkpt><trkpt lat="43.74205144391295" lon="11.7371203647571"><ele>353.0</ele><time>2026-04-06T11:36:38.924Z</time></trkpt><trkpt lat="43.74206050170857" lon="11.73723698272316"><ele>353.0</ele><time>2026-04-06T11:36:40.924Z</time></trkpt><trkpt lat="43.74206804585853" lon="11.737344558580913"><ele>353.0</ele><time>2026-04-06T11:36:42.924Z</time></trkpt><trkpt lat="43.742076355871454" lon="11.73744098515494"><ele>353.0</ele><time>2026-04-06T11:36:44.924Z</time></trkpt><trkpt lat="43.74209083195828" lon="11.737529612259145"><ele>353.0</ele><time>2026-04-06T11:36:46.924Z</time></trkpt><trkpt lat="43.74208535412916" lon="11.73763289924007"><ele>353.0</ele><time>2026-04-06T11:36:48.924Z</time></trkpt><trkpt lat="43.742085456774674" lon="11.73773141547236"><ele>353.0</ele><time>2026-04-06T11:36:50.924Z</time></trkpt><trkpt lat="43.7421068283106" lon="11.737823680657993"><ele>353.33333333333337</ele><time>2026-04-06T11:36:52.924Z</time></trkpt><trkpt lat="43.742151447773786" lon="11.73790933564122"><ele>353.6666666666667</ele><time>2026-04-06T11:36:55.924Z</time></trkpt><trkpt lat="43.74222631782633" lon="11.737938205128108"><ele>354.0</ele><time>2026-04-06T11:37:04.924Z</time></trkpt><trkpt lat="43.74231929456038" lon="11.737916606062475"><ele>354.3333333333333</ele><time>2026-04-06T11:37:07.924Z</time></trkpt><trkpt lat="43.74238035158774" lon="11.737871632694208"><ele>354.66666666666663</ele><time>2026-04-06T11:37:09.924Z</time></trkpt><trkpt lat="43.74244521589319" lon="11.73780581546853"><ele>355.0</ele><time>2026-04-06T11:37:11.924Z</time></trkpt><trkpt lat="43.74250953609859" lon="11.737734275897669"><ele>354.8333333333333</ele><time>2026-04-06T11:37:13.924Z</time></trkpt><trkpt lat="43.74257928501782" lon="11.737665151189873"><ele>354.66666666666663</ele><time>2026-04-06T11:37:15.924Z</time></trkpt><trkpt lat="43.74264527807247" lon="11.73759429422068"><ele>354.5</ele><time>2026-04-06T11:37:17.922Z</time></trkpt><trkpt lat="43.742713107981345" lon="11.737526021218605"><ele>354.3333333333333</ele><time>2026-04-06T11:37:19.922Z</time></trkpt><trkpt lat="43.74278520909129" lon="11.7374600304332"><ele>354.1666666666667</ele><time>2026-04-06T11:37:21.921Z</time></trkpt><trkpt lat="43.74285139017158" lon="11.737390336520159"><ele>354.0</ele><time>2026-04-06T11:37:23.922Z</time></trkpt><trkpt lat="43.74291490387174" lon="11.737317775278925"><ele>354.0</ele><time>2026-04-06T11:37:25.922Z</time></trkpt><trkpt lat="43.74297582710144" lon="11.737235902405244"><ele>354.0</ele><time>2026-04-06T11:37:27.922Z</time></trkpt><trkpt lat="43.743032452219545" lon="11.737146114175383"><ele>354.0</ele><time>2026-04-06T11:37:29.922Z</time></trkpt><trkpt lat="43.74308591636698" lon="11.737057045603507"><ele>354.0</ele><time>2026-04-06T11:37:31.921Z</time></trkpt><trkpt lat="43.74313566368276" lon="11.736955311997677"><ele>354.0</ele><time>2026-04-06T11:37:33.921Z</time></trkpt><trkpt lat="43.74317819211902" lon="11.736851826002912"><ele>354.0</ele><time>2026-04-06T11:37:35.921Z</time></trkpt><trkpt lat="43.74321336847322" lon="11.73674663433228"><ele>354.1666666666667</ele><time>2026-04-06T11:37:37.921Z</time></trkpt><trkpt lat="43.743255947967675" lon="11.736657425800828"><ele>354.3333333333333</ele><time>2026-04-06T11:37:39.921Z</time></trkpt><trkpt lat="43.743319320795884" lon="11.736609103167778"><ele>354.5</ele><time>2026-04-06T11:37:41.921Z</time></trkpt><trkpt lat="43.74338523925363" lon="11.736552716415721"><ele>354.66666666666663</ele><time>2026-04-06T11:37:43.921Z</time></trkpt><trkpt lat="43.743461237160474" lon="11.73648159753899"><ele>354.8333333333333</ele><time>2026-04-06T11:37:45.921Z</time></trkpt><trkpt lat="43.74353024084533" lon="11.736412297764657"><ele>355.0</ele><time>2026-04-06T11:37:47.921Z</time></trkpt><trkpt lat="43.74359866636853" lon="11.736347783166707"><ele>355.0</ele><time>2026-04-06T11:37:49.921Z</time></trkpt><trkpt lat="43.743651645065775" lon="11.736283218046305"><ele>355.0</ele><time>2026-04-06T11:37:51.921Z</time></trkpt><trkpt lat="43.743708538855195" lon="11.736221937866022"><ele>355.0</ele><time>2026-04-06T11:37:53.921Z</time></trkpt><trkpt lat="43.74377022863344" lon="11.73614969277593"><ele>355.0</ele><time>2026-04-06T11:37:55.921Z</time></trkpt><trkpt lat="43.74382985975612" lon="11.736077134635016"><ele>355.0</ele><time>2026-04-06T11:37:57.921Z</time></trkpt><trkpt lat="43.74387912698747" lon="11.736015648623843"><ele>355.0</ele><time>2026-04-06T11:37:59.921Z</time></trkpt><trkpt lat="43.743942524353656" lon="11.735948832577671"><ele>355.0</ele><time>2026-04-06T11:38:01.921Z</time></trkpt><trkpt lat="43.744008311045995" lon="11.73587562561322"><ele>355.16666666666663</ele><time>2026-04-06T11:38:03.921Z</time></trkpt><trkpt lat="43.74408388951267" lon="11.735799206648458"><ele>355.3333333333333</ele><time>2026-04-06T11:38:05.921Z</time></trkpt><trkpt lat="43.74414311575092" lon="11.73573538931995"><ele>355.5</ele><time>2026-04-06T11:38:07.921Z</time></trkpt><trkpt lat="43.74420670857818" lon="11.735661907693736"><ele>355.6666666666667</ele><time>2026-04-06T11:38:10.921Z</time></trkpt><trkpt lat="43.74427795078319" lon="11.735588229987215"><ele>355.83333333333337</ele><time>2026-04-06T11:38:13.921Z</time></trkpt><trkpt lat="43.74433500532066" lon="11.735525208557572"><ele>356.0</ele><time>2026-04-06T11:38:15.921Z</time></trkpt><trkpt lat="43.74439618969747" lon="11.735472437130072"><ele>355.99999999999994</ele><time>2026-04-06T11:38:17.921Z</time></trkpt><trkpt lat="43.74446083308158" lon="11.73541571374208"><ele>356.0</ele><time>2026-04-06T11:38:19.921Z</time></trkpt><trkpt lat="43.74452125564774" lon="11.735368321454995"><ele>356.0</ele><time>2026-04-06T11:38:21.921Z</time></trkpt><trkpt lat="43.74458456040047" lon="11.735314407256348"><ele>356.0</ele><time>2026-04-06T11:38:23.921Z</time></trkpt><trkpt lat="43.74465484990553" lon="11.735258986732795"><ele>356.0</ele><time>2026-04-06T11:38:25.921Z</time></trkpt><trkpt lat="43.744723767514245" lon="11.735220478306339"><ele>355.99999999999994</ele><time>2026-04-06T11:38:27.921Z</time></trkpt><trkpt lat="43.74479225861868" lon="11.735183971755394"><ele>356.0</ele><time>2026-04-06T11:38:29.921Z</time></trkpt><trkpt lat="43.744864709018735" lon="11.735147892518611"><ele>356.1428571428571</ele><time>2026-04-06T11:38:31.921Z</time></trkpt><trkpt lat="43.74493684846844" lon="11.73510506404455"><ele>356.2857142857143</ele><time>2026-04-06T11:38:33.921Z</time></trkpt><trkpt lat="43.745002463614334" lon="11.735063954802461"><ele>356.42857142857144</ele><time>2026-04-06T11:38:35.921Z</time></trkpt><trkpt lat="43.74506117325805" lon="11.735025192835717"><ele>356.57142857142856</ele><time>2026-04-06T11:38:37.921Z</time></trkpt><trkpt lat="43.74511948787015" lon="11.73498182299495"><ele>356.7142857142857</ele><time>2026-04-06T11:38:39.921Z</time></trkpt><trkpt lat="43.745190407128256" lon="11.734933767011114"><ele>356.85714285714283</ele><time>2026-04-06T11:38:41.921Z</time></trkpt><trkpt lat="43.7452699327724" lon="11.734881821532683"><ele>357.0</ele><time>2026-04-06T11:38:43.921Z</time></trkpt><trkpt lat="43.745342518533114" lon="11.73482724239149"><ele>357.0</ele><time>2026-04-06T11:38:45.921Z</time></trkpt><trkpt lat="43.745425062616775" lon="11.734887536062269"><ele>357.0</ele><time>2026-04-06T11:38:48.921Z</time></trkpt><trkpt lat="43.74544133057741" lon="11.734984969706945"><ele>357.0</ele><time>2026-04-06T11:38:50.921Z</time></trkpt><trkpt lat="43.74547244304492" lon="11.73509979117484"><ele>357.0</ele><time>2026-04-06T11:38:53.921Z</time></trkpt><trkpt lat="43.74550323131841" lon="11.735204824770287"><ele>357.0</ele><time>2026-04-06T11:38:55.921Z</time></trkpt><trkpt lat="43.74553362408388" lon="11.735322700494962"><ele>357.0</ele><time>2026-04-06T11:38:57.921Z</time></trkpt><trkpt lat="43.74556742599523" lon="11.735439710647679"><ele>357.1666666666667</ele><time>2026-04-06T11:38:59.921Z</time></trkpt><trkpt lat="43.74561353277358" lon="11.735553180192396"><ele>357.3333333333333</ele><time>2026-04-06T11:39:01.921Z</time></trkpt><trkpt lat="43.74565123484885" lon="11.735669626382144"><ele>357.5</ele><time>2026-04-06T11:39:03.921Z</time></trkpt><trkpt lat="43.74566419179603" lon="11.735782383324548"><ele>357.66666666666663</ele><time>2026-04-06T11:39:05.921Z</time></trkpt><trkpt lat="43.74568842977829" lon="11.735890209841745"><ele>357.8333333333333</ele><time>2026-04-06T11:39:07.921Z</time></trkpt><trkpt lat="43.74571282763975" lon="11.7359871807498"><ele>358.0</ele><time>2026-04-06T11:39:09.921Z</time></trkpt><trkpt lat="43.74577200660447" lon="11.73603801475422"><ele>358.0</ele><time>2026-04-06T11:39:11.921Z</time></trkpt><trkpt lat="43.74584652038859" lon="11.735968067036138"><ele>358.0</ele><time>2026-04-06T11:39:13.921Z</time></trkpt><trkpt lat="43.745885238154536" lon="11.73587866969953"><ele>358.0</ele><time>2026-04-06T11:39:15.921Z</time></trkpt><trkpt lat="43.74592877736404" lon="11.735762055073439"><ele>358.0</ele><time>2026-04-06T11:39:18.921Z</time></trkpt><trkpt lat="43.74597698921848" lon="11.735690969782857"><ele>358.0</ele><time>2026-04-06T11:39:20.921Z</time></trkpt><trkpt lat="43.74603139482542" lon="11.735621935645735"><ele>358.0</ele><time>2026-04-06T11:39:22.919Z</time></trkpt><trkpt lat="43.7460879187955" lon="11.735567969484675"><ele>357.8333333333333</ele><time>2026-04-06T11:39:24.918Z</time></trkpt><trkpt lat="43.746165712364814" lon="11.735487273494535"><ele>357.66666666666663</ele><time>2026-04-06T11:39:27.918Z</time></trkpt><trkpt lat="43.746221794757886" lon="11.735440191249722"><ele>357.5</ele><time>2026-04-06T11:39:29.918Z</time></trkpt><trkpt lat="43.74628762282635" lon="11.735396381662028"><ele>357.3333333333333</ele><time>2026-04-06T11:39:31.918Z</time></trkpt><trkpt lat="43.74636319544533" lon="11.735381948114984"><ele>357.1666666666667</ele><time>2026-04-06T11:39:33.918Z</time></trkpt><trkpt lat="43.74643594126265" lon="11.735375352832447"><ele>357.0</ele><time>2026-04-06T11:39:35.918Z</time></trkpt><trkpt lat="43.746501601573534" lon="11.73537432560489"><ele>357.0</ele><time>2026-04-06T11:39:37.918Z</time></trkpt><trkpt lat="43.746595775211986" lon="11.73535683733533"><ele>357.0</ele><time>2026-04-06T11:39:40.918Z</time></trkpt><trkpt lat="43.7466608096436" lon="11.735348054392379"><ele>357.0</ele><time>2026-04-06T11:39:42.918Z</time></trkpt><trkpt lat="43.74672557753087" lon="11.735335603007156"><ele>357.0</ele><time>2026-04-06T11:39:44.918Z</time></trkpt><trkpt lat="43.74678647424187" lon="11.735369278071108"><ele>357.0</ele><time>2026-04-06T11:39:46.918Z</time></trkpt><trkpt lat="43.74684974782016" lon="11.735408153517216"><ele>357.0</ele><time>2026-04-06T11:39:48.918Z</time></trkpt><trkpt lat="43.74692706287592" lon="11.735443740501694"><ele>357.0</ele><time>2026-04-06T11:39:50.918Z</time></trkpt><trkpt lat="43.74700804976979" lon="11.735456048915363"><ele>356.8333333333333</ele><time>2026-04-06T11:39:52.918Z</time></trkpt><trkpt lat="43.74707971494628" lon="11.735459539765857"><ele>356.6666666666667</ele><time>2026-04-06T11:39:54.918Z</time></trkpt><trkpt lat="43.74717132271979" lon="11.735459147814874"><ele>356.5</ele><time>2026-04-06T11:39:57.918Z</time></trkpt><trkpt lat="43.74726596040198" lon="11.73547074748845"><ele>356.33333333333337</ele><time>2026-04-06T11:40:00.918Z</time></trkpt><trkpt lat="43.74735466634511" lon="11.735501985691403"><ele>356.1666666666667</ele><time>2026-04-06T11:40:03.918Z</time></trkpt><trkpt lat="43.74740605540995" lon="11.735560541553106"><ele>356.0</ele><time>2026-04-06T11:40:05.918Z</time></trkpt><trkpt lat="43.74746159456708" lon="11.735624294591366"><ele>355.99999999999994</ele><time>2026-04-06T11:40:07.918Z</time></trkpt><trkpt lat="43.74753296261607" lon="11.735678596660255"><ele>356.0</ele><time>2026-04-06T11:40:09.918Z</time></trkpt><trkpt lat="43.74760067391701" lon="11.735699836149811"><ele>356.0</ele><time>2026-04-06T11:40:11.918Z</time></trkpt><trkpt lat="43.74766484211491" lon="11.735683315433391"><ele>356.0</ele><time>2026-04-06T11:40:13.918Z</time></trkpt><trkpt lat="43.74773012376809" lon="11.735631376582072"><ele>356.0</ele><time>2026-04-06T11:40:15.918Z</time></trkpt><trkpt lat="43.74776393715506" lon="11.73554650357492"><ele>355.99999999999994</ele><time>2026-04-06T11:40:17.918Z</time></trkpt><trkpt lat="43.74779428591488" lon="11.735447193350986"><ele>356.0</ele><time>2026-04-06T11:40:20.918Z</time></trkpt><trkpt lat="43.74785886456874" lon="11.735412851566027"><ele>356.2857142857143</ele><time>2026-04-06T11:40:22.918Z</time></trkpt><trkpt lat="43.74792571274774" lon="11.735387956086287"><ele>356.57142857142856</ele><time>2026-04-06T11:40:24.918Z</time></trkpt><trkpt lat="43.74799583965315" lon="11.735370731498856"><ele>356.8571428571429</ele><time>2026-04-06T11:40:26.918Z</time></trkpt><trkpt lat="43.748071503213325" lon="11.735341538003958"><ele>357.1428571428571</ele><time>2026-04-06T11:40:28.918Z</time></trkpt><trkpt lat="43.74814241064102" lon="11.735304103234602"><ele>357.42857142857144</ele><time>2026-04-06T11:40:30.918Z</time></trkpt><trkpt lat="43.748210825164676" lon="11.735272892897472"><ele>357.7142857142857</ele><time>2026-04-06T11:40:32.918Z</time></trkpt><trkpt lat="43.748276302657196" lon="11.735232611083228"><ele>358.0</ele><time>2026-04-06T11:40:34.918Z</time></trkpt><trkpt lat="43.748345113922596" lon="11.735186046181756"><ele>358.14285714285717</ele><time>2026-04-06T11:40:37.918Z</time></trkpt><trkpt lat="43.74841223554343" lon="11.735159972043302"><ele>358.2857142857143</ele><time>2026-04-06T11:40:40.918Z</time></trkpt><trkpt lat="43.74848947096404" lon="11.73508904110253"><ele>358.42857142857144</ele><time>2026-04-06T11:40:43.918Z</time></trkpt><trkpt lat="43.74856309796894" lon="11.73505469972311"><ele>358.57142857142856</ele><time>2026-04-06T11:40:46.918Z</time></trkpt><trkpt lat="43.748632152827525" lon="11.73501333339267"><ele>358.7142857142857</ele><time>2026-04-06T11:40:49.918Z</time></trkpt><trkpt lat="43.748691354194676" lon="11.734981916169382"><ele>358.8571428571429</ele><time>2026-04-06T11:40:51.918Z</time></trkpt><trkpt lat="43.74875379202217" lon="11.734962947483044"><ele>359.0</ele><time>2026-04-06T11:40:54.918Z</time></trkpt><trkpt lat="43.74883087741083" lon="11.734834437863148"><ele>359.0</ele><time>2026-04-06T11:44:36.911Z</time></trkpt><trkpt lat="43.74887068869452" lon="11.734760982917612"><ele>359.0</ele><time>2026-04-06T11:44:40.911Z</time></trkpt><trkpt lat="43.74887098663297" lon="11.734667278278186"><ele>359.0</ele><time>2026-04-06T11:44:44.911Z</time></trkpt><trkpt lat="43.74883228153805" lon="11.734551923840762"><ele>359.0</ele><time>2026-04-06T11:44:47.911Z</time></trkpt><trkpt lat="43.74879759981174" lon="11.734438974110432"><ele>359.0</ele><time>2026-04-06T11:44:49.911Z</time></trkpt><trkpt lat="43.74877330769981" lon="11.73433254134095"><ele>359.0</ele><time>2026-04-06T11:44:51.911Z</time></trkpt><trkpt lat="43.74874931716278" lon="11.734231107623959"><ele>359.5</ele><time>2026-04-06T11:44:53.911Z</time></trkpt><trkpt lat="43.74871930120157" lon="11.734120337038746"><ele>360.0</ele><time>2026-04-06T11:44:55.911Z</time></trkpt><trkpt lat="43.748684824278165" lon="11.734016137989062"><ele>360.5</ele><time>2026-04-06T11:44:57.911Z</time></trkpt><trkpt lat="43.74865941051868" lon="11.73390600661734"><ele>361.0</ele><time>2026-04-06T11:44:59.911Z</time></trkpt><trkpt lat="43.74862551860927" lon="11.73379818398806"><ele>361.5</ele><time>2026-04-06T11:45:01.911Z</time></trkpt><trkpt lat="43.74860061656303" lon="11.733687323445457"><ele>362.0</ele><time>2026-04-06T11:45:03.911Z</time></trkpt><trkpt lat="43.748562565465775" lon="11.733570355807798"><ele>361.6</ele><time>2026-04-06T11:45:05.911Z</time></trkpt><trkpt lat="43.74853042751005" lon="11.733448169532549"><ele>361.20000000000005</ele><time>2026-04-06T11:45:07.911Z</time></trkpt><trkpt lat="43.74849791673098" lon="11.733319922850916"><ele>360.8</ele><time>2026-04-06T11:45:09.911Z</time></trkpt><trkpt lat="43.74846108239999" lon="11.733189965491"><ele>360.4</ele><time>2026-04-06T11:45:11.911Z</time></trkpt><trkpt lat="43.74842371783856" lon="11.733055524626169"><ele>360.0</ele><time>2026-04-06T11:45:13.911Z</time></trkpt><trkpt lat="43.74838742845728" lon="11.73292560208471"><ele>360.0</ele><time>2026-04-06T11:45:15.911Z</time></trkpt><trkpt lat="43.74836004840189" lon="11.73279284667865"><ele>360.0</ele><time>2026-04-06T11:45:17.911Z</time></trkpt><trkpt lat="43.74832350540499" lon="11.7326521328568"><ele>360.0</ele><time>2026-04-06T11:45:19.911Z</time></trkpt><trkpt lat="43.748327722423724" lon="11.73253044023511"><ele>360.0</ele><time>2026-04-06T11:45:21.911Z</time></trkpt><trkpt lat="43.748384257823616" lon="11.732436264814943"><ele>360.0</ele><time>2026-04-06T11:45:23.911Z</time></trkpt><trkpt lat="43.748468896422985" lon="11.732390566708338"><ele>360.1666666666667</ele><time>2026-04-06T11:45:25.911Z</time></trkpt><trkpt lat="43.7485532142756" lon="11.732358628738469"><ele>360.3333333333333</ele><time>2026-04-06T11:45:27.911Z</time></trkpt><trkpt lat="43.748621455005306" lon="11.732331435497587"><ele>360.5</ele><time>2026-04-06T11:45:29.911Z</time></trkpt><trkpt lat="43.74870583487401" lon="11.732288636656873"><ele>360.66666666666663</ele><time>2026-04-06T11:45:32.911Z</time></trkpt><trkpt lat="43.7487840355082" lon="11.732238552071324"><ele>360.8333333333333</ele><time>2026-04-06T11:45:35.911Z</time></trkpt><trkpt lat="43.748847119590046" lon="11.732211714422782"><ele>361.0</ele><time>2026-04-06T11:45:37.911Z</time></trkpt><trkpt lat="43.74891122577775" lon="11.732173408006915"><ele>361.0</ele><time>2026-04-06T11:45:39.911Z</time></trkpt><trkpt lat="43.748975917841996" lon="11.732139938398984"><ele>361.0</ele><time>2026-04-06T11:45:41.909Z</time></trkpt><trkpt lat="43.74903824160952" lon="11.732107650486311"><ele>361.0</ele><time>2026-04-06T11:45:43.91Z</time></trkpt><trkpt lat="43.74910298893175" lon="11.732067691299708"><ele>361.0</ele><time>2026-04-06T11:45:45.909Z</time></trkpt><trkpt lat="43.74916411755473" lon="11.732032004607836"><ele>361.0</ele><time>2026-04-06T11:45:47.91Z</time></trkpt><trkpt lat="43.74922351866482" lon="11.731999235969363"><ele>361.0</ele><time>2026-04-06T11:45:49.91Z</time></trkpt><trkpt lat="43.74928939446557" lon="11.731973674142683"><ele>361.0</ele><time>2026-04-06T11:45:52.909Z</time></trkpt><trkpt lat="43.74937671464097" lon="11.731947869813196"><ele>361.0</ele><time>2026-04-06T11:45:55.909Z</time></trkpt><trkpt lat="43.74947125951266" lon="11.731926355538365"><ele>361.0</ele><time>2026-04-06T11:45:58.909Z</time></trkpt><trkpt lat="43.749535931435055" lon="11.731905774656896"><ele>361.0</ele><time>2026-04-06T11:46:00.909Z</time></trkpt><trkpt lat="43.74960063382445" lon="11.731880639091761"><ele>361.0</ele><time>2026-04-06T11:46:02.909Z</time></trkpt><trkpt lat="43.749660587953" lon="11.731851316641807"><ele>361.0</ele><time>2026-04-06T11:46:04.909Z</time></trkpt><trkpt lat="43.749722980522954" lon="11.731830992323005"><ele>361.0</ele><time>2026-04-06T11:46:06.909Z</time></trkpt><trkpt lat="43.74979168056252" lon="11.731824090319742"><ele>361.0</ele><time>2026-04-06T11:46:08.909Z</time></trkpt><trkpt lat="43.749861551014426" lon="11.731843546357792"><ele>361.0</ele><time>2026-04-06T11:46:10.909Z</time></trkpt><trkpt lat="43.749928488761846" lon="11.73186142331072"><ele>361.0</ele><time>2026-04-06T11:46:12.909Z</time></trkpt><trkpt lat="43.74999934477008" lon="11.731891340802576"><ele>361.0</ele><time>2026-04-06T11:46:14.909Z</time></trkpt><trkpt lat="43.750070213519386" lon="11.731923423831173"><ele>361.0</ele><time>2026-04-06T11:46:16.909Z</time></trkpt><trkpt lat="43.750143107783856" lon="11.731941989043799"><ele>361.0</ele><time>2026-04-06T11:46:18.909Z</time></trkpt><trkpt lat="43.75022012341032" lon="11.731938200181082"><ele>361.0</ele><time>2026-04-06T11:46:20.909Z</time></trkpt><trkpt lat="43.75029199824108" lon="11.731921947178789"><ele>361.0</ele><time>2026-04-06T11:46:22.909Z</time></trkpt><trkpt lat="43.75036415919455" lon="11.73188628231602"><ele>361.14285714285717</ele><time>2026-04-06T11:46:24.909Z</time></trkpt><trkpt lat="43.75043508421266" lon="11.73185394925298"><ele>361.2857142857143</ele><time>2026-04-06T11:46:26.909Z</time></trkpt><trkpt lat="43.75050276294705" lon="11.731826326179903"><ele>361.42857142857144</ele><time>2026-04-06T11:46:28.909Z</time></trkpt><trkpt lat="43.75056531062566" lon="11.731838934784161"><ele>361.57142857142856</ele><time>2026-04-06T11:46:30.909Z</time></trkpt><trkpt lat="43.750614533887656" lon="11.73195166400487"><ele>361.71428571428567</ele><time>2026-04-06T11:46:33.909Z</time></trkpt><trkpt lat="43.750611514863955" lon="11.732049634420322"><ele>361.85714285714283</ele><time>2026-04-06T11:46:35.909Z</time></trkpt><trkpt lat="43.750603764680626" lon="11.732147545624706"><ele>362.0</ele><time>2026-04-06T11:46:37.909Z</time></trkpt><trkpt lat="43.750603868047506" lon="11.73224338434303"><ele>362.0</ele><time>2026-04-06T11:46:39.909Z</time></trkpt><trkpt lat="43.7506096619504" lon="11.732349805704587"><ele>362.0</ele><time>2026-04-06T11:46:41.909Z</time></trkpt><trkpt lat="43.75061636114344" lon="11.732466474194686"><ele>362.0</ele><time>2026-04-06T11:46:43.909Z</time></trkpt><trkpt lat="43.75062664327563" lon="11.732592777189643"><ele>362.0</ele><time>2026-04-06T11:46:45.909Z</time></trkpt><trkpt lat="43.750634675744784" lon="11.732718650848877"><ele>362.0</ele><time>2026-04-06T11:46:47.909Z</time></trkpt><trkpt lat="43.75064999803055" lon="11.732831700806901"><ele>362.0</ele><time>2026-04-06T11:46:49.909Z</time></trkpt><trkpt lat="43.75066453870752" lon="11.732930472226636"><ele>361.85714285714283</ele><time>2026-04-06T11:46:51.909Z</time></trkpt><trkpt lat="43.75067661400322" lon="11.733017970325763"><ele>361.71428571428567</ele><time>2026-04-06T11:46:53.909Z</time></trkpt><trkpt lat="43.750687661755784" lon="11.733110452580577"><ele>361.57142857142856</ele><time>2026-04-06T11:46:55.909Z</time></trkpt><trkpt lat="43.750702469388386" lon="11.733203292363315"><ele>361.42857142857144</ele><time>2026-04-06T11:46:57.909Z</time></trkpt><trkpt lat="43.7507235545509" lon="11.733295609960125"><ele>361.2857142857143</ele><time>2026-04-06T11:46:59.909Z</time></trkpt><trkpt lat="43.750736837375754" lon="11.73342582851129"><ele>361.14285714285717</ele><time>2026-04-06T11:47:01.909Z</time></trkpt><trkpt lat="43.750805303877485" lon="11.733480772279353"><ele>361.0</ele><time>2026-04-06T11:47:03.909Z</time></trkpt><trkpt lat="43.750866238272614" lon="11.733443776019767"><ele>361.0</ele><time>2026-04-06T11:47:05.909Z</time></trkpt><trkpt lat="43.75093137710607" lon="11.733388213834786"><ele>361.0</ele><time>2026-04-06T11:47:08.909Z</time></trkpt><trkpt lat="43.750982958943624" lon="11.733334630827395"><ele>361.0</ele><time>2026-04-06T11:47:11.909Z</time></trkpt><trkpt lat="43.75106076754014" lon="11.733295654733244"><ele>361.0</ele><time>2026-04-06T11:47:14.909Z</time></trkpt><trkpt lat="43.75113008445256" lon="11.733253113891061"><ele>361.0</ele><time>2026-04-06T11:47:16.909Z</time></trkpt><trkpt lat="43.75118985844854" lon="11.733211119081126"><ele>361.0</ele><time>2026-04-06T11:47:18.909Z</time></trkpt><trkpt lat="43.75126822814611" lon="11.733136920437325"><ele>361.16666666666663</ele><time>2026-04-06T11:47:21.909Z</time></trkpt><trkpt lat="43.751348830970294" lon="11.733073170538848"><ele>361.3333333333333</ele><time>2026-04-06T11:47:24.909Z</time></trkpt><trkpt lat="43.751405259896515" lon="11.73302045307121"><ele>361.5</ele><time>2026-04-06T11:47:26.909Z</time></trkpt><trkpt lat="43.751465985872706" lon="11.732973464655572"><ele>361.6666666666667</ele><time>2026-04-06T11:47:28.909Z</time></trkpt><trkpt lat="43.751522585205095" lon="11.732931443824027"><ele>361.83333333333337</ele><time>2026-04-06T11:47:30.909Z</time></trkpt><trkpt lat="43.75160024744013" lon="11.73287969440494"><ele>362.0</ele><time>2026-04-06T11:47:32.909Z</time></trkpt><trkpt lat="43.7516682129295" lon="11.732827350397708"><ele>362.0</ele><time>2026-04-06T11:47:34.909Z</time></trkpt><trkpt lat="43.75172175593799" lon="11.732765815548357"><ele>362.0</ele><time>2026-04-06T11:47:36.909Z</time></trkpt><trkpt lat="43.7517773385289" lon="11.732657632769268"><ele>362.0</ele><time>2026-04-06T11:47:38.909Z</time></trkpt><trkpt lat="43.75183218756689" lon="11.732561018009225"><ele>362.0</ele><time>2026-04-06T11:47:40.909Z</time></trkpt><trkpt lat="43.75189691852333" lon="11.732521170631538"><ele>362.0</ele><time>2026-04-06T11:47:42.909Z</time></trkpt><trkpt lat="43.75197130679476" lon="11.732476518926"><ele>362.0</ele><time>2026-04-06T11:47:45.909Z</time></trkpt><trkpt lat="43.752045159434246" lon="11.73243167547535"><ele>362.1666666666667</ele><time>2026-04-06T11:47:48.906Z</time></trkpt><trkpt lat="43.75212632182509" lon="11.732386469381579"><ele>362.33333333333337</ele><time>2026-04-06T11:47:51.906Z</time></trkpt><trkpt lat="43.75221093347027" lon="11.732355170115227"><ele>362.5</ele><time>2026-04-06T11:47:53.906Z</time></trkpt><trkpt lat="43.752282099149596" lon="11.732315511701001"><ele>362.6666666666667</ele><time>2026-04-06T11:47:55.906Z</time></trkpt><trkpt lat="43.752341092048724" lon="11.73227061600161"><ele>362.8333333333333</ele><time>2026-04-06T11:47:57.906Z</time></trkpt><trkpt lat="43.75239969124478" lon="11.732213219373053"><ele>363.0</ele><time>2026-04-06T11:47:59.907Z</time></trkpt><trkpt lat="43.75247747116584" lon="11.732149076773633"><ele>363.0</ele><time>2026-04-06T11:48:01.906Z</time></trkpt><trkpt lat="43.75254958115141" lon="11.732092267860816"><ele>363.0</ele><time>2026-04-06T11:48:03.906Z</time></trkpt><trkpt lat="43.75261539629595" lon="11.732041153948412"><ele>363.0</ele><time>2026-04-06T11:48:05.906Z</time></trkpt><trkpt lat="43.75267506034283" lon="11.731986707133144"><ele>363.0</ele><time>2026-04-06T11:48:07.906Z</time></trkpt><trkpt lat="43.75274213336414" lon="11.73194115087666"><ele>363.0</ele><time>2026-04-06T11:48:09.906Z</time></trkpt><trkpt lat="43.75280341301289" lon="11.731880192364182"><ele>363.0</ele><time>2026-04-06T11:48:11.906Z</time></trkpt><trkpt lat="43.752868315596736" lon="11.731836099808651"><ele>363.1666666666667</ele><time>2026-04-06T11:48:13.906Z</time></trkpt><trkpt lat="43.752934349690314" lon="11.73178270757197"><ele>363.3333333333333</ele><time>2026-04-06T11:48:15.906Z</time></trkpt><trkpt lat="43.75300069058401" lon="11.731730275802848"><ele>363.5</ele><time>2026-04-06T11:48:17.906Z</time></trkpt><trkpt lat="43.75306909774621" lon="11.731683546996184"><ele>363.66666666666663</ele><time>2026-04-06T11:48:19.906Z</time></trkpt><trkpt lat="43.753127394091315" lon="11.731615621531473"><ele>363.8333333333333</ele><time>2026-04-06T11:48:21.906Z</time></trkpt><trkpt lat="43.75317958077889" lon="11.731538716231888"><ele>364.0</ele><time>2026-04-06T11:48:23.906Z</time></trkpt><trkpt lat="43.75321514148798" lon="11.731440374395593"><ele>364.0</ele><time>2026-04-06T11:48:25.906Z</time></trkpt><trkpt lat="43.75324535562085" lon="11.73134334712395"><ele>364.0</ele><time>2026-04-06T11:48:27.906Z</time></trkpt><trkpt lat="43.75327197183384" lon="11.731255372041042"><ele>364.0</ele><time>2026-04-06T11:48:29.906Z</time></trkpt><trkpt lat="43.75330561658695" lon="11.731179941656137"><ele>364.0</ele><time>2026-04-06T11:48:31.906Z</time></trkpt><trkpt lat="43.75334635935502" lon="11.731099893627727"><ele>364.0</ele><time>2026-04-06T11:48:33.906Z</time></trkpt><trkpt lat="43.753398798084454" lon="11.731028203132723"><ele>364.0</ele><time>2026-04-06T11:48:35.906Z</time></trkpt><trkpt lat="43.753462266710436" lon="11.730969885682645"><ele>364.0</ele><time>2026-04-06T11:48:37.906Z</time></trkpt><trkpt lat="43.753533601510654" lon="11.730926330990439"><ele>364.2857142857143</ele><time>2026-04-06T11:48:39.906Z</time></trkpt><trkpt lat="43.75360654774246" lon="11.730891619622101"><ele>364.57142857142856</ele><time>2026-04-06T11:48:41.906Z</time></trkpt><trkpt lat="43.75368134801364" lon="11.730868649881765"><ele>364.8571428571429</ele><time>2026-04-06T11:48:43.906Z</time></trkpt><trkpt lat="43.753755440777674" lon="11.730838333050247"><ele>365.1428571428571</ele><time>2026-04-06T11:48:45.906Z</time></trkpt><trkpt lat="43.75381340329364" lon="11.730788759513047"><ele>365.42857142857144</ele><time>2026-04-06T11:48:47.906Z</time></trkpt><trkpt lat="43.75387045368926" lon="11.7307323664911"><ele>365.7142857142857</ele><time>2026-04-06T11:48:49.906Z</time></trkpt><trkpt lat="43.753918581526065" lon="11.730675798193817"><ele>366.0</ele><time>2026-04-06T11:48:51.906Z</time></trkpt><trkpt lat="43.75397334422991" lon="11.73061371814915"><ele>366.0</ele><time>2026-04-06T11:48:53.906Z</time></trkpt><trkpt lat="43.75401011791865" lon="11.73053824313467"><ele>366.0</ele><time>2026-04-06T11:48:55.906Z</time></trkpt><trkpt lat="43.75406825924166" lon="11.730434600894922"><ele>366.0</ele><time>2026-04-06T11:48:58.906Z</time></trkpt><trkpt lat="43.75411119621181" lon="11.730361194834517"><ele>366.0</ele><time>2026-04-06T11:49:00.906Z</time></trkpt><trkpt lat="43.75416253819761" lon="11.730303903625549"><ele>366.0</ele><time>2026-04-06T11:49:02.906Z</time></trkpt><trkpt lat="43.75422750271061" lon="11.730210735785528"><ele>366.0</ele><time>2026-04-06T11:49:05.906Z</time></trkpt><trkpt lat="43.7542816560498" lon="11.730146522012138"><ele>366.0</ele><time>2026-04-06T11:49:07.906Z</time></trkpt><trkpt lat="43.75434580134212" lon="11.73010550744844"><ele>366.0</ele><time>2026-04-06T11:49:09.906Z</time></trkpt><trkpt lat="43.754417895371695" lon="11.730065646601615"><ele>366.0</ele><time>2026-04-06T11:49:11.906Z</time></trkpt><trkpt lat="43.75448771625695" lon="11.730058581580899"><ele>366.0</ele><time>2026-04-06T11:49:13.906Z</time></trkpt><trkpt lat="43.754558948828674" lon="11.730065401882133"><ele>366.0</ele><time>2026-04-06T11:49:15.906Z</time></trkpt><trkpt lat="43.75463161308232" lon="11.730065779420999"><ele>366.0</ele><time>2026-04-06T11:49:17.906Z</time></trkpt><trkpt lat="43.754704887826136" lon="11.730056799955296"><ele>366.0</ele><time>2026-04-06T11:49:19.906Z</time></trkpt><trkpt lat="43.75477458363722" lon="11.73005670167166"><ele>366.0</ele><time>2026-04-06T11:49:21.906Z</time></trkpt><trkpt lat="43.75486663919244" lon="11.730052433116812"><ele>366.0</ele><time>2026-04-06T11:49:24.906Z</time></trkpt><trkpt lat="43.754947192452576" lon="11.73004691068911"><ele>366.0</ele><time>2026-04-06T11:49:26.906Z</time></trkpt><trkpt lat="43.75502202676804" lon="11.730039247228891"><ele>366.0</ele><time>2026-04-06T11:49:28.906Z</time></trkpt><trkpt lat="43.75510070007739" lon="11.73004878696814"><ele>366.0</ele><time>2026-04-06T11:49:30.906Z</time></trkpt><trkpt lat="43.75518131688542" lon="11.73004198663509"><ele>366.0</ele><time>2026-04-06T11:49:32.906Z</time></trkpt><trkpt lat="43.75525065686792" lon="11.730003916051036"><ele>366.14285714285717</ele><time>2026-04-06T11:49:34.906Z</time></trkpt><trkpt lat="43.75531444545968" lon="11.729969366667774"><ele>366.28571428571433</ele><time>2026-04-06T11:49:36.906Z</time></trkpt><trkpt lat="43.75538093846397" lon="11.729949361251077"><ele>366.42857142857144</ele><time>2026-04-06T11:49:38.906Z</time></trkpt><trkpt lat="43.755451204866155" lon="11.729931700758158"><ele>366.57142857142856</ele><time>2026-04-06T11:49:40.906Z</time></trkpt><trkpt lat="43.75552036429999" lon="11.729920018863108"><ele>366.7142857142857</ele><time>2026-04-06T11:49:42.906Z</time></trkpt><trkpt lat="43.75559068275419" lon="11.729923942974342"><ele>366.85714285714283</ele><time>2026-04-06T11:49:44.906Z</time></trkpt><trkpt lat="43.75566152254699" lon="11.729919414868776"><ele>367.0</ele><time>2026-04-06T11:49:46.906Z</time></trkpt><trkpt lat="43.755725432175325" lon="11.729918772636257"><ele>367.0</ele><time>2026-04-06T11:49:48.906Z</time></trkpt><trkpt lat="43.75580516790036" lon="11.729903550195777"><ele>367.0</ele><time>2026-04-06T11:49:50.906Z</time></trkpt><trkpt lat="43.7558764210698" lon="11.72989177013334"><ele>367.0</ele><time>2026-04-06T11:49:52.903Z</time></trkpt><trkpt lat="43.755960720969554" lon="11.729910351404659"><ele>367.0</ele><time>2026-04-06T11:49:54.903Z</time></trkpt><trkpt lat="43.75604166825576" lon="11.72995130940053"><ele>367.0</ele><time>2026-04-06T11:49:56.903Z</time></trkpt><trkpt lat="43.75612458883651" lon="11.729931832015353"><ele>367.0</ele><time>2026-04-06T11:49:58.902Z</time></trkpt><trkpt lat="43.756199268830564" lon="11.729824159818145"><ele>367.3333333333333</ele><time>2026-04-06T11:50:00.903Z</time></trkpt><trkpt lat="43.75627003314276" lon="11.729763807363577"><ele>367.66666666666663</ele><time>2026-04-06T11:50:02.902Z</time></trkpt><trkpt lat="43.75634555186554" lon="11.729829919289989"><ele>368.0</ele><time>2026-04-06T11:50:04.902Z</time></trkpt><trkpt lat="43.75642717704812" lon="11.729864911754811"><ele>368.3333333333333</ele><time>2026-04-06T11:50:06.903Z</time></trkpt><trkpt lat="43.756505926064904" lon="11.72986615177014"><ele>368.6666666666667</ele><time>2026-04-06T11:50:08.902Z</time></trkpt><trkpt lat="43.75657170136112" lon="11.729875696358768"><ele>369.0</ele><time>2026-04-06T11:50:10.902Z</time></trkpt><trkpt lat="43.756641386552275" lon="11.729889596168277"><ele>369.0</ele><time>2026-04-06T11:50:12.902Z</time></trkpt><trkpt lat="43.756724340939485" lon="11.729932818899936"><ele>369.0</ele><time>2026-04-06T11:50:14.902Z</time></trkpt><trkpt lat="43.75679942870107" lon="11.729943097698595"><ele>369.0</ele><time>2026-04-06T11:50:16.902Z</time></trkpt><trkpt lat="43.75687932456526" lon="11.729906448047238"><ele>369.0</ele><time>2026-04-06T11:50:18.902Z</time></trkpt><trkpt lat="43.75694980389933" lon="11.729863353953814"><ele>369.0</ele><time>2026-04-06T11:50:20.902Z</time></trkpt><trkpt lat="43.757040936411144" lon="11.729826692295449"><ele>369.0</ele><time>2026-04-06T11:50:22.902Z</time></trkpt><trkpt lat="43.75713732093565" lon="11.729804796671086"><ele>369.2</ele><time>2026-04-06T11:50:24.902Z</time></trkpt><trkpt lat="43.75723650200652" lon="11.729802554175464"><ele>369.4</ele><time>2026-04-06T11:50:26.902Z</time></trkpt><trkpt lat="43.75732144906344" lon="11.729791099058874"><ele>369.6</ele><time>2026-04-06T11:50:28.902Z</time></trkpt><trkpt lat="43.75741333819043" lon="11.729764420470909"><ele>369.8</ele><time>2026-04-06T11:50:30.902Z</time></trkpt><trkpt lat="43.757508519594" lon="11.729738692021723"><ele>370.0</ele><time>2026-04-06T11:50:32.902Z</time></trkpt><trkpt lat="43.757592769151024" lon="11.729688953138371"><ele>370.0</ele><time>2026-04-06T11:50:34.902Z</time></trkpt><trkpt lat="43.757676233005775" lon="11.729623439592084"><ele>370.0</ele><time>2026-04-06T11:50:36.902Z</time></trkpt><trkpt lat="43.757754982993376" lon="11.729549495343568"><ele>370.0</ele><time>2026-04-06T11:50:38.902Z</time></trkpt><trkpt lat="43.757838775680625" lon="11.729485611448824"><ele>370.0</ele><time>2026-04-06T11:50:40.902Z</time></trkpt><trkpt lat="43.75791314341024" lon="11.729415127953306"><ele>370.0</ele><time>2026-04-06T11:50:42.902Z</time></trkpt><trkpt lat="43.75796474888464" lon="11.729326314980588"><ele>370.0</ele><time>2026-04-06T11:50:44.902Z</time></trkpt><trkpt lat="43.75801756988642" lon="11.729256996631078"><ele>370.0</ele><time>2026-04-06T11:50:46.902Z</time></trkpt><trkpt lat="43.75809399693259" lon="11.729201275078017"><ele>370.0</ele><time>2026-04-06T11:50:48.902Z</time></trkpt><trkpt lat="43.75816705816102" lon="11.729140088519372"><ele>370.0</ele><time>2026-04-06T11:50:50.902Z</time></trkpt><trkpt lat="43.758234656732725" lon="11.729077997987492"><ele>370.0</ele><time>2026-04-06T11:50:52.902Z</time></trkpt><trkpt lat="43.75830034306328" lon="11.729019497640909"><ele>370.0</ele><time>2026-04-06T11:50:54.902Z</time></trkpt><trkpt lat="43.75836572083855" lon="11.728945702428513"><ele>370.0</ele><time>2026-04-06T11:50:56.902Z</time></trkpt><trkpt lat="43.75842735174308" lon="11.728872411948815"><ele>370.0</ele><time>2026-04-06T11:50:58.902Z</time></trkpt><trkpt lat="43.758484394554976" lon="11.728801210679782"><ele>370.0</ele><time>2026-04-06T11:51:00.902Z</time></trkpt><trkpt lat="43.758546228339696" lon="11.728733584994501"><ele>370.0</ele><time>2026-04-06T11:51:02.902Z</time></trkpt><trkpt lat="43.758613133469815" lon="11.728670375860226"><ele>370.0</ele><time>2026-04-06T11:51:04.902Z</time></trkpt><trkpt lat="43.758680651577286" lon="11.728611175843954"><ele>370.0</ele><time>2026-04-06T11:51:06.902Z</time></trkpt><trkpt lat="43.758750807741094" lon="11.728551391264798"><ele>370.3333333333333</ele><time>2026-04-06T11:51:08.902Z</time></trkpt><trkpt lat="43.75880571935209" lon="11.728480410163202"><ele>370.66666666666663</ele><time>2026-04-06T11:51:10.902Z</time></trkpt><trkpt lat="43.75884619638572" lon="11.728392408586025"><ele>371.0</ele><time>2026-04-06T11:51:12.902Z</time></trkpt><trkpt lat="43.758880987985734" lon="11.728303199160546"><ele>371.3333333333333</ele><time>2026-04-06T11:51:14.902Z</time></trkpt><trkpt lat="43.758941801857176" lon="11.7282230916355"><ele>371.6666666666667</ele><time>2026-04-06T11:51:16.902Z</time></trkpt><trkpt lat="43.759018146548215" lon="11.72818478964282"><ele>372.0</ele><time>2026-04-06T11:51:18.902Z</time></trkpt><trkpt lat="43.75909398896518" lon="11.728153678259202"><ele>372.0</ele><time>2026-04-06T11:51:20.902Z</time></trkpt><trkpt lat="43.759169489401046" lon="11.728117868067047"><ele>372.0</ele><time>2026-04-06T11:51:22.902Z</time></trkpt><trkpt lat="43.759244624605365" lon="11.728075143244478"><ele>372.0</ele><time>2026-04-06T11:51:24.902Z</time></trkpt><trkpt lat="43.75931466325383" lon="11.728028314700381"><ele>372.0</ele><time>2026-04-06T11:51:26.902Z</time></trkpt><trkpt lat="43.75938142728487" lon="11.727979417476627"><ele>372.0</ele><time>2026-04-06T11:51:28.902Z</time></trkpt><trkpt lat="43.75945204309369" lon="11.72792480503591"><ele>372.0</ele><time>2026-04-06T11:51:30.902Z</time></trkpt><trkpt lat="43.75952405737275" lon="11.72787411585916"><ele>372.0</ele><time>2026-04-06T11:51:32.902Z</time></trkpt><trkpt lat="43.75959574824572" lon="11.727822500541917"><ele>372.0</ele><time>2026-04-06T11:51:34.902Z</time></trkpt><trkpt lat="43.759665859594826" lon="11.72777424891494"><ele>372.0</ele><time>2026-04-06T11:51:36.902Z</time></trkpt><trkpt lat="43.75974699693073" lon="11.727730524834964"><ele>372.0</ele><time>2026-04-06T11:51:38.902Z</time></trkpt><trkpt lat="43.75983441725369" lon="11.72769770820058"><ele>372.0</ele><time>2026-04-06T11:51:40.902Z</time></trkpt><trkpt lat="43.7599153081771" lon="11.727663454749955"><ele>372.0</ele><time>2026-04-06T11:51:42.902Z</time></trkpt><trkpt lat="43.76000035984222" lon="11.727630254839067"><ele>372.0</ele><time>2026-04-06T11:51:44.902Z</time></trkpt><trkpt lat="43.760084084337535" lon="11.727599200389593"><ele>372.0</ele><time>2026-04-06T11:51:46.902Z</time></trkpt><trkpt lat="43.760155060825376" lon="11.7275507978982"><ele>372.0</ele><time>2026-04-06T11:51:48.902Z</time></trkpt><trkpt lat="43.760224589107246" lon="11.727498708598326"><ele>372.0</ele><time>2026-04-06T11:51:50.902Z</time></trkpt><trkpt lat="43.76031286634838" lon="11.727442986539883"><ele>372.0</ele><time>2026-04-06T11:51:52.902Z</time></trkpt><trkpt lat="43.76039854564066" lon="11.727402702548321"><ele>372.0</ele><time>2026-04-06T11:51:54.902Z</time></trkpt><trkpt lat="43.760464370200026" lon="11.727365866562256"><ele>372.0</ele><time>2026-04-06T11:51:56.902Z</time></trkpt><trkpt lat="43.760536569865515" lon="11.727328410721638"><ele>372.0</ele><time>2026-04-06T11:51:58.899Z</time></trkpt><trkpt lat="43.76062459830177" lon="11.72728317107474"><ele>372.0</ele><time>2026-04-06T11:52:00.9Z</time></trkpt><trkpt lat="43.76071087582641" lon="11.727241667112372"><ele>372.0</ele><time>2026-04-06T11:52:02.9Z</time></trkpt><trkpt lat="43.76078861544164" lon="11.727199306200735"><ele>372.0</ele><time>2026-04-06T11:52:04.899Z</time></trkpt><trkpt lat="43.76086514682255" lon="11.727194705095387"><ele>372.0</ele><time>2026-04-06T11:52:06.899Z</time></trkpt><trkpt lat="43.76095450944079" lon="11.727206438809045"><ele>372.00000000000006</ele><time>2026-04-06T11:52:08.899Z</time></trkpt><trkpt lat="43.76102790675508" lon="11.727186334346555"><ele>372.0</ele><time>2026-04-06T11:52:10.899Z</time></trkpt><trkpt lat="43.76109006657972" lon="11.727161458842183"><ele>372.0</ele><time>2026-04-06T11:52:12.899Z</time></trkpt><trkpt lat="43.76115702326206" lon="11.72712712012359"><ele>372.0</ele><time>2026-04-06T11:52:14.898Z</time></trkpt><trkpt lat="43.76122653852185" lon="11.727102353100188"><ele>372.0</ele><time>2026-04-06T11:52:16.899Z</time></trkpt><trkpt lat="43.76132243431158" lon="11.727110184923745"><ele>372.00000000000006</ele><time>2026-04-06T11:52:18.899Z</time></trkpt><trkpt lat="43.761387397401414" lon="11.727090678615065"><ele>372.0</ele><time>2026-04-06T11:52:20.899Z</time></trkpt><trkpt lat="43.76145936499757" lon="11.727074218827289"><ele>372.5714285714286</ele><time>2026-04-06T11:52:22.899Z</time></trkpt><trkpt lat="43.761526581357906" lon="11.727063600122996"><ele>373.14285714285717</ele><time>2026-04-06T11:52:24.899Z</time></trkpt><trkpt lat="43.76158489081149" lon="11.727029027543855"><ele>373.7142857142857</ele><time>2026-04-06T11:52:26.899Z</time></trkpt><trkpt lat="43.76166012184898" lon="11.727016428231552"><ele>374.28571428571433</ele><time>2026-04-06T11:52:29.899Z</time></trkpt><trkpt lat="43.7617386994442" lon="11.726988914586151"><ele>374.85714285714283</ele><time>2026-04-06T11:52:32.899Z</time></trkpt><trkpt lat="43.76180205892578" lon="11.726970071450236"><ele>375.42857142857144</ele><time>2026-04-06T11:52:34.899Z</time></trkpt><trkpt lat="43.76187964854813" lon="11.726931026795047"><ele>376.0</ele><time>2026-04-06T11:52:36.899Z</time></trkpt><trkpt lat="43.761954493603746" lon="11.726904424592213"><ele>376.5</ele><time>2026-04-06T11:52:38.899Z</time></trkpt><trkpt lat="43.7620375148038" lon="11.726862349598997"><ele>377.0</ele><time>2026-04-06T11:52:41.899Z</time></trkpt><trkpt lat="43.762118239040305" lon="11.726808440209066"><ele>377.5</ele><time>2026-04-06T11:52:44.899Z</time></trkpt><trkpt lat="43.76218222272385" lon="11.7267733521051"><ele>378.0</ele><time>2026-04-06T11:52:46.899Z</time></trkpt><trkpt lat="43.76225182027795" lon="11.726727046998032"><ele>378.5</ele><time>2026-04-06T11:52:48.899Z</time></trkpt><trkpt lat="43.76232964691713" lon="11.726681095420073"><ele>379.0</ele><time>2026-04-06T11:52:51.899Z</time></trkpt><trkpt lat="43.762423326290126" lon="11.726637076383742"><ele>379.0</ele><time>2026-04-06T11:52:54.899Z</time></trkpt><trkpt lat="43.762483002722945" lon="11.72660068103703"><ele>379.0</ele><time>2026-04-06T11:52:56.899Z</time></trkpt><trkpt lat="43.76254987820096" lon="11.726546857567083"><ele>379.0</ele><time>2026-04-06T11:52:58.899Z</time></trkpt><trkpt lat="43.762609564818945" lon="11.726498875923673"><ele>379.0</ele><time>2026-04-06T11:53:00.899Z</time></trkpt><trkpt lat="43.76267343896916" lon="11.726459399900103"><ele>379.0</ele><time>2026-04-06T11:53:02.899Z</time></trkpt><trkpt lat="43.76275578533337" lon="11.726389207509197"><ele>379.0</ele><time>2026-04-06T11:53:05.899Z</time></trkpt><trkpt lat="43.76284139333023" lon="11.72635823485117"><ele>379.16666666666663</ele><time>2026-04-06T11:53:08.899Z</time></trkpt><trkpt lat="43.762923769210055" lon="11.726320190116775"><ele>379.3333333333333</ele><time>2026-04-06T11:53:11.899Z</time></trkpt><trkpt lat="43.762983202582944" lon="11.72628355097556"><ele>379.5</ele><time>2026-04-06T11:53:13.899Z</time></trkpt><trkpt lat="43.763034079577864" lon="11.726206792445314"><ele>379.6666666666667</ele><time>2026-04-06T11:53:15.899Z</time></trkpt><trkpt lat="43.76305780440103" lon="11.726108717565568"><ele>379.83333333333337</ele><time>2026-04-06T11:53:17.899Z</time></trkpt><trkpt lat="43.763100806105214" lon="11.726032068744596"><ele>380.0</ele><time>2026-04-06T11:53:19.899Z</time></trkpt><trkpt lat="43.76315651556732" lon="11.725945031829896"><ele>381.0</ele><time>2026-04-06T11:53:22.899Z</time></trkpt><trkpt lat="43.76323882458213" lon="11.725927356169795"><ele>382.0</ele><time>2026-04-06T11:53:25.899Z</time></trkpt><trkpt lat="43.76330311153234" lon="11.725921614830703"><ele>383.0</ele><time>2026-04-06T11:53:28.899Z</time></trkpt><trkpt lat="43.763383274420704" lon="11.72590457056489"><ele>384.0</ele><time>2026-04-06T11:53:31.899Z</time></trkpt><trkpt lat="43.7634596468317" lon="11.725892852737154"><ele>385.0</ele><time>2026-04-06T11:53:33.899Z</time></trkpt><trkpt lat="43.76353258414814" lon="11.725881226606427"><ele>386.0</ele><time>2026-04-06T11:53:35.899Z</time></trkpt><trkpt lat="43.763600696263936" lon="11.725882390580454"><ele>387.0</ele><time>2026-04-06T11:53:37.899Z</time></trkpt><trkpt lat="43.763682442991154" lon="11.725881970376312"><ele>387.1666666666667</ele><time>2026-04-06T11:53:39.899Z</time></trkpt><trkpt lat="43.76375722836233" lon="11.725890061542216"><ele>387.33333333333337</ele><time>2026-04-06T11:53:41.899Z</time></trkpt><trkpt lat="43.76384113663387" lon="11.725875155945724"><ele>387.5</ele><time>2026-04-06T11:53:43.899Z</time></trkpt><trkpt lat="43.763915917961654" lon="11.7258326391835"><ele>387.6666666666667</ele><time>2026-04-06T11:53:45.899Z</time></trkpt><trkpt lat="43.76398591738924" lon="11.725800545312143"><ele>387.83333333333337</ele><time>2026-04-06T11:53:47.899Z</time></trkpt><trkpt lat="43.764049069777194" lon="11.725765961947337"><ele>388.0</ele><time>2026-04-06T11:53:49.899Z</time></trkpt><trkpt lat="43.76411748630088" lon="11.725739315086912"><ele>388.00000000000006</ele><time>2026-04-06T11:53:51.899Z</time></trkpt><trkpt lat="43.764208666473486" lon="11.725708130340777"><ele>388.0</ele><time>2026-04-06T11:53:53.899Z</time></trkpt><trkpt lat="43.764279135170796" lon="11.725686211980614"><ele>388.0</ele><time>2026-04-06T11:53:55.899Z</time></trkpt><trkpt lat="43.76434916647528" lon="11.725656302337498"><ele>388.0</ele><time>2026-04-06T11:53:57.899Z</time></trkpt><trkpt lat="43.764429644555136" lon="11.725629939546419"><ele>388.00000000000006</ele><time>2026-04-06T11:53:59.899Z</time></trkpt><trkpt lat="43.76450241321725" lon="11.72561584219777"><ele>388.0</ele><time>2026-04-06T11:54:01.899Z</time></trkpt><trkpt lat="43.76458006041146" lon="11.725589399976863"><ele>387.50000000000006</ele><time>2026-04-06T11:54:03.899Z</time></trkpt><trkpt lat="43.764643966705535" lon="11.725573991413718"><ele>387.0</ele><time>2026-04-06T11:54:05.896Z</time></trkpt><trkpt lat="43.764733099401376" lon="11.72555015529461"><ele>386.5</ele><time>2026-04-06T11:54:08.896Z</time></trkpt><trkpt lat="43.764805814087666" lon="11.725525221285768"><ele>386.0</ele><time>2026-04-06T11:54:10.896Z</time></trkpt><trkpt lat="43.76487823352055" lon="11.725501865426432"><ele>385.50000000000006</ele><time>2026-04-06T11:54:12.896Z</time></trkpt><trkpt lat="43.764966114710745" lon="11.725498612478876"><ele>385.0</ele><time>2026-04-06T11:54:15.896Z</time></trkpt><trkpt lat="43.765029801801795" lon="11.72549517734137"><ele>385.00000000000006</ele><time>2026-04-06T11:54:17.895Z</time></trkpt><trkpt lat="43.76509586910291" lon="11.725486639008109"><ele>385.0</ele><time>2026-04-06T11:54:19.896Z</time></trkpt><trkpt lat="43.76516296201007" lon="11.725467086491863"><ele>385.0</ele><time>2026-04-06T11:54:21.896Z</time></trkpt><trkpt lat="43.76524752025492" lon="11.725455335456019"><ele>385.0</ele><time>2026-04-06T11:54:23.896Z</time></trkpt><trkpt lat="43.76534020729564" lon="11.72546140861891"><ele>385.00000000000006</ele><time>2026-04-06T11:54:25.896Z</time></trkpt><trkpt lat="43.76543048468951" lon="11.725461939276247"><ele>385.0</ele><time>2026-04-06T11:54:27.896Z</time></trkpt><trkpt lat="43.765515247429384" lon="11.725469121358822"><ele>385.1666666666667</ele><time>2026-04-06T11:54:29.896Z</time></trkpt><trkpt lat="43.76559618825681" lon="11.725492300394587"><ele>385.33333333333337</ele><time>2026-04-06T11:54:31.896Z</time></trkpt><trkpt lat="43.765663272790476" lon="11.725508523089193"><ele>385.5</ele><time>2026-04-06T11:54:33.896Z</time></trkpt><trkpt lat="43.765732687140904" lon="11.725518672104997"><ele>385.66666666666663</ele><time>2026-04-06T11:54:35.896Z</time></trkpt><trkpt lat="43.76582206043613" lon="11.72552719713235"><ele>385.8333333333333</ele><time>2026-04-06T11:54:38.896Z</time></trkpt><trkpt lat="43.765886616648224" lon="11.725539635665747"><ele>386.0</ele><time>2026-04-06T11:54:40.896Z</time></trkpt><trkpt lat="43.76596066745586" lon="11.72555042741279"><ele>385.99999999999994</ele><time>2026-04-06T11:54:42.896Z</time></trkpt><trkpt lat="43.766023144470765" lon="11.725562779174851"><ele>386.0</ele><time>2026-04-06T11:54:44.896Z</time></trkpt><trkpt lat="43.766092486440854" lon="11.72556876051696"><ele>386.0</ele><time>2026-04-06T11:54:47.896Z</time></trkpt><trkpt lat="43.766188011081354" lon="11.725571026815055"><ele>386.0</ele><time>2026-04-06T11:54:50.896Z</time></trkpt><trkpt lat="43.766283429618355" lon="11.725562464349503"><ele>385.99999999999994</ele><time>2026-04-06T11:54:52.896Z</time></trkpt><trkpt lat="43.7663539352096" lon="11.725497777790382"><ele>386.0</ele><time>2026-04-06T11:54:54.896Z</time></trkpt><trkpt lat="43.76639916262225" lon="11.725423160136373"><ele>386.00000000000006</ele><time>2026-04-06T11:54:56.896Z</time></trkpt><trkpt lat="43.76644283036678" lon="11.725345988146682"><ele>386.0</ele><time>2026-04-06T11:54:58.896Z</time></trkpt><trkpt lat="43.766488108687234" lon="11.725276050481062"><ele>386.0</ele><time>2026-04-06T11:55:01.896Z</time></trkpt><trkpt lat="43.76654361668446" lon="11.725233159240462"><ele>386.0</ele><time>2026-04-06T11:55:04.896Z</time></trkpt><trkpt lat="43.76663163063372" lon="11.725241226450242"><ele>386.0</ele><time>2026-04-06T11:55:07.896Z</time></trkpt><trkpt lat="43.76669312517342" lon="11.72527036254066"><ele>386.00000000000006</ele><time>2026-04-06T11:55:09.896Z</time></trkpt><trkpt lat="43.76675943847713" lon="11.725347247767493"><ele>386.0</ele><time>2026-04-06T11:55:11.896Z</time></trkpt><trkpt lat="43.76681060455959" lon="11.725442866900197"><ele>386.3333333333333</ele><time>2026-04-06T11:55:13.896Z</time></trkpt><trkpt lat="43.76686634694686" lon="11.7255064115996"><ele>386.66666666666663</ele><time>2026-04-06T11:55:15.896Z</time></trkpt><trkpt lat="43.766943879343515" lon="11.725576336455612"><ele>387.0</ele><time>2026-04-06T11:55:18.896Z</time></trkpt><trkpt lat="43.76700755090648" lon="11.725618642070383"><ele>387.33333333333337</ele><time>2026-04-06T11:55:20.896Z</time></trkpt><trkpt lat="43.767075931386856" lon="11.725660932157767"><ele>387.6666666666667</ele><time>2026-04-06T11:55:22.896Z</time></trkpt><trkpt lat="43.767141326811426" lon="11.725699069898306"><ele>388.0</ele><time>2026-04-06T11:55:24.896Z</time></trkpt><trkpt lat="43.76720707611547" lon="11.725730542108343"><ele>388.00000000000006</ele><time>2026-04-06T11:55:26.896Z</time></trkpt><trkpt lat="43.76728582479832" lon="11.725756816505875"><ele>388.0</ele><time>2026-04-06T11:55:28.896Z</time></trkpt><trkpt lat="43.76736581236034" lon="11.725785549594676"><ele>388.0</ele><time>2026-04-06T11:55:30.896Z</time></trkpt><trkpt lat="43.76744783872412" lon="11.725792734340708"><ele>388.0</ele><time>2026-04-06T11:55:33.896Z</time></trkpt><trkpt lat="43.76751901184983" lon="11.725814717909966"><ele>388.00000000000006</ele><time>2026-04-06T11:55:36.896Z</time></trkpt><trkpt lat="43.767591088816104" lon="11.725820058769642"><ele>388.0</ele><time>2026-04-06T11:55:39.896Z</time></trkpt><trkpt lat="43.76767090310016" lon="11.72582457165388"><ele>387.59999999999997</ele><time>2026-04-06T11:55:42.896Z</time></trkpt><trkpt lat="43.76775481393378" lon="11.725825858584056"><ele>387.2</ele><time>2026-04-06T11:55:45.896Z</time></trkpt><trkpt lat="43.76784911934563" lon="11.725839863729478"><ele>386.8</ele><time>2026-04-06T11:55:48.896Z</time></trkpt><trkpt lat="43.767929997096594" lon="11.7258531549622"><ele>386.4</ele><time>2026-04-06T11:55:50.896Z</time></trkpt><trkpt lat="43.76802025315011" lon="11.725867764252348"><ele>386.0</ele><time>2026-04-06T11:55:52.896Z</time></trkpt><trkpt lat="43.76812721760812" lon="11.725890241813733"><ele>385.99999999999994</ele><time>2026-04-06T11:55:54.896Z</time></trkpt><trkpt lat="43.768193848143625" lon="11.725911470532626"><ele>386.0</ele><time>2026-04-06T11:55:55.896Z</time></trkpt><trkpt lat="43.768266792130916" lon="11.72594387440334"><ele>386.0</ele><time>2026-04-06T11:55:56.896Z</time></trkpt><trkpt lat="43.76834498149406" lon="11.725979519793857"><ele>386.0</ele><time>2026-04-06T11:55:57.896Z</time></trkpt><trkpt lat="43.768422692815165" lon="11.726026231405458"><ele>385.99999999999994</ele><time>2026-04-06T11:55:58.896Z</time></trkpt><trkpt lat="43.76850130026324" lon="11.726068183888868"><ele>386.0</ele><time>2026-04-06T11:55:59.896Z</time></trkpt><trkpt lat="43.76857868694207" lon="11.726105813806397"><ele>385.8333333333333</ele><time>2026-04-06T11:56:00.896Z</time></trkpt><trkpt lat="43.76864858299616" lon="11.726139024588944"><ele>385.66666666666663</ele><time>2026-04-06T11:56:01.896Z</time></trkpt><trkpt lat="43.76871303007332" lon="11.726172809991075"><ele>385.5</ele><time>2026-04-06T11:56:02.896Z</time></trkpt><trkpt lat="43.76877300846517" lon="11.726202982643521"><ele>385.33333333333337</ele><time>2026-04-06T11:56:03.896Z</time></trkpt><trkpt lat="43.768876935940106" lon="11.726291918249832"><ele>385.1666666666667</ele><time>2026-04-06T11:56:05.896Z</time></trkpt><trkpt lat="43.7689234726611" lon="11.726355283467138"><ele>385.0</ele><time>2026-04-06T11:56:06.896Z</time></trkpt><trkpt lat="43.76896845867967" lon="11.726435215365397"><ele>385.00000000000006</ele><time>2026-04-06T11:56:07.896Z</time></trkpt><trkpt lat="43.769023736992544" lon="11.726511056421"><ele>385.0</ele><time>2026-04-06T11:56:08.896Z</time></trkpt><trkpt lat="43.769088549191444" lon="11.726568066397387"><ele>385.0</ele><time>2026-04-06T11:56:09.896Z</time></trkpt><trkpt lat="43.76915242096808" lon="11.726614175936353"><ele>385.0</ele><time>2026-04-06T11:56:10.893Z</time></trkpt><trkpt lat="43.76921027015462" lon="11.726657653008543"><ele>385.00000000000006</ele><time>2026-04-06T11:56:11.893Z</time></trkpt><trkpt lat="43.769319157680734" lon="11.726732688235087"><ele>385.0</ele><time>2026-04-06T11:56:13.893Z</time></trkpt><trkpt lat="43.76942159220987" lon="11.726774660985049"><ele>385.0</ele><time>2026-04-06T11:56:15.893Z</time></trkpt><trkpt lat="43.76953299849608" lon="11.72679991189456"><ele>385.0</ele><time>2026-04-06T11:56:17.893Z</time></trkpt><trkpt lat="43.769634202691954" lon="11.726789756475029"><ele>385.0</ele><time>2026-04-06T11:56:19.893Z</time></trkpt><trkpt lat="43.769716695636575" lon="11.72679184310925"><ele>385.0</ele><time>2026-04-06T11:56:21.892Z</time></trkpt><trkpt lat="43.769800081185984" lon="11.72679538867251"><ele>385.0</ele><time>2026-04-06T11:56:23.892Z</time></trkpt><trkpt lat="43.76988247853176" lon="11.726803564579777"><ele>385.00000000000006</ele><time>2026-04-06T11:56:25.892Z</time></trkpt><trkpt lat="43.76995557185434" lon="11.726826544791596"><ele>385.0</ele><time>2026-04-06T11:56:27.892Z</time></trkpt><trkpt lat="43.770020744067146" lon="11.72684395161312"><ele>385.0</ele><time>2026-04-06T11:56:29.892Z</time></trkpt><trkpt lat="43.770115273387326" lon="11.726881501957736"><ele>385.0</ele><time>2026-04-06T11:56:32.892Z</time></trkpt><trkpt lat="43.77018070847661" lon="11.726907529115186"><ele>385.00000000000006</ele><time>2026-04-06T11:56:34.892Z</time></trkpt><trkpt lat="43.77024870343319" lon="11.726919518042186"><ele>385.0</ele><time>2026-04-06T11:56:36.892Z</time></trkpt><trkpt lat="43.77032285876717" lon="11.72692674201812"><ele>385.2857142857143</ele><time>2026-04-06T11:56:39.892Z</time></trkpt><trkpt lat="43.770402659317796" lon="11.726929827216031"><ele>385.57142857142856</ele><time>2026-04-06T11:56:42.892Z</time></trkpt><trkpt lat="43.77047681601809" lon="11.726935048355756"><ele>385.8571428571429</ele><time>2026-04-06T11:56:45.892Z</time></trkpt><trkpt lat="43.7705521447597" lon="11.72695910861338"><ele>386.1428571428571</ele><time>2026-04-06T11:56:48.892Z</time></trkpt><trkpt lat="43.770613437978724" lon="11.727012862779361"><ele>386.42857142857144</ele><time>2026-04-06T11:56:50.892Z</time></trkpt><trkpt lat="43.770670163788125" lon="11.727075567094856"><ele>386.7142857142857</ele><time>2026-04-06T11:56:52.892Z</time></trkpt><trkpt lat="43.77072382721856" lon="11.727136426707197"><ele>387.0</ele><time>2026-04-06T11:56:54.892Z</time></trkpt><trkpt lat="43.77078669959844" lon="11.727181140410261"><ele>387.0</ele><time>2026-04-06T11:56:56.892Z</time></trkpt><trkpt lat="43.7708429467351" lon="11.727222818666613"><ele>387.0</ele><time>2026-04-06T11:56:58.892Z</time></trkpt><trkpt lat="43.77090456173433" lon="11.72724512554561"><ele>387.0</ele><time>2026-04-06T11:57:00.892Z</time></trkpt><trkpt lat="43.77096953230707" lon="11.727259382443382"><ele>387.0</ele><time>2026-04-06T11:57:02.892Z</time></trkpt><trkpt lat="43.77103226690026" lon="11.727268359802077"><ele>387.0</ele><time>2026-04-06T11:57:04.892Z</time></trkpt><trkpt lat="43.77112732007674" lon="11.727282895625422"><ele>387.0</ele><time>2026-04-06T11:57:07.892Z</time></trkpt><trkpt lat="43.77121430747055" lon="11.727297857379604"><ele>387.0</ele><time>2026-04-06T11:57:10.892Z</time></trkpt><trkpt lat="43.7712905140661" lon="11.727311981486597"><ele>387.6666666666667</ele><time>2026-04-06T11:57:13.892Z</time></trkpt><trkpt lat="43.77137243766041" lon="11.727327670844948"><ele>388.33333333333337</ele><time>2026-04-06T11:57:16.892Z</time></trkpt><trkpt lat="43.77145739381371" lon="11.727348960482365"><ele>389.0</ele><time>2026-04-06T11:57:19.892Z</time></trkpt><trkpt lat="43.771554017281005" lon="11.72733981113517"><ele>389.6666666666667</ele><time>2026-04-06T11:57:22.892Z</time></trkpt><trkpt lat="43.77164635238609" lon="11.727306661979478"><ele>390.33333333333337</ele><time>2026-04-06T11:57:25.892Z</time></trkpt><trkpt lat="43.7717290455551" lon="11.727270038040832"><ele>391.0</ele><time>2026-04-06T11:57:28.892Z</time></trkpt><trkpt lat="43.77179156459959" lon="11.727236417741365"><ele>391.00000000000006</ele><time>2026-04-06T11:57:30.894Z</time></trkpt><trkpt lat="43.77185093800622" lon="11.727206503975559"><ele>391.0</ele><time>2026-04-06T11:57:32.895Z</time></trkpt><trkpt lat="43.77191193517025" lon="11.727177782102512"><ele>391.0</ele><time>2026-04-06T11:57:34.896Z</time></trkpt><trkpt lat="43.77199485118428" lon="11.727127038578605"><ele>391.0</ele><time>2026-04-06T11:57:37.897Z</time></trkpt><trkpt lat="43.7720698255317" lon="11.727080777503723"><ele>391.00000000000006</ele><time>2026-04-06T11:57:40.899Z</time></trkpt><trkpt lat="43.77215429444011" lon="11.727044464998013"><ele>391.0</ele><time>2026-04-06T11:57:43.899Z</time></trkpt><trkpt lat="43.77223254961423" lon="11.72702078840813"><ele>390.83333333333337</ele><time>2026-04-06T11:57:46.9Z</time></trkpt><trkpt lat="43.77231919558129" lon="11.727000984088267"><ele>390.6666666666667</ele><time>2026-04-06T11:57:49.901Z</time></trkpt><trkpt lat="43.77238899817175" lon="11.7269695766401"><ele>390.5</ele><time>2026-04-06T11:57:52.901Z</time></trkpt><trkpt lat="43.772467228249404" lon="11.726992903964884"><ele>390.33333333333337</ele><time>2026-04-06T11:57:56.902Z</time></trkpt><trkpt lat="43.77253071024998" lon="11.727071616853012"><ele>390.1666666666667</ele><time>2026-04-06T11:57:59.902Z</time></trkpt><trkpt lat="43.772621709590965" lon="11.72718328016892"><ele>390.0</ele><time>2026-04-06T11:58:03.903Z</time></trkpt><trkpt lat="43.77269709716737" lon="11.727266595230773"><ele>391.0</ele><time>2026-04-06T11:58:06.903Z</time></trkpt><trkpt lat="43.77275566816891" lon="11.727323373826591"><ele>392.0</ele><time>2026-04-06T11:58:08.903Z</time></trkpt><trkpt lat="43.77281227329237" lon="11.72737863850599"><ele>393.0</ele><time>2026-04-06T11:58:10.903Z</time></trkpt><trkpt lat="43.77286052297686" lon="11.72743609914635"><ele>394.0</ele><time>2026-04-06T11:58:12.903Z</time></trkpt><trkpt lat="43.77293452794127" lon="11.727505466643064"><ele>395.0</ele><time>2026-04-06T11:58:15.903Z</time></trkpt><trkpt lat="43.773031913351964" lon="11.72750324290285"><ele>396.0</ele><time>2026-04-06T11:58:18.901Z</time></trkpt><trkpt lat="43.773119985852105" lon="11.727454891059109"><ele>396.0</ele><time>2026-04-06T11:58:21.901Z</time></trkpt><trkpt lat="43.77318713493283" lon="11.727384668803122"><ele>396.0</ele><time>2026-04-06T11:58:24.9Z</time></trkpt><trkpt lat="43.7732496381227" lon="11.727314310643584"><ele>396.0</ele><time>2026-04-06T11:58:27.9Z</time></trkpt><trkpt lat="43.773318022864515" lon="11.727292266702273"><ele>396.0</ele><time>2026-04-06T11:58:30.9Z</time></trkpt><trkpt lat="43.77339291931278" lon="11.727263427479567"><ele>396.0</ele><time>2026-04-06T11:58:32.9Z</time></trkpt><trkpt lat="43.77347999345296" lon="11.727205260017726"><ele>396.0</ele><time>2026-04-06T11:58:34.9Z</time></trkpt><trkpt lat="43.77355668776548" lon="11.72714388451254"><ele>395.6666666666667</ele><time>2026-04-06T11:58:36.9Z</time></trkpt><trkpt lat="43.773619701361746" lon="11.72709738240026"><ele>395.33333333333337</ele><time>2026-04-06T11:58:38.901Z</time></trkpt><trkpt lat="43.77369348728233" lon="11.727035190628664"><ele>395.0</ele><time>2026-04-06T11:58:41.901Z</time></trkpt><trkpt lat="43.77374738677876" lon="11.72694438332014"><ele>394.6666666666667</ele><time>2026-04-06T11:58:44.901Z</time></trkpt><trkpt lat="43.773799244043005" lon="11.726874260395556"><ele>394.33333333333337</ele><time>2026-04-06T11:58:46.901Z</time></trkpt><trkpt lat="43.77386019100322" lon="11.726831629939694"><ele>394.0</ele><time>2026-04-06T11:58:48.901Z</time></trkpt><trkpt lat="43.77393046201486" lon="11.726793363773568"><ele>394.00000000000006</ele><time>2026-04-06T11:58:50.901Z</time></trkpt><trkpt lat="43.77398762044743" lon="11.726755059199752"><ele>394.0</ele><time>2026-04-06T11:58:52.901Z</time></trkpt><trkpt lat="43.774063869246994" lon="11.72670259803403"><ele>394.0</ele><time>2026-04-06T11:58:55.901Z</time></trkpt><trkpt lat="43.77412395535865" lon="11.72666890518926"><ele>394.0</ele><time>2026-04-06T11:58:57.901Z</time></trkpt><trkpt lat="43.774202007782314" lon="11.726600498502737"><ele>394.00000000000006</ele><time>2026-04-06T11:59:00.901Z</time></trkpt><trkpt lat="43.7742796148775" lon="11.726533708028871"><ele>394.0</ele><time>2026-04-06T11:59:03.901Z</time></trkpt><trkpt lat="43.774343854028565" lon="11.726486484212556"><ele>395.14285714285717</ele><time>2026-04-06T11:59:05.901Z</time></trkpt><trkpt lat="43.77440554432511" lon="11.72644757356034"><ele>396.28571428571433</ele><time>2026-04-06T11:59:07.901Z</time></trkpt><trkpt lat="43.774474011906435" lon="11.726412831365883"><ele>397.42857142857144</ele><time>2026-04-06T11:59:09.901Z</time></trkpt><trkpt lat="43.774543936662944" lon="11.72638015307144"><ele>398.57142857142856</ele><time>2026-04-06T11:59:11.901Z</time></trkpt><trkpt lat="43.77461541065082" lon="11.72635456449943"><ele>399.7142857142857</ele><time>2026-04-06T11:59:13.901Z</time></trkpt><trkpt lat="43.774686976113756" lon="11.72634159672552"><ele>400.85714285714283</ele><time>2026-04-06T11:59:15.901Z</time></trkpt><trkpt lat="43.774752496362886" lon="11.726302309951908"><ele>402.0</ele><time>2026-04-06T11:59:17.901Z</time></trkpt><trkpt lat="43.7748113255287" lon="11.726261046124977"><ele>402.0</ele><time>2026-04-06T11:59:19.901Z</time></trkpt><trkpt lat="43.774878373074436" lon="11.726193910920376"><ele>402.0</ele><time>2026-04-06T11:59:22.901Z</time></trkpt><trkpt lat="43.774936857971795" lon="11.726134098585431"><ele>402.0</ele><time>2026-04-06T11:59:24.901Z</time></trkpt><trkpt lat="43.774995234320734" lon="11.726073978303603"><ele>402.0</ele><time>2026-04-06T11:59:26.901Z</time></trkpt><trkpt lat="43.77505513678044" lon="11.726028866561059"><ele>402.0</ele><time>2026-04-06T11:59:28.901Z</time></trkpt><trkpt lat="43.77511389229929" lon="11.725981853272225"><ele>402.0</ele><time>2026-04-06T11:59:30.901Z</time></trkpt><trkpt lat="43.77517425385217" lon="11.725941235236236"><ele>402.0</ele><time>2026-04-06T11:59:32.901Z</time></trkpt><trkpt lat="43.775240768927404" lon="11.725896077835047"><ele>401.3333333333333</ele><time>2026-04-06T11:59:34.901Z</time></trkpt><trkpt lat="43.77531235087251" lon="11.725851339566676"><ele>400.66666666666663</ele><time>2026-04-06T11:59:36.901Z</time></trkpt><trkpt lat="43.77537851667502" lon="11.725794652603545"><ele>400.0</ele><time>2026-04-06T11:59:38.901Z</time></trkpt><trkpt lat="43.775447123311125" lon="11.725745752625334"><ele>399.3333333333333</ele><time>2026-04-06T11:59:40.901Z</time></trkpt><trkpt lat="43.77551160352463" lon="11.725691644131109"><ele>398.66666666666663</ele><time>2026-04-06T11:59:42.901Z</time></trkpt><trkpt lat="43.77557470670165" lon="11.725627057228538"><ele>398.0</ele><time>2026-04-06T11:59:44.901Z</time></trkpt><trkpt lat="43.77561646419056" lon="11.725552552931735"><ele>397.99999999999994</ele><time>2026-04-06T11:59:46.901Z</time></trkpt><trkpt lat="43.775659983129486" lon="11.725456431657715"><ele>398.0</ele><time>2026-04-06T11:59:49.901Z</time></trkpt><trkpt lat="43.77571651721147" lon="11.725412408117633"><ele>398.0</ele><time>2026-04-06T11:59:51.901Z</time></trkpt><trkpt lat="43.77577489423164" lon="11.725378798141351"><ele>398.0</ele><time>2026-04-06T11:59:53.901Z</time></trkpt><trkpt lat="43.77582972355868" lon="11.725324318985725"><ele>398.0</ele><time>2026-04-06T11:59:55.901Z</time></trkpt><trkpt lat="43.77590258755217" lon="11.72527767350479"><ele>397.99999999999994</ele><time>2026-04-06T11:59:57.901Z</time></trkpt><trkpt lat="43.775973402584356" lon="11.725228562777566"><ele>398.0</ele><time>2026-04-06T11:59:59.901Z</time></trkpt><trkpt lat="43.77604621373762" lon="11.725173570291268"><ele>398.49999999999994</ele><time>2026-04-06T12:00:01.901Z</time></trkpt><trkpt lat="43.776119798207844" lon="11.725121888381159"><ele>399.0</ele><time>2026-04-06T12:00:03.901Z</time></trkpt><trkpt lat="43.77619615813325" lon="11.725071250946629"><ele>399.5</ele><time>2026-04-06T12:00:05.901Z</time></trkpt><trkpt lat="43.77626227418102" lon="11.725021723542227"><ele>400.0</ele><time>2026-04-06T12:00:07.901Z</time></trkpt><trkpt lat="43.77632886961575" lon="11.72498033966787"><ele>400.49999999999994</ele><time>2026-04-06T12:00:09.901Z</time></trkpt><trkpt lat="43.776392286572495" lon="11.724923863901092"><ele>401.0</ele><time>2026-04-06T12:00:11.901Z</time></trkpt><trkpt lat="43.776470005388106" lon="11.724864253348153"><ele>401.0</ele><time>2026-04-06T12:00:13.901Z</time></trkpt><trkpt lat="43.77653990957271" lon="11.724811582100507"><ele>401.0</ele><time>2026-04-06T12:00:15.901Z</time></trkpt><trkpt lat="43.776608749309624" lon="11.724751520341114"><ele>401.0</ele><time>2026-04-06T12:00:17.901Z</time></trkpt><trkpt lat="43.77668690877387" lon="11.724667602572119"><ele>401.0</ele><time>2026-04-06T12:00:19.901Z</time></trkpt><trkpt lat="43.77675745982044" lon="11.724548022718436"><ele>401.0</ele><time>2026-04-06T12:00:21.901Z</time></trkpt><trkpt lat="43.77681507320892" lon="11.724445260257278"><ele>400.6</ele><time>2026-04-06T12:00:23.898Z</time></trkpt><trkpt lat="43.77687349553655" lon="11.724331123490552"><ele>400.20000000000005</ele><time>2026-04-06T12:00:25.898Z</time></trkpt><trkpt lat="43.77692610019084" lon="11.724225549599769"><ele>399.79999999999995</ele><time>2026-04-06T12:00:27.898Z</time></trkpt><trkpt lat="43.77699173113046" lon="11.724100057722575"><ele>399.4</ele><time>2026-04-06T12:00:29.898Z</time></trkpt><trkpt lat="43.7770693511979" lon="11.724010571060083"><ele>399.0</ele><time>2026-04-06T12:00:31.897Z</time></trkpt><trkpt lat="43.77712859211392" lon="11.723944274977425"><ele>399.0</ele><time>2026-04-06T12:00:33.897Z</time></trkpt><trkpt lat="43.777179028187206" lon="11.723884335570839"><ele>399.0</ele><time>2026-04-06T12:00:35.898Z</time></trkpt><trkpt lat="43.77722351191405" lon="11.723816109494358"><ele>399.0</ele><time>2026-04-06T12:00:37.898Z</time></trkpt><trkpt lat="43.77728528632018" lon="11.723714897167074"><ele>399.0</ele><time>2026-04-06T12:00:40.897Z</time></trkpt><trkpt lat="43.77734211745504" lon="11.72363699042627"><ele>399.0</ele><time>2026-04-06T12:00:42.897Z</time></trkpt><trkpt lat="43.77739760313537" lon="11.723560694532484"><ele>399.0</ele><time>2026-04-06T12:00:44.897Z</time></trkpt><trkpt lat="43.77745241366138" lon="11.723483933697654"><ele>399.14285714285717</ele><time>2026-04-06T12:00:46.897Z</time></trkpt><trkpt lat="43.77751296978188" lon="11.72341903941296"><ele>399.2857142857143</ele><time>2026-04-06T12:00:48.897Z</time></trkpt><trkpt lat="43.777570012579844" lon="11.723378572330283"><ele>399.42857142857144</ele><time>2026-04-06T12:00:50.897Z</time></trkpt><trkpt lat="43.77766757602119" lon="11.723414385102943"><ele>399.57142857142856</ele><time>2026-04-06T12:00:53.897Z</time></trkpt><trkpt lat="43.77774090022716" lon="11.72342807297242"><ele>399.7142857142857</ele><time>2026-04-06T12:00:55.897Z</time></trkpt><trkpt lat="43.777806726961224" lon="11.723421903169088"><ele>399.8571428571429</ele><time>2026-04-06T12:00:57.897Z</time></trkpt><trkpt lat="43.77787240016794" lon="11.72340285177236"><ele>400.0</ele><time>2026-04-06T12:00:59.897Z</time></trkpt><trkpt lat="43.77795159565579" lon="11.723366670353746"><ele>400.00000000000006</ele><time>2026-04-06T12:01:01.897Z</time></trkpt><trkpt lat="43.77801024910515" lon="11.723303517579795"><ele>400.0</ele><time>2026-04-06T12:01:03.897Z</time></trkpt><trkpt lat="43.778080907802455" lon="11.723241477559643"><ele>400.0</ele><time>2026-04-06T12:01:05.897Z</time></trkpt><trkpt lat="43.778146917916274" lon="11.723178938658604"><ele>400.0</ele><time>2026-04-06T12:01:07.898Z</time></trkpt><trkpt lat="43.77821758610539" lon="11.72310672351928"><ele>400.00000000000006</ele><time>2026-04-06T12:01:09.898Z</time></trkpt><trkpt lat="43.77828128253576" lon="11.72304345090646"><ele>400.0</ele><time>2026-04-06T12:01:11.898Z</time></trkpt><trkpt lat="43.77833939425839" lon="11.722977352254826"><ele>400.00000000000006</ele><time>2026-04-06T12:01:13.898Z</time></trkpt><trkpt lat="43.77839862403219" lon="11.722918627956624"><ele>400.0</ele><time>2026-04-06T12:01:15.898Z</time></trkpt><trkpt lat="43.77845380651753" lon="11.722858382626988"><ele>400.0</ele><time>2026-04-06T12:01:17.898Z</time></trkpt><trkpt lat="43.77851597754907" lon="11.722800372283272"><ele>400.0</ele><time>2026-04-06T12:01:19.898Z</time></trkpt><trkpt lat="43.77858743595192" lon="11.722725336648457"><ele>400.0</ele><time>2026-04-06T12:01:22.898Z</time></trkpt><trkpt lat="43.77863589734447" lon="11.722665122792824"><ele>400.00000000000006</ele><time>2026-04-06T12:01:24.898Z</time></trkpt><trkpt lat="43.778692353961" lon="11.722606706779738"><ele>400.0</ele><time>2026-04-06T12:01:26.898Z</time></trkpt><trkpt lat="43.77874166752301" lon="11.722550692079945"><ele>400.42857142857144</ele><time>2026-04-06T12:01:28.898Z</time></trkpt><trkpt lat="43.77880281565477" lon="11.722490308112508"><ele>400.8571428571429</ele><time>2026-04-06T12:01:30.898Z</time></trkpt><trkpt lat="43.77886726676319" lon="11.722433823152036"><ele>401.28571428571433</ele><time>2026-04-06T12:01:32.898Z</time></trkpt><trkpt lat="43.778931783432526" lon="11.722370223094037"><ele>401.7142857142857</ele><time>2026-04-06T12:01:34.898Z</time></trkpt><trkpt lat="43.7789833993614" lon="11.72230844687161"><ele>402.1428571428571</ele><time>2026-04-06T12:01:36.898Z</time></trkpt><trkpt lat="43.77903270485039" lon="11.72224588975645"><ele>402.5714285714286</ele><time>2026-04-06T12:01:38.898Z</time></trkpt><trkpt lat="43.77909516208949" lon="11.72218258545126"><ele>403.0</ele><time>2026-04-06T12:01:40.898Z</time></trkpt><trkpt lat="43.779164866236215" lon="11.722144139692094"><ele>403.0</ele><time>2026-04-06T12:01:42.898Z</time></trkpt><trkpt lat="43.77923165588175" lon="11.722129716583803"><ele>403.0</ele><time>2026-04-06T12:01:44.898Z</time></trkpt><trkpt lat="43.77929627132333" lon="11.722104359631425"><ele>403.0</ele><time>2026-04-06T12:01:46.898Z</time></trkpt><trkpt lat="43.779368762341065" lon="11.722076693921293"><ele>403.0</ele><time>2026-04-06T12:01:48.898Z</time></trkpt><trkpt lat="43.779435812894164" lon="11.7220519450714"><ele>403.0</ele><time>2026-04-06T12:01:50.898Z</time></trkpt><trkpt lat="43.77951438955454" lon="11.722033116911241"><ele>403.0</ele><time>2026-04-06T12:01:52.898Z</time></trkpt><trkpt lat="43.7795802673446" lon="11.7220184740716"><ele>403.0</ele><time>2026-04-06T12:01:54.898Z</time></trkpt><trkpt lat="43.77965450749882" lon="11.722008420527082"><ele>403.2857142857143</ele><time>2026-04-06T12:01:56.898Z</time></trkpt><trkpt lat="43.77971986068984" lon="11.721997081735385"><ele>403.57142857142856</ele><time>2026-04-06T12:01:58.898Z</time></trkpt><trkpt lat="43.7797912880108" lon="11.72198882796092"><ele>403.85714285714283</ele><time>2026-04-06T12:02:00.898Z</time></trkpt><trkpt lat="43.779862657982406" lon="11.721975657266784"><ele>404.1428571428571</ele><time>2026-04-06T12:02:02.898Z</time></trkpt><trkpt lat="43.779938507730634" lon="11.721964221848294"><ele>404.42857142857144</ele><time>2026-04-06T12:02:04.898Z</time></trkpt><trkpt lat="43.78001563759932" lon="11.721944098742178"><ele>404.71428571428567</ele><time>2026-04-06T12:02:06.898Z</time></trkpt><trkpt lat="43.78007859857391" lon="11.721940911143543"><ele>405.0</ele><time>2026-04-06T12:02:08.898Z</time></trkpt><trkpt lat="43.78014580279912" lon="11.721937721189592"><ele>405.0</ele><time>2026-04-06T12:02:10.898Z</time></trkpt><trkpt lat="43.780218628357" lon="11.721932390411544"><ele>405.0</ele><time>2026-04-06T12:02:12.898Z</time></trkpt><trkpt lat="43.78029677270493" lon="11.721922816846451"><ele>405.0</ele><time>2026-04-06T12:02:14.898Z</time></trkpt><trkpt lat="43.78037881881845" lon="11.72191263427265"><ele>405.0</ele><time>2026-04-06T12:02:16.898Z</time></trkpt><trkpt lat="43.780453537784744" lon="11.721911347348303"><ele>405.0</ele><time>2026-04-06T12:02:18.898Z</time></trkpt><trkpt lat="43.78053231981397" lon="11.721891793307012"><ele>405.0</ele><time>2026-04-06T12:02:20.898Z</time></trkpt><trkpt lat="43.78060543887581" lon="11.721868245755987"><ele>404.5</ele><time>2026-04-06T12:02:22.898Z</time></trkpt><trkpt lat="43.78068361863673" lon="11.721846088332104"><ele>404.0</ele><time>2026-04-06T12:02:24.898Z</time></trkpt><trkpt lat="43.78076872292827" lon="11.721824424254693"><ele>403.5</ele><time>2026-04-06T12:02:26.898Z</time></trkpt><trkpt lat="43.780846092011146" lon="11.72182056479097"><ele>403.0</ele><time>2026-04-06T12:02:28.895Z</time></trkpt><trkpt lat="43.78092646823658" lon="11.721810257308107"><ele>402.5</ele><time>2026-04-06T12:02:30.895Z</time></trkpt><trkpt lat="43.780998606714874" lon="11.72180095320677"><ele>402.0</ele><time>2026-04-06T12:02:32.895Z</time></trkpt><trkpt lat="43.78106602054622" lon="11.721789670253088"><ele>402.0</ele><time>2026-04-06T12:02:34.895Z</time></trkpt><trkpt lat="43.7811350982937" lon="11.721779780996592"><ele>402.0</ele><time>2026-04-06T12:02:36.894Z</time></trkpt><trkpt lat="43.78120499282516" lon="11.721777987212226"><ele>402.0</ele><time>2026-04-06T12:02:38.895Z</time></trkpt><trkpt lat="43.78127163632804" lon="11.721769158611005"><ele>402.0</ele><time>2026-04-06T12:02:40.895Z</time></trkpt><trkpt lat="43.781347864188156" lon="11.721753525386946"><ele>402.0</ele><time>2026-04-06T12:02:42.895Z</time></trkpt><trkpt lat="43.78142907597591" lon="11.721741144874658"><ele>402.0</ele><time>2026-04-06T12:02:44.895Z</time></trkpt><trkpt lat="43.78150794355257" lon="11.721723285684051"><ele>402.0</ele><time>2026-04-06T12:02:46.894Z</time></trkpt><trkpt lat="43.78158929008148" lon="11.721709872196955"><ele>402.0</ele><time>2026-04-06T12:02:48.894Z</time></trkpt><trkpt lat="43.781675503769996" lon="11.721702267215706"><ele>402.0</ele><time>2026-04-06T12:02:50.894Z</time></trkpt><trkpt lat="43.78175152615708" lon="11.721696978258622"><ele>402.0</ele><time>2026-04-06T12:02:52.894Z</time></trkpt><trkpt lat="43.7818326241582" lon="11.72168940895373"><ele>402.0</ele><time>2026-04-06T12:02:54.894Z</time></trkpt><trkpt lat="43.781916991897866" lon="11.721679650260878"><ele>402.0</ele><time>2026-04-06T12:02:56.894Z</time></trkpt><trkpt lat="43.78198678136453" lon="11.721654180814499"><ele>402.0</ele><time>2026-04-06T12:02:58.894Z</time></trkpt><trkpt lat="43.78205677549577" lon="11.721614398672555"><ele>402.3333333333333</ele><time>2026-04-06T12:03:00.894Z</time></trkpt><trkpt lat="43.782148602358006" lon="11.721577872703655"><ele>402.66666666666663</ele><time>2026-04-06T12:03:03.894Z</time></trkpt><trkpt lat="43.782222800999065" lon="11.721548829540875"><ele>403.0</ele><time>2026-04-06T12:03:05.894Z</time></trkpt><trkpt lat="43.782321162255265" lon="11.721526287412525"><ele>403.3333333333333</ele><time>2026-04-06T12:03:07.894Z</time></trkpt><trkpt lat="43.78240716835054" lon="11.721496697531125"><ele>403.66666666666663</ele><time>2026-04-06T12:03:09.894Z</time></trkpt><trkpt lat="43.78248481130381" lon="11.721457787122107"><ele>404.0</ele><time>2026-04-06T12:03:11.894Z</time></trkpt><trkpt lat="43.78255488430457" lon="11.721416699767921"><ele>404.0</ele><time>2026-04-06T12:03:13.894Z</time></trkpt><trkpt lat="43.782619487374916" lon="11.72137018799065"><ele>404.0</ele><time>2026-04-06T12:03:15.894Z</time></trkpt><trkpt lat="43.782687913435616" lon="11.721317547289633"><ele>404.0</ele><time>2026-04-06T12:03:17.894Z</time></trkpt><trkpt lat="43.78275383587446" lon="11.721259962873425"><ele>404.0</ele><time>2026-04-06T12:03:19.894Z</time></trkpt><trkpt lat="43.78282174520495" lon="11.72120781774176"><ele>404.0</ele><time>2026-04-06T12:03:21.894Z</time></trkpt><trkpt lat="43.782883606595135" lon="11.721167928973385"><ele>404.0</ele><time>2026-04-06T12:03:23.895Z</time></trkpt><trkpt lat="43.78294660262516" lon="11.721119411597316"><ele>404.0</ele><time>2026-04-06T12:03:25.895Z</time></trkpt><trkpt lat="43.78301666753313" lon="11.721072226698775"><ele>404.3333333333333</ele><time>2026-04-06T12:03:27.895Z</time></trkpt><trkpt lat="43.783075274057076" lon="11.72102077915773"><ele>404.66666666666663</ele><time>2026-04-06T12:03:29.895Z</time></trkpt><trkpt lat="43.783143659159045" lon="11.720964931148757"><ele>405.0</ele><time>2026-04-06T12:03:31.895Z</time></trkpt><trkpt lat="43.78320693235968" lon="11.720901858570342"><ele>405.33333333333337</ele><time>2026-04-06T12:03:33.895Z</time></trkpt><trkpt lat="43.78326309925668" lon="11.720843578581276"><ele>405.6666666666667</ele><time>2026-04-06T12:03:35.895Z</time></trkpt><trkpt lat="43.783332881306414" lon="11.72080829131891"><ele>406.0</ele><time>2026-04-06T12:03:37.895Z</time></trkpt><trkpt lat="43.78341494621219" lon="11.720772400738284"><ele>406.00000000000006</ele><time>2026-04-06T12:03:39.895Z</time></trkpt><trkpt lat="43.783486020049885" lon="11.720718108122274"><ele>406.0</ele><time>2026-04-06T12:03:41.895Z</time></trkpt><trkpt lat="43.78356146437919" lon="11.72066980668876"><ele>406.0</ele><time>2026-04-06T12:03:43.895Z</time></trkpt><trkpt lat="43.78363237524591" lon="11.720616958793945"><ele>406.0</ele><time>2026-04-06T12:03:45.895Z</time></trkpt><trkpt lat="43.783708810313904" lon="11.720562279058063"><ele>406.00000000000006</ele><time>2026-04-06T12:03:47.895Z</time></trkpt><trkpt lat="43.783786658101576" lon="11.720508422890427"><ele>406.0</ele><time>2026-04-06T12:03:49.895Z</time></trkpt><trkpt lat="43.78386252423063" lon="11.720450220917018"><ele>406.2857142857143</ele><time>2026-04-06T12:03:51.895Z</time></trkpt><trkpt lat="43.78392694327338" lon="11.720433694014494"><ele>406.57142857142856</ele><time>2026-04-06T12:03:53.895Z</time></trkpt><trkpt lat="43.78400327379754" lon="11.720395543468042"><ele>406.8571428571429</ele><time>2026-04-06T12:03:56.895Z</time></trkpt><trkpt lat="43.784082187762614" lon="11.72037811283595"><ele>407.1428571428571</ele><time>2026-04-06T12:04:00.895Z</time></trkpt><trkpt lat="43.78415012065475" lon="11.720353073655291"><ele>407.42857142857144</ele><time>2026-04-06T12:04:03.895Z</time></trkpt><trkpt lat="43.78421136817059" lon="11.720329465179239"><ele>407.7142857142857</ele><time>2026-04-06T12:04:06.895Z</time></trkpt><trkpt lat="43.784274574053846" lon="11.720301159614644"><ele>408.0</ele><time>2026-04-06T12:04:09.895Z</time></trkpt><trkpt lat="43.78433619051021" lon="11.720275054344576"><ele>408.3333333333333</ele><time>2026-04-06T12:04:13.895Z</time></trkpt><trkpt lat="43.78441259991396" lon="11.720260204754993"><ele>408.66666666666663</ele><time>2026-04-06T12:04:17.895Z</time></trkpt><trkpt lat="43.78448901229498" lon="11.720245507827876"><ele>409.0</ele><time>2026-04-06T12:04:21.895Z</time></trkpt><trkpt lat="43.784566358454235" lon="11.72022658635888"><ele>409.3333333333333</ele><time>2026-04-06T12:04:25.895Z</time></trkpt><trkpt lat="43.784678485671044" lon="11.720196107849159"><ele>409.66666666666663</ele><time>2026-04-06T12:04:30.895Z</time></trkpt><trkpt lat="43.78476029218623" lon="11.72017166225469"><ele>410.0</ele><time>2026-04-06T12:04:33.895Z</time></trkpt><trkpt lat="43.78482150753192" lon="11.720140896778258"><ele>410.2</ele><time>2026-04-06T12:04:36.893Z</time></trkpt><trkpt lat="43.78489777747289" lon="11.720108616140635"><ele>410.4</ele><time>2026-04-06T12:04:40.893Z</time></trkpt><trkpt lat="43.7849686033082" lon="11.720078365900575"><ele>410.6</ele><time>2026-04-06T12:04:44.892Z</time></trkpt><trkpt lat="43.7850974478518" lon="11.720025151525041"><ele>410.8</ele><time>2026-04-06T12:04:50.892Z</time></trkpt><trkpt lat="43.78517418245108" lon="11.720000491647166"><ele>411.0</ele><time>2026-04-06T12:04:54.892Z</time></trkpt><trkpt lat="43.78525987976526" lon="11.719981318264006"><ele>411.0</ele><time>2026-04-06T12:04:57.892Z</time></trkpt><trkpt lat="43.785322380166214" lon="11.719952604337013"><ele>411.0</ele><time>2026-04-06T12:04:59.892Z</time></trkpt><trkpt lat="43.78540585535349" lon="11.71992283179835"><ele>411.0</ele><time>2026-04-06T12:05:02.892Z</time></trkpt><trkpt lat="43.785489926215" lon="11.719917923418551"><ele>411.0</ele><time>2026-04-06T12:05:06.892Z</time></trkpt><trkpt lat="43.78555317838399" lon="11.71990265981897"><ele>411.0</ele><time>2026-04-06T12:05:09.892Z</time></trkpt><trkpt lat="43.78564085969901" lon="11.719893175760726"><ele>411.0</ele><time>2026-04-06T12:05:13.892Z</time></trkpt><trkpt lat="43.785729683061106" lon="11.719883666329638"><ele>411.0</ele><time>2026-04-06T12:05:16.892Z</time></trkpt><trkpt lat="43.785813592005795" lon="11.719870583658478"><ele>411.0</ele><time>2026-04-06T12:05:19.892Z</time></trkpt><trkpt lat="43.78587811701845" lon="11.719844849795136"><ele>411.0</ele><time>2026-04-06T12:05:21.892Z</time></trkpt><trkpt lat="43.78594211319935" lon="11.719828288164209"><ele>411.0</ele><time>2026-04-06T12:05:23.892Z</time></trkpt><trkpt lat="43.78599910890128" lon="11.719785124655138"><ele>411.0</ele><time>2026-04-06T12:05:25.892Z</time></trkpt><trkpt lat="43.78605812512424" lon="11.719730252503803"><ele>411.0</ele><time>2026-04-06T12:05:27.892Z</time></trkpt><trkpt lat="43.78613405909917" lon="11.719678943960492"><ele>411.0</ele><time>2026-04-06T12:05:30.892Z</time></trkpt><trkpt lat="43.78622557893842" lon="11.719653693581158"><ele>411.5</ele><time>2026-04-06T12:05:33.892Z</time></trkpt><trkpt lat="43.78630613789709" lon="11.71960981527529"><ele>412.0</ele><time>2026-04-06T12:05:36.892Z</time></trkpt><trkpt lat="43.786367612201026" lon="11.719579279315138"><ele>412.5</ele><time>2026-04-06T12:05:38.892Z</time></trkpt><trkpt lat="43.78642590665948" lon="11.719541142492576"><ele>413.0</ele><time>2026-04-06T12:05:40.892Z</time></trkpt><trkpt lat="43.78647967864393" lon="11.719485096639081"><ele>413.5</ele><time>2026-04-06T12:05:43.893Z</time></trkpt><trkpt lat="43.78664063580619" lon="11.719504199102438"><ele>414.0</ele><time>2026-04-06T12:05:54.893Z</time></trkpt><trkpt lat="43.786680564195684" lon="11.719578635920511"><ele>414.00000000000006</ele><time>2026-04-06T12:06:04.893Z</time></trkpt><trkpt lat="43.78675025914306" lon="11.719588172769809"><ele>414.0</ele><time>2026-04-06T12:06:07.893Z</time></trkpt><trkpt lat="43.786814069198" lon="11.719563242293292"><ele>414.0</ele><time>2026-04-06T12:06:09.893Z</time></trkpt><trkpt lat="43.78687835536841" lon="11.71951798483477"><ele>414.0</ele><time>2026-04-06T12:06:11.893Z</time></trkpt><trkpt lat="43.78694756893904" lon="11.719478871835165"><ele>414.0</ele><time>2026-04-06T12:06:13.893Z</time></trkpt><trkpt lat="43.787021599447534" lon="11.71945333228324"><ele>414.00000000000006</ele><time>2026-04-06T12:06:15.893Z</time></trkpt><trkpt lat="43.787109715436245" lon="11.719430568054136"><ele>414.0</ele><time>2026-04-06T12:06:18.893Z</time></trkpt><trkpt lat="43.787187508916524" lon="11.719396081197583"><ele>413.8333333333333</ele><time>2026-04-06T12:06:21.893Z</time></trkpt><trkpt lat="43.787270011063676" lon="11.719363888072985"><ele>413.66666666666663</ele><time>2026-04-06T12:06:24.893Z</time></trkpt><trkpt lat="43.7873409115366" lon="11.719357769520938"><ele>413.5</ele><time>2026-04-06T12:06:26.893Z</time></trkpt><trkpt lat="43.787416258204324" lon="11.719323682401956"><ele>413.3333333333333</ele><time>2026-04-06T12:06:29.893Z</time></trkpt><trkpt lat="43.787484480909605" lon="11.719299461646516"><ele>413.16666666666663</ele><time>2026-04-06T12:06:31.893Z</time></trkpt><trkpt lat="43.78754676444727" lon="11.719272337188809"><ele>413.0</ele><time>2026-04-06T12:06:33.893Z</time></trkpt><trkpt lat="43.78763082327419" lon="11.719242398085166"><ele>413.7142857142857</ele><time>2026-04-06T12:06:36.893Z</time></trkpt><trkpt lat="43.78769814355559" lon="11.719231249184789"><ele>414.42857142857144</ele><time>2026-04-06T12:06:40.89Z</time></trkpt><trkpt lat="43.78777172258093" lon="11.71921477339332"><ele>415.1428571428571</ele><time>2026-04-06T12:06:45.89Z</time></trkpt><trkpt lat="43.78777889409597" lon="11.719126010762643"><ele>415.8571428571429</ele><time>2026-04-06T12:06:48.89Z</time></trkpt><trkpt lat="43.78777202686972" lon="11.718995213841366"><ele>416.57142857142856</ele><time>2026-04-06T12:06:51.89Z</time></trkpt><trkpt lat="43.787763603497964" lon="11.718906823605776"><ele>417.2857142857143</ele><time>2026-04-06T12:06:54.889Z</time></trkpt><trkpt lat="43.78780618442221" lon="11.71882291957311"><ele>418.0</ele><time>2026-04-06T12:06:58.89Z</time></trkpt><trkpt lat="43.78787070066457" lon="11.71880647366415"><ele>418.00000000000006</ele><time>2026-04-06T12:07:02.89Z</time></trkpt><trkpt lat="43.78794281798054" lon="11.7187792401152"><ele>418.0</ele><time>2026-04-06T12:07:05.89Z</time></trkpt><trkpt lat="43.7880126375238" lon="11.718802018585935"><ele>418.0</ele><time>2026-04-06T12:07:29.89Z</time></trkpt><trkpt lat="43.78808704701319" lon="11.718831572301363"><ele>418.0</ele><time>2026-04-06T12:07:33.89Z</time></trkpt><trkpt lat="43.78816294234149" lon="11.71882624257856"><ele>418.00000000000006</ele><time>2026-04-06T12:07:35.89Z</time></trkpt><trkpt lat="43.78824947665566" lon="11.718811607163843"><ele>418.0</ele><time>2026-04-06T12:07:38.89Z</time></trkpt><trkpt lat="43.78833150481532" lon="11.71880560353288"><ele>418.00000000000006</ele><time>2026-04-06T12:07:41.89Z</time></trkpt><trkpt lat="43.7884004226143" lon="11.718795966392033"><ele>418.0</ele><time>2026-04-06T12:07:44.89Z</time></trkpt><trkpt lat="43.78849306358246" lon="11.718789103918583"><ele>418.0</ele><time>2026-04-06T12:07:47.89Z</time></trkpt><trkpt lat="43.78859557050154" lon="11.718790977821277"><ele>418.0</ele><time>2026-04-06T12:07:50.89Z</time></trkpt><trkpt lat="43.78868228945012" lon="11.718802197523088"><ele>418.00000000000006</ele><time>2026-04-06T12:07:52.89Z</time></trkpt><trkpt lat="43.78877420950326" lon="11.718764050685015"><ele>418.0</ele><time>2026-04-06T12:07:55.89Z</time></trkpt><trkpt lat="43.78887610349597" lon="11.718746648515818"><ele>417.59999999999997</ele><time>2026-04-06T12:07:57.89Z</time></trkpt><trkpt lat="43.788978682002934" lon="11.718733746376333"><ele>417.2</ele><time>2026-04-06T12:07:59.89Z</time></trkpt><trkpt lat="43.78907549873042" lon="11.71876509400472"><ele>416.8</ele><time>2026-04-06T12:08:01.89Z</time></trkpt><trkpt lat="43.789110008115046" lon="11.718841880041447"><ele>416.4</ele><time>2026-04-06T12:08:02.89Z</time></trkpt><trkpt lat="43.789188958361116" lon="11.718926444645549"><ele>416.0</ele><time>2026-04-06T12:08:04.89Z</time></trkpt><trkpt lat="43.789284954076024" lon="11.718971488909203"><ele>416.49999999999994</ele><time>2026-04-06T12:08:06.89Z</time></trkpt><trkpt lat="43.78937709029289" lon="11.718996223463856"><ele>417.0</ele><time>2026-04-06T12:08:08.89Z</time></trkpt><trkpt lat="43.78947507053744" lon="11.718985834440227"><ele>417.5</ele><time>2026-04-06T12:08:11.89Z</time></trkpt><trkpt lat="43.78955583430098" lon="11.718958355590994"><ele>418.0</ele><time>2026-04-06T12:08:14.89Z</time></trkpt><trkpt lat="43.78964005521819" lon="11.718943884953335"><ele>418.49999999999994</ele><time>2026-04-06T12:08:17.89Z</time></trkpt><trkpt lat="43.789706267375884" lon="11.718914804251837"><ele>419.0</ele><time>2026-04-06T12:08:20.89Z</time></trkpt><trkpt lat="43.78979446561729" lon="11.71890608451341"><ele>418.99999999999994</ele><time>2026-04-06T12:08:23.89Z</time></trkpt><trkpt lat="43.789866298123314" lon="11.718890929718057"><ele>419.0</ele><time>2026-04-06T12:08:26.89Z</time></trkpt><trkpt lat="43.78994703040268" lon="11.718882683782375"><ele>419.0</ele><time>2026-04-06T12:08:29.89Z</time></trkpt><trkpt lat="43.79001278401827" lon="11.718873043184693"><ele>419.0</ele><time>2026-04-06T12:08:32.89Z</time></trkpt><trkpt lat="43.790085116377504" lon="11.718869031516537"><ele>418.99999999999994</ele><time>2026-04-06T12:08:35.89Z</time></trkpt><trkpt lat="43.790131451983626" lon="11.7189735794267"><ele>419.0</ele><time>2026-04-06T12:08:38.89Z</time></trkpt><trkpt lat="43.79017068054267" lon="11.719077656774909"><ele>419.66666666666663</ele><time>2026-04-06T12:08:41.89Z</time></trkpt><trkpt lat="43.790234093321516" lon="11.719181675749475"><ele>420.3333333333333</ele><time>2026-04-06T12:08:44.89Z</time></trkpt><trkpt lat="43.79027037360576" lon="11.719255936900396"><ele>421.0</ele><time>2026-04-06T12:08:46.887Z</time></trkpt><trkpt lat="43.790333910398076" lon="11.71934123578907"><ele>421.66666666666663</ele><time>2026-04-06T12:08:49.887Z</time></trkpt><trkpt lat="43.79038338131418" lon="11.719447336978757"><ele>422.3333333333333</ele><time>2026-04-06T12:08:52.887Z</time></trkpt><trkpt lat="43.79042407903768" lon="11.719515669226649"><ele>423.0</ele><time>2026-04-06T12:08:54.888Z</time></trkpt><trkpt lat="43.79046690935439" lon="11.719614916279815"><ele>423.57142857142856</ele><time>2026-04-06T12:08:57.887Z</time></trkpt><trkpt lat="43.79050592355491" lon="11.719704937540195"><ele>424.14285714285717</ele><time>2026-04-06T12:09:00.888Z</time></trkpt><trkpt lat="43.79054732659123" lon="11.719791843076486"><ele>424.7142857142857</ele><time>2026-04-06T12:09:03.887Z</time></trkpt><trkpt lat="43.79058002516761" lon="11.719868264494016"><ele>425.2857142857143</ele><time>2026-04-06T12:09:06.886Z</time></trkpt><trkpt lat="43.79066221345926" lon="11.719883775561916"><ele>425.8571428571429</ele><time>2026-04-06T12:09:13.886Z</time></trkpt><trkpt lat="43.79072458957217" lon="11.719828746833498"><ele>426.42857142857144</ele><time>2026-04-06T12:09:17.886Z</time></trkpt><trkpt lat="43.7907819808164" lon="11.71977517938448"><ele>427.0</ele><time>2026-04-06T12:09:21.886Z</time></trkpt><trkpt lat="43.79084420370519" lon="11.719717775750642"><ele>427.0</ele><time>2026-04-06T12:09:25.886Z</time></trkpt><trkpt lat="43.79090451580606" lon="11.719667398514098"><ele>427.0</ele><time>2026-04-06T12:09:29.886Z</time></trkpt><trkpt lat="43.79093950934894" lon="11.71959097471586"><ele>427.0</ele><time>2026-04-06T12:09:33.886Z</time></trkpt><trkpt lat="43.79099172069374" lon="11.71950123591878"><ele>427.0</ele><time>2026-04-06T12:09:38.886Z</time></trkpt><trkpt lat="43.79104052707625" lon="11.719444497590358"><ele>427.0</ele><time>2026-04-06T12:09:41.886Z</time></trkpt><trkpt lat="43.791097495706595" lon="11.719365950670749"><ele>427.0</ele><time>2026-04-06T12:09:45.886Z</time></trkpt><trkpt lat="43.791156349171715" lon="11.7192879410153"><ele>427.0</ele><time>2026-04-06T12:09:49.886Z</time></trkpt><trkpt lat="43.79121590811788" lon="11.71920694150996"><ele>427.00000000000006</ele><time>2026-04-06T12:09:52.886Z</time></trkpt><trkpt lat="43.791272336786655" lon="11.719140893550685"><ele>427.0</ele><time>2026-04-06T12:09:55.887Z</time></trkpt><trkpt lat="43.79134716759547" lon="11.719058614212708"><ele>427.0</ele><time>2026-04-06T12:09:58.887Z</time></trkpt><trkpt lat="43.791413406003706" lon="11.718981156875342"><ele>427.0</ele><time>2026-04-06T12:10:01.887Z</time></trkpt><trkpt lat="43.79148594720399" lon="11.718914188426064"><ele>427.00000000000006</ele><time>2026-04-06T12:10:04.887Z</time></trkpt><trkpt lat="43.79156032261633" lon="11.71883573917782"><ele>427.0</ele><time>2026-04-06T12:10:07.887Z</time></trkpt><trkpt lat="43.791613594375356" lon="11.71878585403809"><ele>427.0</ele><time>2026-04-06T12:10:09.887Z</time></trkpt><trkpt lat="43.79166598721772" lon="11.718732891142034"><ele>427.0</ele><time>2026-04-06T12:10:11.887Z</time></trkpt><trkpt lat="43.79172781927477" lon="11.718670707584788"><ele>427.0</ele><time>2026-04-06T12:10:13.887Z</time></trkpt><trkpt lat="43.79178251841161" lon="11.718607725766343"><ele>427.0</ele><time>2026-04-06T12:10:15.887Z</time></trkpt><trkpt lat="43.791839580575996" lon="11.718542840310528"><ele>427.0</ele><time>2026-04-06T12:10:17.887Z</time></trkpt><trkpt lat="43.79189101624287" lon="11.718485707596766"><ele>427.0</ele><time>2026-04-06T12:10:19.887Z</time></trkpt><trkpt lat="43.791948025053536" lon="11.718434551204123"><ele>427.0</ele><time>2026-04-06T12:10:21.887Z</time></trkpt><trkpt lat="43.79202119296677" lon="11.718355862737006"><ele>427.00000000000006</ele><time>2026-04-06T12:10:24.887Z</time></trkpt><trkpt lat="43.79209069425651" lon="11.718286573783907"><ele>427.0</ele><time>2026-04-06T12:10:27.887Z</time></trkpt><trkpt lat="43.79215812231344" lon="11.71821171602506"><ele>427.0</ele><time>2026-04-06T12:10:32.887Z</time></trkpt><trkpt lat="43.79222836318981" lon="11.718140687113717"><ele>427.0</ele><time>2026-04-06T12:10:35.887Z</time></trkpt><trkpt lat="43.792299698390394" lon="11.71806588652262"><ele>427.00000000000006</ele><time>2026-04-06T12:10:38.887Z</time></trkpt><trkpt lat="43.79236878345653" lon="11.717987042794235"><ele>427.0</ele><time>2026-04-06T12:10:41.887Z</time></trkpt><trkpt lat="43.7924400918214" lon="11.717905550371507"><ele>427.00000000000006</ele><time>2026-04-06T12:10:44.887Z</time></trkpt><trkpt lat="43.792513610549264" lon="11.717829787919722"><ele>427.0</ele><time>2026-04-06T12:10:47.887Z</time></trkpt><trkpt lat="43.792585531277155" lon="11.717744181695586"><ele>427.0</ele><time>2026-04-06T12:10:50.887Z</time></trkpt><trkpt lat="43.79263556398134" lon="11.717686202183874"><ele>427.0</ele><time>2026-04-06T12:10:52.885Z</time></trkpt><trkpt lat="43.792690528179016" lon="11.717634893284929"><ele>427.00000000000006</ele><time>2026-04-06T12:10:54.885Z</time></trkpt><trkpt lat="43.79276172739664" lon="11.717562666942216"><ele>427.0</ele><time>2026-04-06T12:10:57.885Z</time></trkpt><trkpt lat="43.79282610942498" lon="11.717485611704364"><ele>428.0</ele><time>2026-04-06T12:11:00.885Z</time></trkpt><trkpt lat="43.79287519659006" lon="11.717427726780965"><ele>429.0</ele><time>2026-04-06T12:11:02.885Z</time></trkpt><trkpt lat="43.792926684346206" lon="11.717372404942552"><ele>430.0</ele><time>2026-04-06T12:11:04.885Z</time></trkpt><trkpt lat="43.79297967759027" lon="11.717318307387178"><ele>431.0</ele><time>2026-04-06T12:11:06.884Z</time></trkpt><trkpt lat="43.7930472976376" lon="11.717245272891036"><ele>432.0</ele><time>2026-04-06T12:11:09.885Z</time></trkpt><trkpt lat="43.793092126794875" lon="11.717159406019933"><ele>433.0</ele><time>2026-04-06T12:11:13.885Z</time></trkpt><trkpt lat="43.79315633751977" lon="11.71709060473782"><ele>434.0</ele><time>2026-04-06T12:11:16.885Z</time></trkpt><trkpt lat="43.79320269861502" lon="11.717007308370215"><ele>433.99999999999994</ele><time>2026-04-06T12:11:19.885Z</time></trkpt><trkpt lat="43.79314179923978" lon="11.716929182377749"><ele>434.0</ele><time>2026-04-06T12:11:23.885Z</time></trkpt><trkpt lat="43.793057906398985" lon="11.716862373424085"><ele>434.0</ele><time>2026-04-06T12:11:31.885Z</time></trkpt><trkpt lat="43.79300727669656" lon="11.716790227341718"><ele>434.0</ele><time>2026-04-06T12:11:34.885Z</time></trkpt><trkpt lat="43.792960923543106" lon="11.716705269714371"><ele>433.99999999999994</ele><time>2026-04-06T12:11:37.885Z</time></trkpt><trkpt lat="43.792928763723616" lon="11.716625220576848"><ele>434.0</ele><time>2026-04-06T12:11:40.885Z</time></trkpt><trkpt lat="43.79287612489439" lon="11.716555663726895"><ele>433.16666666666663</ele><time>2026-04-06T12:11:42.885Z</time></trkpt><trkpt lat="43.792816174083505" lon="11.716471605405104"><ele>432.3333333333333</ele><time>2026-04-06T12:11:45.885Z</time></trkpt><trkpt lat="43.792798661205104" lon="11.716359922321217"><ele>431.5</ele><time>2026-04-06T12:11:48.885Z</time></trkpt><trkpt lat="43.79284756143539" lon="11.716269346478844"><ele>430.66666666666663</ele><time>2026-04-06T12:11:50.885Z</time></trkpt><trkpt lat="43.79288860008092" lon="11.71619637196858"><ele>429.8333333333333</ele><time>2026-04-06T12:11:52.885Z</time></trkpt><trkpt lat="43.792888247742276" lon="11.716090313017437"><ele>429.0</ele><time>2026-04-06T12:11:54.885Z</time></trkpt><trkpt lat="43.79288227373201" lon="11.715997933218839"><ele>429.0</ele><time>2026-04-06T12:11:56.885Z</time></trkpt><trkpt lat="43.79285866521351" lon="11.715897840393446"><ele>429.0</ele><time>2026-04-06T12:11:59.885Z</time></trkpt><trkpt lat="43.7928743369722" lon="11.715803957934856"><ele>429.0</ele><time>2026-04-06T12:12:01.885Z</time></trkpt><trkpt lat="43.79292975423639" lon="11.715710586147798"><ele>429.0</ele><time>2026-04-06T12:12:03.885Z</time></trkpt><trkpt lat="43.7929783899354" lon="11.715639811785435"><ele>429.0</ele><time>2026-04-06T12:12:05.885Z</time></trkpt><trkpt lat="43.793017640960656" lon="11.715570808080923"><ele>429.0</ele><time>2026-04-06T12:12:07.885Z</time></trkpt><trkpt lat="43.79307661528783" lon="11.715469817627302"><ele>429.0</ele><time>2026-04-06T12:12:10.885Z</time></trkpt><trkpt lat="43.793147191051176" lon="11.715383059019372"><ele>429.0</ele><time>2026-04-06T12:12:13.885Z</time></trkpt><trkpt lat="43.79320587027309" lon="11.715314450445575"><ele>429.0</ele><time>2026-04-06T12:12:15.885Z</time></trkpt><trkpt lat="43.793264271934035" lon="11.715249133049236"><ele>429.0</ele><time>2026-04-06T12:12:17.885Z</time></trkpt><trkpt lat="43.793318729787984" lon="11.71518299898758"><ele>429.0</ele><time>2026-04-06T12:12:19.885Z</time></trkpt><trkpt lat="43.79337720731558" lon="11.715116303519885"><ele>429.0</ele><time>2026-04-06T12:12:21.885Z</time></trkpt><trkpt lat="43.793432930456206" lon="11.7150505779451"><ele>429.0</ele><time>2026-04-06T12:12:23.885Z</time></trkpt><trkpt lat="43.79348498480815" lon="11.714984520922496"><ele>429.0</ele><time>2026-04-06T12:12:25.885Z</time></trkpt><trkpt lat="43.793541683246026" lon="11.71491997209567"><ele>429.0</ele><time>2026-04-06T12:12:27.885Z</time></trkpt><trkpt lat="43.7935917485998" lon="11.714861173385616"><ele>429.0</ele><time>2026-04-06T12:12:29.885Z</time></trkpt><trkpt lat="43.79364208715787" lon="11.71479093846333"><ele>429.0</ele><time>2026-04-06T12:12:31.885Z</time></trkpt><trkpt lat="43.79369878767995" lon="11.714731973378544"><ele>429.0</ele><time>2026-04-06T12:12:33.885Z</time></trkpt><trkpt lat="43.79376676867082" lon="11.714695984734771"><ele>429.0</ele><time>2026-04-06T12:12:35.885Z</time></trkpt><trkpt lat="43.79383238635128" lon="11.714736373529599"><ele>429.3333333333333</ele><time>2026-04-06T12:12:37.885Z</time></trkpt><trkpt lat="43.793879451973226" lon="11.714833160247212"><ele>429.66666666666663</ele><time>2026-04-06T12:12:39.885Z</time></trkpt><trkpt lat="43.79393330868625" lon="11.714908359159951"><ele>430.0</ele><time>2026-04-06T12:12:41.885Z</time></trkpt><trkpt lat="43.79398836740772" lon="11.715004523509439"><ele>430.3333333333333</ele><time>2026-04-06T12:12:44.885Z</time></trkpt><trkpt lat="43.79405471939002" lon="11.715004648558002"><ele>430.66666666666663</ele><time>2026-04-06T12:12:47.885Z</time></trkpt><trkpt lat="43.794116545507315" lon="11.714970762869132"><ele>431.0</ele><time>2026-04-06T12:12:50.885Z</time></trkpt><trkpt lat="43.79417925853388" lon="11.714931649590339"><ele>431.0</ele><time>2026-04-06T12:12:53.885Z</time></trkpt><trkpt lat="43.79424569576434" lon="11.714911119407006"><ele>431.0</ele><time>2026-04-06T12:12:56.885Z</time></trkpt><trkpt lat="43.79431789200441" lon="11.714886353642546"><ele>431.0</ele><time>2026-04-06T12:12:59.882Z</time></trkpt><trkpt lat="43.794384119407404" lon="11.714868927821765"><ele>431.0</ele><time>2026-04-06T12:13:02.882Z</time></trkpt><trkpt lat="43.79445640599615" lon="11.714856016218501"><ele>431.0</ele><time>2026-04-06T12:13:05.882Z</time></trkpt><trkpt lat="43.79452919462277" lon="11.714855250216972"><ele>431.0</ele><time>2026-04-06T12:13:08.882Z</time></trkpt><trkpt lat="43.794620864569616" lon="11.71483266669455"><ele>431.0</ele><time>2026-04-06T12:13:11.881Z</time></trkpt><trkpt lat="43.79469908620294" lon="11.714815604957694"><ele>431.8571428571429</ele><time>2026-04-06T12:13:14.881Z</time></trkpt><trkpt lat="43.794742350190546" lon="11.714750000740407"><ele>432.71428571428567</ele><time>2026-04-06T12:13:18.881Z</time></trkpt><trkpt lat="43.79477089148279" lon="11.714661803020526"><ele>433.57142857142856</ele><time>2026-04-06T12:13:22.881Z</time></trkpt><trkpt lat="43.79478451285667" lon="11.714571563618255"><ele>434.42857142857144</ele><time>2026-04-06T12:13:28.881Z</time></trkpt><trkpt lat="43.79476750269859" lon="11.714485757263676"><ele>435.28571428571433</ele><time>2026-04-06T12:13:33.881Z</time></trkpt><trkpt lat="43.79472393671118" lon="11.71437581100586"><ele>436.1428571428571</ele><time>2026-04-06T12:13:36.881Z</time></trkpt><trkpt lat="43.79465437046531" lon="11.714313349914844"><ele>437.0</ele><time>2026-04-06T12:13:38.881Z</time></trkpt><trkpt lat="43.79456192718492" lon="11.714208031646777"><ele>436.99999999999994</ele><time>2026-04-06T12:13:40.881Z</time></trkpt><trkpt lat="43.79452540368193" lon="11.71412350325252"><ele>437.0</ele><time>2026-04-06T12:13:41.881Z</time></trkpt><trkpt lat="43.794509602945304" lon="11.71401907185822"><ele>437.0</ele><time>2026-04-06T12:13:42.881Z</time></trkpt><trkpt lat="43.794517909642714" lon="11.713904998155959"><ele>437.0</ele><time>2026-04-06T12:13:43.881Z</time></trkpt><trkpt lat="43.794529032475474" lon="11.713794326021542"><ele>436.99999999999994</ele><time>2026-04-06T12:13:44.881Z</time></trkpt><trkpt lat="43.79453966266058" lon="11.71368872662566"><ele>437.0</ele><time>2026-04-06T12:13:45.881Z</time></trkpt><trkpt lat="43.79455449690669" lon="11.713580170880082"><ele>436.66666666666663</ele><time>2026-04-06T12:13:46.881Z</time></trkpt><trkpt lat="43.794577580456554" lon="11.71347318410239"><ele>436.3333333333333</ele><time>2026-04-06T12:13:47.881Z</time></trkpt><trkpt lat="43.794592980961085" lon="11.713372647301696"><ele>436.0</ele><time>2026-04-06T12:13:48.881Z</time></trkpt><trkpt lat="43.79463054949952" lon="11.71329011055405"><ele>435.66666666666663</ele><time>2026-04-06T12:13:49.881Z</time></trkpt><trkpt lat="43.794667331096136" lon="11.713213676156936"><ele>435.3333333333333</ele><time>2026-04-06T12:13:50.881Z</time></trkpt><trkpt lat="43.79473037865615" lon="11.713077626838517"><ele>435.0</ele><time>2026-04-06T12:13:52.881Z</time></trkpt><trkpt lat="43.79478761099382" lon="11.712948582048039"><ele>435.0</ele><time>2026-04-06T12:13:54.881Z</time></trkpt><trkpt lat="43.7948496584279" lon="11.712839577493718"><ele>435.0</ele><time>2026-04-06T12:13:56.881Z</time></trkpt><trkpt lat="43.794913395538735" lon="11.712758239689396"><ele>435.0</ele><time>2026-04-06T12:13:58.881Z</time></trkpt><trkpt lat="43.79497160999138" lon="11.712685766797057"><ele>435.0</ele><time>2026-04-06T12:14:00.881Z</time></trkpt><trkpt lat="43.795011630010194" lon="11.712609249482878"><ele>435.0</ele><time>2026-04-06T12:14:02.881Z</time></trkpt><trkpt lat="43.79505688980483" lon="11.712497579668094"><ele>435.0</ele><time>2026-04-06T12:14:05.881Z</time></trkpt><trkpt lat="43.795084680896814" lon="11.712408061678289"><ele>434.5714285714286</ele><time>2026-04-06T12:14:07.881Z</time></trkpt><trkpt lat="43.79510479739409" lon="11.712317183873788"><ele>434.14285714285717</ele><time>2026-04-06T12:14:09.882Z</time></trkpt><trkpt lat="43.79512697529608" lon="11.7122210355733"><ele>433.7142857142857</ele><time>2026-04-06T12:14:11.882Z</time></trkpt><trkpt lat="43.79515395096305" lon="11.71212754504681"><ele>433.28571428571433</ele><time>2026-04-06T12:14:13.882Z</time></trkpt><trkpt lat="43.79517876571937" lon="11.71203299504113"><ele>432.85714285714283</ele><time>2026-04-06T12:14:15.882Z</time></trkpt><trkpt lat="43.79520397755026" lon="11.711940800322914"><ele>432.42857142857144</ele><time>2026-04-06T12:14:17.882Z</time></trkpt><trkpt lat="43.79522862378641" lon="11.71185272078982"><ele>432.0</ele><time>2026-04-06T12:14:19.882Z</time></trkpt><trkpt lat="43.795247067592726" lon="11.711761534324483"><ele>433.1666666666667</ele><time>2026-04-06T12:14:21.882Z</time></trkpt><trkpt lat="43.79526992338963" lon="11.711671358549443"><ele>434.33333333333337</ele><time>2026-04-06T12:14:23.882Z</time></trkpt><trkpt lat="43.79531306413258" lon="11.711586725656634"><ele>435.5</ele><time>2026-04-06T12:14:25.882Z</time></trkpt><trkpt lat="43.79536401260632" lon="11.711517086902322"><ele>436.6666666666667</ele><time>2026-04-06T12:14:27.882Z</time></trkpt><trkpt lat="43.79541845838183" lon="11.711461707513605"><ele>437.83333333333337</ele><time>2026-04-06T12:14:29.882Z</time></trkpt><trkpt lat="43.79548785354525" lon="11.711406939620439"><ele>439.0</ele><time>2026-04-06T12:14:31.882Z</time></trkpt><trkpt lat="43.79558617187082" lon="11.711361088384935"><ele>439.0</ele><time>2026-04-06T12:14:33.882Z</time></trkpt><trkpt lat="43.795665298684554" lon="11.711285356948716"><ele>439.0</ele><time>2026-04-06T12:14:35.882Z</time></trkpt><trkpt lat="43.795741126775255" lon="11.711312119921395"><ele>439.0</ele><time>2026-04-06T12:14:36.882Z</time></trkpt><trkpt lat="43.795806897885875" lon="11.711191674289521"><ele>439.0</ele><time>2026-04-06T12:14:38.882Z</time></trkpt><trkpt lat="43.795838986141085" lon="11.711039806902594"><ele>439.0</ele><time>2026-04-06T12:14:40.882Z</time></trkpt><trkpt lat="43.79588552111886" lon="11.710897864442469"><ele>438.6666666666667</ele><time>2026-04-06T12:14:42.882Z</time></trkpt><trkpt lat="43.795917079831185" lon="11.71078393622632"><ele>438.33333333333337</ele><time>2026-04-06T12:14:44.882Z</time></trkpt><trkpt lat="43.79593606131943" lon="11.710688630713511"><ele>438.0</ele><time>2026-04-06T12:14:46.882Z</time></trkpt><trkpt lat="43.7959419745951" lon="11.710589947783658"><ele>437.66666666666663</ele><time>2026-04-06T12:14:49.882Z</time></trkpt><trkpt lat="43.795868329396214" lon="11.710482697299728"><ele>437.3333333333333</ele><time>2026-04-06T12:14:57.882Z</time></trkpt><trkpt lat="43.79583357565604" lon="11.710398072136377"><ele>437.0</ele><time>2026-04-06T12:15:02.882Z</time></trkpt><trkpt lat="43.795821285011925" lon="11.71028078889158"><ele>436.99999999999994</ele><time>2026-04-06T12:15:06.879Z</time></trkpt><trkpt lat="43.79585542684059" lon="11.710196561157664"><ele>437.0</ele><time>2026-04-06T12:15:08.879Z</time></trkpt><trkpt lat="43.79589401016258" lon="11.710112117268434"><ele>437.0</ele><time>2026-04-06T12:15:10.878Z</time></trkpt><trkpt lat="43.79593516017204" lon="11.71003477242489"><ele>437.0</ele><time>2026-04-06T12:15:12.879Z</time></trkpt><trkpt lat="43.79597729579173" lon="11.709903302111549"><ele>436.99999999999994</ele><time>2026-04-06T12:15:15.878Z</time></trkpt><trkpt lat="43.79602881194744" lon="11.709800415107592"><ele>437.0</ele><time>2026-04-06T12:15:17.878Z</time></trkpt><trkpt lat="43.796085056356546" lon="11.709696285396376"><ele>437.20000000000005</ele><time>2026-04-06T12:15:19.878Z</time></trkpt><trkpt lat="43.79614532723235" lon="11.709592462698497"><ele>437.40000000000003</ele><time>2026-04-06T12:15:21.878Z</time></trkpt><trkpt lat="43.79620490748126" lon="11.709486780734535"><ele>437.59999999999997</ele><time>2026-04-06T12:15:23.878Z</time></trkpt><trkpt lat="43.79626918473432" lon="11.709386421904833"><ele>437.79999999999995</ele><time>2026-04-06T12:15:25.878Z</time></trkpt><trkpt lat="43.79633187252175" lon="11.709281437861309"><ele>438.0</ele><time>2026-04-06T12:15:27.878Z</time></trkpt><trkpt lat="43.796410700899536" lon="11.709195572507577"><ele>438.0</ele><time>2026-04-06T12:15:29.878Z</time></trkpt><trkpt lat="43.79650331285244" lon="11.709153950599907"><ele>437.99999999999994</ele><time>2026-04-06T12:15:31.878Z</time></trkpt><trkpt lat="43.796594617694204" lon="11.709085304317401"><ele>437.99999999999994</ele><time>2026-04-06T12:15:33.878Z</time></trkpt><trkpt lat="43.7966749359104" lon="11.709009050740438"><ele>438.0</ele><time>2026-04-06T12:15:35.878Z</time></trkpt><trkpt lat="43.79676327516001" lon="11.708952147586574"><ele>438.0</ele><time>2026-04-06T12:15:37.878Z</time></trkpt><trkpt lat="43.79685462004999" lon="11.70889555822919"><ele>439.1666666666667</ele><time>2026-04-06T12:15:39.878Z</time></trkpt><trkpt lat="43.796945650638776" lon="11.708846672098533"><ele>440.33333333333337</ele><time>2026-04-06T12:15:41.878Z</time></trkpt><trkpt lat="43.79702663211908" lon="11.708788157543136"><ele>441.5</ele><time>2026-04-06T12:15:43.878Z</time></trkpt><trkpt lat="43.79709966763717" lon="11.708731187474145"><ele>442.6666666666667</ele><time>2026-04-06T12:15:45.878Z</time></trkpt><trkpt lat="43.79716920513493" lon="11.708685876260263"><ele>443.83333333333337</ele><time>2026-04-06T12:15:47.878Z</time></trkpt><trkpt lat="43.79723585588638" lon="11.708642289416066"><ele>445.0</ele><time>2026-04-06T12:15:49.878Z</time></trkpt><trkpt lat="43.79729453528175" lon="11.70859026054432"><ele>443.6666666666667</ele><time>2026-04-06T12:15:51.878Z</time></trkpt><trkpt lat="43.797350787784964" lon="11.708542966701394"><ele>442.33333333333337</ele><time>2026-04-06T12:15:53.878Z</time></trkpt><trkpt lat="43.797417238400286" lon="11.70848437881992"><ele>441.0</ele><time>2026-04-06T12:15:56.878Z</time></trkpt><trkpt lat="43.79747401418606" lon="11.70842530422945"><ele>439.66666666666663</ele><time>2026-04-06T12:15:58.878Z</time></trkpt><trkpt lat="43.79753744516255" lon="11.708365345128007"><ele>438.3333333333333</ele><time>2026-04-06T12:16:00.878Z</time></trkpt><trkpt lat="43.797604929755686" lon="11.708298324345668"><ele>437.0</ele><time>2026-04-06T12:16:02.878Z</time></trkpt><trkpt lat="43.7976674934517" lon="11.70822202123432"><ele>438.66666666666663</ele><time>2026-04-06T12:16:04.878Z</time></trkpt><trkpt lat="43.797729887991565" lon="11.708135673063532"><ele>440.3333333333333</ele><time>2026-04-06T12:16:06.878Z</time></trkpt><trkpt lat="43.797796023237915" lon="11.708057571319435"><ele>442.0</ele><time>2026-04-06T12:16:08.878Z</time></trkpt><trkpt lat="43.7978598174134" lon="11.70798570329218"><ele>443.66666666666663</ele><time>2026-04-06T12:16:10.878Z</time></trkpt><trkpt lat="43.7979201944572" lon="11.707912750563917"><ele>445.3333333333333</ele><time>2026-04-06T12:16:12.878Z</time></trkpt><trkpt lat="43.7979806889631" lon="11.707840686736528"><ele>447.0</ele><time>2026-04-06T12:16:14.878Z</time></trkpt><trkpt lat="43.798035203282694" lon="11.707769017879139"><ele>445.85714285714283</ele><time>2026-04-06T12:16:16.878Z</time></trkpt><trkpt lat="43.79809347180629" lon="11.707696744348738"><ele>444.7142857142857</ele><time>2026-04-06T12:16:18.879Z</time></trkpt><trkpt lat="43.7981472887945" lon="11.70762570766036"><ele>443.57142857142856</ele><time>2026-04-06T12:16:20.879Z</time></trkpt><trkpt lat="43.79820281042283" lon="11.707566642870976"><ele>442.42857142857144</ele><time>2026-04-06T12:16:22.876Z</time></trkpt><trkpt lat="43.79825129201633" lon="11.707500731026983"><ele>441.2857142857143</ele><time>2026-04-06T12:16:24.873Z</time></trkpt><trkpt lat="43.7983078334789" lon="11.707444551008145"><ele>440.1428571428571</ele><time>2026-04-06T12:16:26.871Z</time></trkpt><trkpt lat="43.79836143309407" lon="11.707383530741303"><ele>439.0</ele><time>2026-04-06T12:16:28.869Z</time></trkpt><trkpt lat="43.79842135445159" lon="11.707323348423074"><ele>439.00000000000006</ele><time>2026-04-06T12:16:30.867Z</time></trkpt><trkpt lat="43.798486093826895" lon="11.707255263981846"><ele>439.0</ele><time>2026-04-06T12:16:32.865Z</time></trkpt><trkpt lat="43.79854722816739" lon="11.707184848021395"><ele>439.0</ele><time>2026-04-06T12:16:34.864Z</time></trkpt><trkpt lat="43.79862134571113" lon="11.707129731201201"><ele>439.0</ele><time>2026-04-06T12:16:36.863Z</time></trkpt><trkpt lat="43.79868840637198" lon="11.707077149945293"><ele>439.00000000000006</ele><time>2026-04-06T12:16:38.862Z</time></trkpt><trkpt lat="43.79874131650515" lon="11.707010621481029"><ele>439.0</ele><time>2026-04-06T12:16:40.861Z</time></trkpt><trkpt lat="43.79880106349772" lon="11.706968210455235"><ele>439.0</ele><time>2026-04-06T12:16:42.86Z</time></trkpt><trkpt lat="43.79887448501958" lon="11.70693397003532"><ele>439.0</ele><time>2026-04-06T12:16:44.859Z</time></trkpt><trkpt lat="43.79892858763277" lon="11.706879968322824"><ele>439.0</ele><time>2026-04-06T12:16:46.859Z</time></trkpt><trkpt lat="43.79898203375003" lon="11.70681881073061"><ele>439.0</ele><time>2026-04-06T12:16:48.858Z</time></trkpt><trkpt lat="43.79902483920836" lon="11.706740185832574"><ele>439.0</ele><time>2026-04-06T12:16:50.858Z</time></trkpt><trkpt lat="43.799078461233925" lon="11.70667690998314"><ele>439.0</ele><time>2026-04-06T12:16:52.857Z</time></trkpt><trkpt lat="43.799147979990394" lon="11.706625703387818"><ele>439.0</ele><time>2026-04-06T12:16:54.857Z</time></trkpt><trkpt lat="43.79919729656566" lon="11.706565560987363"><ele>439.00000000000006</ele><time>2026-04-06T12:16:56.857Z</time></trkpt><trkpt lat="43.79926812619845" lon="11.706483870632914"><ele>439.0</ele><time>2026-04-06T12:16:59.856Z</time></trkpt><trkpt lat="43.799318458702814" lon="11.706421076144773"><ele>439.0</ele><time>2026-04-06T12:17:01.856Z</time></trkpt><trkpt lat="43.799397528163475" lon="11.706351465705652"><ele>439.0</ele><time>2026-04-06T12:17:04.856Z</time></trkpt><trkpt lat="43.799449331490216" lon="11.706289586906866"><ele>439.00000000000006</ele><time>2026-04-06T12:17:07.855Z</time></trkpt><trkpt lat="43.7995024981056" lon="11.70622921788822"><ele>439.0</ele><time>2026-04-06T12:17:11.853Z</time></trkpt><trkpt lat="43.79955806539969" lon="11.706175991569564"><ele>439.4</ele><time>2026-04-06T12:17:17.852Z</time></trkpt><trkpt lat="43.79968748094697" lon="11.706257840648723"><ele>439.79999999999995</ele><time>2026-04-06T12:17:21.852Z</time></trkpt><trkpt lat="43.79976098271947" lon="11.706323870924153"><ele>440.20000000000005</ele><time>2026-04-06T12:17:24.852Z</time></trkpt><trkpt lat="43.799810111453354" lon="11.706416096638204"><ele>440.6</ele><time>2026-04-06T12:17:27.851Z</time></trkpt><trkpt lat="43.79987120899634" lon="11.706489452120566"><ele>441.0</ele><time>2026-04-06T12:17:30.851Z</time></trkpt><trkpt lat="43.79993260665518" lon="11.70654913289664"><ele>441.0</ele><time>2026-04-06T12:17:34.851Z</time></trkpt><trkpt lat="43.80001682870725" lon="11.706549470491955"><ele>441.0</ele><time>2026-04-06T12:17:38.851Z</time></trkpt><trkpt lat="43.80007658345618" lon="11.706629536141968"><ele>441.0</ele><time>2026-04-06T12:17:41.851Z</time></trkpt><trkpt lat="43.80013464353534" lon="11.706700945161598"><ele>441.0</ele><time>2026-04-06T12:17:44.851Z</time></trkpt><trkpt lat="43.80016450857554" lon="11.706790117494553"><ele>441.0</ele><time>2026-04-06T12:17:47.851Z</time></trkpt><trkpt lat="43.800195268691354" lon="11.706875827982007"><ele>441.0</ele><time>2026-04-06T12:17:51.851Z</time></trkpt><trkpt lat="43.80027832307438" lon="11.70691160047355"><ele>441.8</ele><time>2026-04-06T12:17:56.851Z</time></trkpt><trkpt lat="43.80038254628617" lon="11.706950859160038"><ele>442.6</ele><time>2026-04-06T12:19:41.847Z</time></trkpt><trkpt lat="43.800449205730125" lon="11.706992494609185"><ele>443.4</ele><time>2026-04-06T12:19:45.847Z</time></trkpt><trkpt lat="43.800525072143266" lon="11.707048467768562"><ele>444.2</ele><time>2026-04-06T12:19:49.847Z</time></trkpt><trkpt lat="43.80056208472037" lon="11.706847766305286"><ele>445.0</ele><time>2026-04-06T12:19:52.847Z</time></trkpt><trkpt lat="43.800612083107346" lon="11.706732860618331"><ele>446.0</ele><time>2026-04-06T12:19:55.847Z</time></trkpt><trkpt lat="43.80065032405161" lon="11.706642843326073"><ele>447.0</ele><time>2026-04-06T12:19:58.847Z</time></trkpt><trkpt lat="43.80070112602354" lon="11.706563288276081"><ele>448.0</ele><time>2026-04-06T12:20:01.847Z</time></trkpt><trkpt lat="43.80124941450999" lon="11.70658370697074"><ele>449.6666666666667</ele><time>2026-04-06T12:20:24.847Z</time></trkpt><trkpt lat="43.80132845617018" lon="11.706631645449285"><ele>451.33333333333337</ele><time>2026-04-06T12:20:27.847Z</time></trkpt><trkpt lat="43.801408302575" lon="11.706663919563182"><ele>453.0</ele><time>2026-04-06T12:20:30.847Z</time></trkpt><trkpt lat="43.801481207374465" lon="11.706680372545193"><ele>454.66666666666663</ele><time>2026-04-06T12:20:33.847Z</time></trkpt><trkpt lat="43.80155250312051" lon="11.706713153539576"><ele>456.3333333333333</ele><time>2026-04-06T12:20:36.847Z</time></trkpt><trkpt lat="43.80161980315405" lon="11.70673680618658"><ele>458.0</ele><time>2026-04-06T12:20:39.847Z</time></trkpt><trkpt lat="43.801548963120624" lon="11.706754372257677"><ele>457.99999999999994</ele><time>2026-04-06T12:21:52.844Z</time></trkpt><trkpt lat="43.80147075662623" lon="11.70675828371924"><ele>458.0</ele><time>2026-04-06T12:21:54.844Z</time></trkpt><trkpt lat="43.80141201662077" lon="11.706713449845571"><ele>458.0</ele><time>2026-04-06T12:21:56.844Z</time></trkpt><trkpt lat="43.80133265598799" lon="11.706687768928237"><ele>458.0</ele><time>2026-04-06T12:21:58.844Z</time></trkpt><trkpt lat="43.80124961710673" lon="11.706654021300155"><ele>457.99999999999994</ele><time>2026-04-06T12:22:00.844Z</time></trkpt><trkpt lat="43.801177078587315" lon="11.706623398755477"><ele>458.0</ele><time>2026-04-06T12:22:02.844Z</time></trkpt><trkpt lat="43.801092203020204" lon="11.706595178558675"><ele>457.99999999999994</ele><time>2026-04-06T12:22:05.844Z</time></trkpt><trkpt lat="43.80100288547586" lon="11.706552076841826"><ele>458.0</ele><time>2026-04-06T12:22:08.844Z</time></trkpt><trkpt lat="43.80094267385825" lon="11.706526086327345"><ele>458.0</ele><time>2026-04-06T12:22:10.844Z</time></trkpt><trkpt lat="43.80088717887524" lon="11.706482400857547"><ele>458.0</ele><time>2026-04-06T12:22:12.844Z</time></trkpt><trkpt lat="43.8008084063198" lon="11.706437217025679"><ele>457.99999999999994</ele><time>2026-04-06T12:22:15.844Z</time></trkpt><trkpt lat="43.80072805436639" lon="11.70638847183922"><ele>458.0</ele><time>2026-04-06T12:22:18.844Z</time></trkpt><trkpt lat="43.800671463999805" lon="11.706326590853124"><ele>455.5</ele><time>2026-04-06T12:22:21.844Z</time></trkpt><trkpt lat="43.800602553242726" lon="11.706276408443342"><ele>453.0</ele><time>2026-04-06T12:22:24.844Z</time></trkpt><trkpt lat="43.800549513613284" lon="11.705959757598432"><ele>450.5</ele><time>2026-04-06T12:22:36.844Z</time></trkpt><trkpt lat="43.800534653919776" lon="11.705853783181333"><ele>448.0</ele><time>2026-04-06T12:22:40.844Z</time></trkpt><trkpt lat="43.80057817784274" lon="11.705701055342447"><ele>447.50000000000006</ele><time>2026-04-06T12:22:43.844Z</time></trkpt><trkpt lat="43.80057505685502" lon="11.705579540174536"><ele>447.0</ele><time>2026-04-06T12:22:46.844Z</time></trkpt><trkpt lat="43.80056613936391" lon="11.705448708395034"><ele>446.5</ele><time>2026-04-06T12:22:49.844Z</time></trkpt><trkpt lat="43.800569550084774" lon="11.705323694991295"><ele>446.0</ele><time>2026-04-06T12:22:52.844Z</time></trkpt><trkpt lat="43.80056257357497" lon="11.705227758692088"><ele>445.50000000000006</ele><time>2026-04-06T12:22:55.844Z</time></trkpt><trkpt lat="43.8005385926577" lon="11.705127307113328"><ele>445.0</ele><time>2026-04-06T12:22:58.844Z</time></trkpt><trkpt lat="43.80050972021932" lon="11.70503511509878"><ele>444.6666666666667</ele><time>2026-04-06T12:23:01.844Z</time></trkpt><trkpt lat="43.80045522650404" lon="11.704939425341319"><ele>444.33333333333337</ele><time>2026-04-06T12:23:04.844Z</time></trkpt><trkpt lat="43.80038279482078" lon="11.704883532861897"><ele>444.0</ele><time>2026-04-06T12:23:07.844Z</time></trkpt><trkpt lat="43.80031715403428" lon="11.704880420823125"><ele>443.66666666666663</ele><time>2026-04-06T12:23:09.844Z</time></trkpt><trkpt lat="43.80024546063442" lon="11.704875226912241"><ele>443.3333333333333</ele><time>2026-04-06T12:23:12.844Z</time></trkpt><trkpt lat="43.80016995858315" lon="11.704874328835666"><ele>443.0</ele><time>2026-04-06T12:23:15.844Z</time></trkpt><trkpt lat="43.80009950975585" lon="11.704875955626333"><ele>443.8333333333333</ele><time>2026-04-06T12:23:18.844Z</time></trkpt><trkpt lat="43.80001967031797" lon="11.704880542291669"><ele>444.66666666666663</ele><time>2026-04-06T12:23:21.844Z</time></trkpt><trkpt lat="43.79994141446197" lon="11.70488615781793"><ele>445.5</ele><time>2026-04-06T12:23:24.844Z</time></trkpt><trkpt lat="43.799871828384894" lon="11.704893420073711"><ele>446.33333333333337</ele><time>2026-04-06T12:23:27.844Z</time></trkpt><trkpt lat="43.799790329457785" lon="11.704904951519627"><ele>447.1666666666667</ele><time>2026-04-06T12:23:30.841Z</time></trkpt><trkpt lat="43.799714539282654" lon="11.70491824351944"><ele>448.0</ele><time>2026-04-06T12:23:33.841Z</time></trkpt><trkpt lat="43.79964158695138" lon="11.704932087206057"><ele>448.0</ele><time>2026-04-06T12:23:36.841Z</time></trkpt><trkpt lat="43.79957323583181" lon="11.70495241548604"><ele>448.0</ele><time>2026-04-06T12:23:39.841Z</time></trkpt><trkpt lat="43.79950623728623" lon="11.704968967965153"><ele>448.0</ele><time>2026-04-06T12:23:42.841Z</time></trkpt><trkpt lat="43.79943473276438" lon="11.704990700600549"><ele>448.0</ele><time>2026-04-06T12:23:45.841Z</time></trkpt><trkpt lat="43.79936253085444" lon="11.705005646008987"><ele>448.0</ele><time>2026-04-06T12:23:48.841Z</time></trkpt><trkpt lat="43.79928883067313" lon="11.705022586150324"><ele>448.0</ele><time>2026-04-06T12:23:51.841Z</time></trkpt><trkpt lat="43.79921533788055" lon="11.705044812105506"><ele>448.0</ele><time>2026-04-06T12:23:54.841Z</time></trkpt><trkpt lat="43.79914175563817" lon="11.705065585858566"><ele>448.57142857142856</ele><time>2026-04-06T12:23:57.841Z</time></trkpt><trkpt lat="43.79906722017838" lon="11.705087371667215"><ele>449.1428571428571</ele><time>2026-04-06T12:24:00.841Z</time></trkpt><trkpt lat="43.799000391152674" lon="11.705080375869038"><ele>449.7142857142857</ele><time>2026-04-06T12:24:03.841Z</time></trkpt><trkpt lat="43.798932305732265" lon="11.705101684627394"><ele>450.2857142857143</ele><time>2026-04-06T12:24:06.841Z</time></trkpt><trkpt lat="43.798860057820306" lon="11.705124156623855"><ele>450.85714285714283</ele><time>2026-04-06T12:24:09.841Z</time></trkpt><trkpt lat="43.798785319292854" lon="11.70514958521295"><ele>451.42857142857144</ele><time>2026-04-06T12:24:12.842Z</time></trkpt><trkpt lat="43.798715275355526" lon="11.70517252283748"><ele>452.0</ele><time>2026-04-06T12:24:15.842Z</time></trkpt><trkpt lat="43.79864334883518" lon="11.70519234127764"><ele>452.0</ele><time>2026-04-06T12:24:18.842Z</time></trkpt><trkpt lat="43.79857419822814" lon="11.705222304729526"><ele>452.0</ele><time>2026-04-06T12:24:21.842Z</time></trkpt><trkpt lat="43.79850022011619" lon="11.705238284890413"><ele>452.0</ele><time>2026-04-06T12:24:24.842Z</time></trkpt><trkpt lat="43.798431370289514" lon="11.705263885354366"><ele>452.0</ele><time>2026-04-06T12:24:27.842Z</time></trkpt><trkpt lat="43.79835618990339" lon="11.705267809313346"><ele>452.0</ele><time>2026-04-06T12:24:30.842Z</time></trkpt><trkpt lat="43.798282743732265" lon="11.705271722631588"><ele>452.0</ele><time>2026-04-06T12:24:33.842Z</time></trkpt><trkpt lat="43.79820936891096" lon="11.705247918145009"><ele>452.0</ele><time>2026-04-06T12:24:36.842Z</time></trkpt><trkpt lat="43.79815260244458" lon="11.705185510800446"><ele>453.7142857142857</ele><time>2026-04-06T12:24:39.842Z</time></trkpt><trkpt lat="43.79810512742051" lon="11.705122408065991"><ele>455.42857142857144</ele><time>2026-04-06T12:24:42.842Z</time></trkpt><trkpt lat="43.79804484817982" lon="11.705051553175114"><ele>457.14285714285717</ele><time>2026-04-06T12:24:46.842Z</time></trkpt><trkpt lat="43.798058426571785" lon="11.70494200901634"><ele>458.8571428571429</ele><time>2026-04-06T12:24:48.842Z</time></trkpt><trkpt lat="43.798063277976446" lon="11.704848889950727"><ele>460.57142857142856</ele><time>2026-04-06T12:24:51.842Z</time></trkpt><trkpt lat="43.79807824930452" lon="11.704754748111977"><ele>462.28571428571433</ele><time>2026-04-06T12:24:54.842Z</time></trkpt><trkpt lat="43.79810996432993" lon="11.704662012136621"><ele>464.00000000000006</ele><time>2026-04-06T12:24:57.842Z</time></trkpt><trkpt lat="43.79816410604878" lon="11.70458623327438"><ele>463.99999999999994</ele><time>2026-04-06T12:25:00.842Z</time></trkpt><trkpt lat="43.798229295331" lon="11.704527570187755"><ele>464.0</ele><time>2026-04-06T12:25:03.842Z</time></trkpt><trkpt lat="43.79829738270428" lon="11.704477637655469"><ele>464.0</ele><time>2026-04-06T12:25:06.842Z</time></trkpt><trkpt lat="43.79836243921755" lon="11.704424381122418"><ele>464.0</ele><time>2026-04-06T12:25:09.842Z</time></trkpt><trkpt lat="43.798426068266" lon="11.704361347007861"><ele>463.99999999999994</ele><time>2026-04-06T12:25:12.842Z</time></trkpt><trkpt lat="43.798489131434174" lon="11.704308783920942"><ele>464.0</ele><time>2026-04-06T12:25:15.842Z</time></trkpt><trkpt lat="43.798554862737305" lon="11.704258688176381"><ele>464.1428571428572</ele><time>2026-04-06T12:25:18.842Z</time></trkpt><trkpt lat="43.79861999175518" lon="11.704199793387659"><ele>464.28571428571433</ele><time>2026-04-06T12:25:21.841Z</time></trkpt><trkpt lat="43.79868445724108" lon="11.70414374746379"><ele>464.42857142857144</ele><time>2026-04-06T12:25:24.841Z</time></trkpt><trkpt lat="43.79874497345009" lon="11.704097296907129"><ele>464.5714285714286</ele><time>2026-04-06T12:25:27.841Z</time></trkpt><trkpt lat="43.79880450450132" lon="11.704043749317394"><ele>464.7142857142858</ele><time>2026-04-06T12:25:30.841Z</time></trkpt><trkpt lat="43.798863673170096" lon="11.703988482028366"><ele>464.85714285714283</ele><time>2026-04-06T12:25:33.841Z</time></trkpt><trkpt lat="43.798931728665515" lon="11.703942899387167"><ele>465.0</ele><time>2026-04-06T12:25:36.838Z</time></trkpt><trkpt lat="43.79899312058717" lon="11.70388059602062"><ele>465.0</ele><time>2026-04-06T12:25:39.838Z</time></trkpt><trkpt lat="43.79904986914491" lon="11.703827235839238"><ele>465.0</ele><time>2026-04-06T12:25:42.839Z</time></trkpt><trkpt lat="43.79911266104585" lon="11.7037760937877"><ele>465.0</ele><time>2026-04-06T12:25:45.838Z</time></trkpt><trkpt lat="43.79917935170231" lon="11.703715262609242"><ele>465.0</ele><time>2026-04-06T12:25:48.838Z</time></trkpt><trkpt lat="43.79924029322388" lon="11.703664292233158"><ele>465.0</ele><time>2026-04-06T12:25:51.838Z</time></trkpt><trkpt lat="43.799302859155965" lon="11.703606368424511"><ele>465.0</ele><time>2026-04-06T12:25:54.837Z</time></trkpt><trkpt lat="43.79936520819008" lon="11.703548742003463"><ele>465.0</ele><time>2026-04-06T12:25:57.837Z</time></trkpt><trkpt lat="43.79942738783976" lon="11.703494521942055"><ele>465.85714285714283</ele><time>2026-04-06T12:26:00.837Z</time></trkpt><trkpt lat="43.79948989065426" lon="11.703440163032292"><ele>466.7142857142858</ele><time>2026-04-06T12:26:03.837Z</time></trkpt><trkpt lat="43.79955773105139" lon="11.70338846636261"><ele>467.5714285714286</ele><time>2026-04-06T12:26:06.837Z</time></trkpt><trkpt lat="43.7996248931336" lon="11.703332026495119"><ele>468.42857142857144</ele><time>2026-04-06T12:26:09.837Z</time></trkpt><trkpt lat="43.799687466853264" lon="11.703279655269489"><ele>469.28571428571433</ele><time>2026-04-06T12:26:12.837Z</time></trkpt><trkpt lat="43.799750080479555" lon="11.703228084375985"><ele>470.1428571428572</ele><time>2026-04-06T12:26:15.837Z</time></trkpt><trkpt lat="43.799811332003905" lon="11.703171751964113"><ele>471.00000000000006</ele><time>2026-04-06T12:26:18.837Z</time></trkpt><trkpt lat="43.79986541895334" lon="11.703102455307873"><ele>471.0</ele><time>2026-04-06T12:26:21.837Z</time></trkpt><trkpt lat="43.799907144320244" lon="11.703013722460115"><ele>471.0</ele><time>2026-04-06T12:26:24.837Z</time></trkpt><trkpt lat="43.79993564365704" lon="11.70291455010981"><ele>471.0</ele><time>2026-04-06T12:26:27.837Z</time></trkpt><trkpt lat="43.79993735490042" lon="11.702801546577188"><ele>471.0</ele><time>2026-04-06T12:26:30.837Z</time></trkpt><trkpt lat="43.799902539115216" lon="11.702688470443645"><ele>471.0</ele><time>2026-04-06T12:26:33.837Z</time></trkpt><trkpt lat="43.79986088741321" lon="11.702621708095762"><ele>471.0</ele><time>2026-04-06T12:26:35.837Z</time></trkpt><trkpt lat="43.79978695047051" lon="11.702567371337068"><ele>473.6666666666667</ele><time>2026-04-06T12:26:38.837Z</time></trkpt><trkpt lat="43.799712498702746" lon="11.70252727741725"><ele>476.33333333333337</ele><time>2026-04-06T12:26:41.837Z</time></trkpt><trkpt lat="43.79963647017501" lon="11.702517687422176"><ele>479.0</ele><time>2026-04-06T12:26:44.837Z</time></trkpt><trkpt lat="43.79955730468169" lon="11.70250801720918"><ele>481.6666666666667</ele><time>2026-04-06T12:26:47.837Z</time></trkpt><trkpt lat="43.799489671851425" lon="11.702541644819235"><ele>484.33333333333337</ele><time>2026-04-06T12:26:50.837Z</time></trkpt><trkpt lat="43.7994243364506" lon="11.702581524875875"><ele>487.0</ele><time>2026-04-06T12:26:53.837Z</time></trkpt><trkpt lat="43.799366759965864" lon="11.70263893775902"><ele>485.50000000000006</ele><time>2026-04-06T12:26:56.837Z</time></trkpt><trkpt lat="43.79928957346361" lon="11.702682959180063"><ele>484.0</ele><time>2026-04-06T12:26:59.837Z</time></trkpt><trkpt lat="43.79921525317199" lon="11.702731385745642"><ele>482.5</ele><time>2026-04-06T12:27:02.837Z</time></trkpt><trkpt lat="43.79914035604763" lon="11.702778505147952"><ele>481.0</ele><time>2026-04-06T12:27:05.837Z</time></trkpt><trkpt lat="43.79907072973269" lon="11.702797294027102"><ele>479.50000000000006</ele><time>2026-04-06T12:27:08.837Z</time></trkpt><trkpt lat="43.79899580782858" lon="11.70284014880152"><ele>478.0</ele><time>2026-04-06T12:27:11.837Z</time></trkpt><trkpt lat="43.7989226502542" lon="11.702884068433168"><ele>478.00000000000006</ele><time>2026-04-06T12:27:14.837Z</time></trkpt><trkpt lat="43.79885024061367" lon="11.702939037642851"><ele>478.0</ele><time>2026-04-06T12:27:17.837Z</time></trkpt><trkpt lat="43.79877767785589" lon="11.702971533635045"><ele>478.0</ele><time>2026-04-06T12:27:20.837Z</time></trkpt><trkpt lat="43.79870201394749" lon="11.70301753313627"><ele>478.0</ele><time>2026-04-06T12:27:23.837Z</time></trkpt><trkpt lat="43.798631308162356" lon="11.703062427101587"><ele>478.00000000000006</ele><time>2026-04-06T12:27:26.837Z</time></trkpt><trkpt lat="43.79856085048343" lon="11.703113910730107"><ele>478.0</ele><time>2026-04-06T12:27:29.837Z</time></trkpt><trkpt lat="43.79848969735527" lon="11.703160872124336"><ele>479.33333333333337</ele><time>2026-04-06T12:27:32.837Z</time></trkpt><trkpt lat="43.79842965424026" lon="11.70319856192576"><ele>480.6666666666667</ele><time>2026-04-06T12:27:34.837Z</time></trkpt><trkpt lat="43.79835664091438" lon="11.703253516563725"><ele>482.0</ele><time>2026-04-06T12:27:37.837Z</time></trkpt><trkpt lat="43.79827240982567" lon="11.703321601881044"><ele>483.33333333333337</ele><time>2026-04-06T12:27:40.835Z</time></trkpt><trkpt lat="43.79819199949147" lon="11.703356435979773"><ele>484.6666666666667</ele><time>2026-04-06T12:27:43.834Z</time></trkpt><trkpt lat="43.79813108022908" lon="11.703401266597407"><ele>486.0</ele><time>2026-04-06T12:27:45.835Z</time></trkpt><trkpt lat="43.79806942299114" lon="11.70345388077701"><ele>486.0</ele><time>2026-04-06T12:27:47.835Z</time></trkpt><trkpt lat="43.798009128809234" lon="11.703504131097132"><ele>486.0</ele><time>2026-04-06T12:27:49.835Z</time></trkpt><trkpt lat="43.797954383527376" lon="11.703550490660774"><ele>486.0</ele><time>2026-04-06T12:27:51.834Z</time></trkpt><trkpt lat="43.79788394452745" lon="11.703597989132982"><ele>486.0</ele><time>2026-04-06T12:27:54.834Z</time></trkpt><trkpt lat="43.79780292833472" lon="11.70364699282795"><ele>486.0</ele><time>2026-04-06T12:27:57.835Z</time></trkpt><trkpt lat="43.797723955295226" lon="11.703699440802511"><ele>486.0</ele><time>2026-04-06T12:28:00.834Z</time></trkpt><trkpt lat="43.797643684276906" lon="11.703738775854118"><ele>485.8333333333333</ele><time>2026-04-06T12:28:03.834Z</time></trkpt><trkpt lat="43.79756204215188" lon="11.703786706895102"><ele>485.66666666666663</ele><time>2026-04-06T12:28:06.834Z</time></trkpt><trkpt lat="43.79747767991781" lon="11.703819888127452"><ele>485.5</ele><time>2026-04-06T12:28:09.834Z</time></trkpt><trkpt lat="43.797402681831926" lon="11.70385830937851"><ele>485.3333333333333</ele><time>2026-04-06T12:28:12.834Z</time></trkpt><trkpt lat="43.79731771701123" lon="11.703889164323156"><ele>485.16666666666663</ele><time>2026-04-06T12:28:15.834Z</time></trkpt><trkpt lat="43.79723723218457" lon="11.703915202355635"><ele>485.0</ele><time>2026-04-06T12:28:18.834Z</time></trkpt><trkpt lat="43.797154564564494" lon="11.703927784250922"><ele>484.99999999999994</ele><time>2026-04-06T12:28:21.834Z</time></trkpt><trkpt lat="43.797061747762505" lon="11.703938720315671"><ele>485.0</ele><time>2026-04-06T12:28:24.834Z</time></trkpt><trkpt lat="43.796977546015725" lon="11.703942294927739"><ele>485.0</ele><time>2026-04-06T12:28:27.834Z</time></trkpt><trkpt lat="43.79691525359623" lon="11.70392142816527"><ele>485.0</ele><time>2026-04-06T12:28:29.834Z</time></trkpt><trkpt lat="43.79682916669191" lon="11.703918984108888"><ele>484.99999999999994</ele><time>2026-04-06T12:28:32.834Z</time></trkpt><trkpt lat="43.796743277048115" lon="11.7039297639318"><ele>485.0</ele><time>2026-04-06T12:28:35.834Z</time></trkpt><trkpt lat="43.796655169999546" lon="11.703929840096425"><ele>485.8333333333333</ele><time>2026-04-06T12:28:38.834Z</time></trkpt><trkpt lat="43.796569450266915" lon="11.703934427763718"><ele>486.66666666666663</ele><time>2026-04-06T12:28:41.834Z</time></trkpt><trkpt lat="43.79648422699499" lon="11.703926745084118"><ele>487.5</ele><time>2026-04-06T12:28:44.834Z</time></trkpt><trkpt lat="43.79639740654525" lon="11.703906087410939"><ele>488.33333333333337</ele><time>2026-04-06T12:28:47.834Z</time></trkpt><trkpt lat="43.79631593550641" lon="11.703880876287833"><ele>489.1666666666667</ele><time>2026-04-06T12:28:50.834Z</time></trkpt><trkpt lat="43.79623806010237" lon="11.703848204955989"><ele>490.0</ele><time>2026-04-06T12:28:53.834Z</time></trkpt><trkpt lat="43.796163315369526" lon="11.703793456231377"><ele>490.00000000000006</ele><time>2026-04-06T12:28:56.834Z</time></trkpt><trkpt lat="43.796083528993" lon="11.703751054799923"><ele>490.0</ele><time>2026-04-06T12:28:59.834Z</time></trkpt><trkpt lat="43.796005072786286" lon="11.703703337055497"><ele>490.0</ele><time>2026-04-06T12:29:02.834Z</time></trkpt><trkpt lat="43.79593806442446" lon="11.703658370498335"><ele>490.0</ele><time>2026-04-06T12:29:05.834Z</time></trkpt><trkpt lat="43.795863255335426" lon="11.703612455783302"><ele>490.00000000000006</ele><time>2026-04-06T12:29:08.834Z</time></trkpt><trkpt lat="43.795787794370504" lon="11.70357142712505"><ele>490.0</ele><time>2026-04-06T12:29:11.834Z</time></trkpt><trkpt lat="43.795717109892664" lon="11.703533798757265"><ele>490.83333333333337</ele><time>2026-04-06T12:29:14.834Z</time></trkpt><trkpt lat="43.79563782352559" lon="11.70349943801846"><ele>491.6666666666667</ele><time>2026-04-06T12:29:17.834Z</time></trkpt><trkpt lat="43.795552289619145" lon="11.703497361306923"><ele>492.5</ele><time>2026-04-06T12:29:20.834Z</time></trkpt><trkpt lat="43.79547473212421" lon="11.703481464100745"><ele>493.33333333333337</ele><time>2026-04-06T12:29:23.834Z</time></trkpt><trkpt lat="43.79540470831973" lon="11.70350519002208"><ele>494.1666666666667</ele><time>2026-04-06T12:29:25.834Z</time></trkpt><trkpt lat="43.79531996169767" lon="11.703568380093072"><ele>495.0</ele><time>2026-04-06T12:29:28.834Z</time></trkpt><trkpt lat="43.79526647439338" lon="11.703622880313363"><ele>495.0</ele><time>2026-04-06T12:29:30.834Z</time></trkpt><trkpt lat="43.795217566924485" lon="11.70368419310309"><ele>495.0</ele><time>2026-04-06T12:29:32.834Z</time></trkpt><trkpt lat="43.795165180461865" lon="11.703795679605074"><ele>495.0</ele><time>2026-04-06T12:29:35.834Z</time></trkpt><trkpt lat="43.79514877119243" lon="11.703884806442044"><ele>495.0</ele><time>2026-04-06T12:29:37.834Z</time></trkpt><trkpt lat="43.79514078038028" lon="11.704005735318463"><ele>495.0</ele><time>2026-04-06T12:29:40.834Z</time></trkpt><trkpt lat="43.79514425157114" lon="11.704124787509857"><ele>495.0</ele><time>2026-04-06T12:29:43.834Z</time></trkpt><trkpt lat="43.79515918350178" lon="11.704239822034438"><ele>498.0</ele><time>2026-04-06T12:29:46.831Z</time></trkpt><trkpt lat="43.79514714912158" lon="11.704355351906283"><ele>501.0</ele><time>2026-04-06T12:29:49.831Z</time></trkpt><trkpt lat="43.795151624246856" lon="11.704462545647539"><ele>504.0</ele><time>2026-04-06T12:29:52.831Z</time></trkpt><trkpt lat="43.79515328376619" lon="11.70456917562819"><ele>507.0</ele><time>2026-04-06T12:29:55.831Z</time></trkpt><trkpt lat="43.79516020147568" lon="11.704677622675867"><ele>510.0</ele><time>2026-04-06T12:29:58.831Z</time></trkpt><trkpt lat="43.79516165690826" lon="11.704789203495043"><ele>513.0</ele><time>2026-04-06T12:30:01.831Z</time></trkpt><trkpt lat="43.79516749240647" lon="11.704903593231869"><ele>513.5</ele><time>2026-04-06T12:30:04.83Z</time></trkpt><trkpt lat="43.79516558147916" lon="11.705013198765723"><ele>514.0</ele><time>2026-04-06T12:30:07.83Z</time></trkpt><trkpt lat="43.79517501513289" lon="11.705120806671196"><ele>514.5</ele><time>2026-04-06T12:30:10.83Z</time></trkpt><trkpt lat="43.7951623115321" lon="11.705231455215936"><ele>515.0</ele><time>2026-04-06T12:30:13.83Z</time></trkpt><trkpt lat="43.79516722063596" lon="11.705339007552803"><ele>515.5</ele><time>2026-04-06T12:30:16.83Z</time></trkpt><trkpt lat="43.7951358359159" lon="11.705437924093218"><ele>516.0</ele><time>2026-04-06T12:30:19.83Z</time></trkpt><trkpt lat="43.79510978430536" lon="11.705542481193568"><ele>515.0</ele><time>2026-04-06T12:30:22.83Z</time></trkpt><trkpt lat="43.79507256994139" lon="11.705641300058664"><ele>514.0</ele><time>2026-04-06T12:30:25.83Z</time></trkpt><trkpt lat="43.795039231267545" lon="11.705736619157888"><ele>513.0</ele><time>2026-04-06T12:30:28.83Z</time></trkpt><trkpt lat="43.79498811992074" lon="11.705817075726271"><ele>512.0</ele><time>2026-04-06T12:30:31.83Z</time></trkpt><trkpt lat="43.79491862733919" lon="11.705881969394573"><ele>511.0</ele><time>2026-04-06T12:30:34.83Z</time></trkpt><trkpt lat="43.79484443356373" lon="11.705917027136186"><ele>510.0</ele><time>2026-04-06T12:30:37.83Z</time></trkpt><trkpt lat="43.79476638245675" lon="11.70593300980866"><ele>510.0</ele><time>2026-04-06T12:30:40.83Z</time></trkpt><trkpt lat="43.79471211738489" lon="11.705997852128766"><ele>510.0</ele><time>2026-04-06T12:30:43.83Z</time></trkpt><trkpt lat="43.79460283212124" lon="11.70593570687419"><ele>510.0</ele><time>2026-04-06T12:30:46.83Z</time></trkpt><trkpt lat="43.794539355951954" lon="11.70593214295745"><ele>510.0</ele><time>2026-04-06T12:30:48.83Z</time></trkpt><trkpt lat="43.794450189442585" lon="11.705902176006854"><ele>510.0</ele><time>2026-04-06T12:30:51.83Z</time></trkpt><trkpt lat="43.79436282572191" lon="11.705872718491582"><ele>510.0</ele><time>2026-04-06T12:30:54.83Z</time></trkpt><trkpt lat="43.79427909217663" lon="11.705837360689355"><ele>511.0</ele><time>2026-04-06T12:30:57.83Z</time></trkpt><trkpt lat="43.794197965000166" lon="11.705817918293812"><ele>512.0</ele><time>2026-04-06T12:31:00.83Z</time></trkpt><trkpt lat="43.794115149308944" lon="11.705803144816912"><ele>513.0</ele><time>2026-04-06T12:31:03.83Z</time></trkpt><trkpt lat="43.79403959819311" lon="11.705772844555609"><ele>514.0</ele><time>2026-04-06T12:31:06.829Z</time></trkpt><trkpt lat="43.79394928407211" lon="11.705751271794"><ele>515.0</ele><time>2026-04-06T12:31:09.829Z</time></trkpt><trkpt lat="43.79386409769491" lon="11.705724915127242"><ele>516.0</ele><time>2026-04-06T12:31:12.829Z</time></trkpt><trkpt lat="43.7937850489895" lon="11.705701021169116"><ele>516.0</ele><time>2026-04-06T12:31:15.829Z</time></trkpt><trkpt lat="43.79370375791568" lon="11.705681243950812"><ele>516.0</ele><time>2026-04-06T12:31:18.829Z</time></trkpt><trkpt lat="43.79362389566604" lon="11.705656185999612"><ele>516.0</ele><time>2026-04-06T12:31:21.829Z</time></trkpt><trkpt lat="43.79354375092457" lon="11.70563134641131"><ele>516.0</ele><time>2026-04-06T12:31:24.83Z</time></trkpt><trkpt lat="43.79346827526037" lon="11.70561054484529"><ele>516.0</ele><time>2026-04-06T12:31:27.83Z</time></trkpt><trkpt lat="43.793386735474996" lon="11.705589032073478"><ele>516.0</ele><time>2026-04-06T12:31:30.831Z</time></trkpt><trkpt lat="43.793301233230686" lon="11.705575131965183"><ele>516.8333333333334</ele><time>2026-04-06T12:31:33.831Z</time></trkpt><trkpt lat="43.79322673083854" lon="11.705572968605397"><ele>517.6666666666666</ele><time>2026-04-06T12:31:36.832Z</time></trkpt><trkpt lat="43.79315282917893" lon="11.7055810824506"><ele>518.5</ele><time>2026-04-06T12:31:39.832Z</time></trkpt><trkpt lat="43.793065746967905" lon="11.705592184966031"><ele>519.3333333333333</ele><time>2026-04-06T12:31:42.832Z</time></trkpt><trkpt lat="43.79298819895897" lon="11.70565513480757"><ele>520.1666666666666</ele><time>2026-04-06T12:31:45.832Z</time></trkpt><trkpt lat="43.79293762360881" lon="11.705719991540228"><ele>521.0</ele><time>2026-04-06T12:31:47.832Z</time></trkpt><trkpt lat="43.792886151975296" lon="11.705812818321812"><ele>521.0</ele><time>2026-04-06T12:31:50.832Z</time></trkpt><trkpt lat="43.79284966247462" lon="11.705926520914899"><ele>521.0</ele><time>2026-04-06T12:31:53.83Z</time></trkpt><trkpt lat="43.792831187548195" lon="11.706038722371078"><ele>521.0</ele><time>2026-04-06T12:31:56.83Z</time></trkpt><trkpt lat="43.79282769132258" lon="11.706132313991315"><ele>521.0</ele><time>2026-04-06T12:31:58.83Z</time></trkpt><trkpt lat="43.79283456604398" lon="11.706235467592979"><ele>521.0</ele><time>2026-04-06T12:32:01.83Z</time></trkpt><trkpt lat="43.79284919622355" lon="11.706346463077281"><ele>521.0</ele><time>2026-04-06T12:32:04.83Z</time></trkpt><trkpt lat="43.79287916426399" lon="11.706447097066198"><ele>520.3333333333333</ele><time>2026-04-06T12:32:07.83Z</time></trkpt><trkpt lat="43.79287689463661" lon="11.706544324758791"><ele>519.6666666666666</ele><time>2026-04-06T12:32:10.83Z</time></trkpt><trkpt lat="43.7928917835974" lon="11.70667762685415"><ele>519.0</ele><time>2026-04-06T12:32:14.83Z</time></trkpt><trkpt lat="43.79290870312878" lon="11.706784791679743"><ele>518.3333333333334</ele><time>2026-04-06T12:32:17.83Z</time></trkpt><trkpt lat="43.792924474261326" lon="11.706879326509183"><ele>517.6666666666667</ele><time>2026-04-06T12:32:20.83Z</time></trkpt><trkpt lat="43.79294218229219" lon="11.706977229139174"><ele>517.0</ele><time>2026-04-06T12:32:23.83Z</time></trkpt><trkpt lat="43.79295389665287" lon="11.707086343763887"><ele>516.5</ele><time>2026-04-06T12:32:26.83Z</time></trkpt><trkpt lat="43.79295986611103" lon="11.707188556393396"><ele>516.0</ele><time>2026-04-06T12:32:29.83Z</time></trkpt><trkpt lat="43.79296409733803" lon="11.70729705534234"><ele>515.5</ele><time>2026-04-06T12:32:32.83Z</time></trkpt><trkpt lat="43.792960909228334" lon="11.707402627981114"><ele>515.0</ele><time>2026-04-06T12:32:35.83Z</time></trkpt><trkpt lat="43.792935965757636" lon="11.707499076435331"><ele>514.5</ele><time>2026-04-06T12:32:38.83Z</time></trkpt><trkpt lat="43.79290153587286" lon="11.707595233437477"><ele>514.0</ele><time>2026-04-06T12:32:41.83Z</time></trkpt><trkpt lat="43.79285186757739" lon="11.707678171638106"><ele>512.5</ele><time>2026-04-06T12:32:44.83Z</time></trkpt><trkpt lat="43.792798918519026" lon="11.70774512940223"><ele>511.0</ele><time>2026-04-06T12:32:47.83Z</time></trkpt><trkpt lat="43.792732335365656" lon="11.707786031377701"><ele>509.5</ele><time>2026-04-06T12:32:50.83Z</time></trkpt><trkpt lat="43.792650642198524" lon="11.707806020566505"><ele>508.0</ele><time>2026-04-06T12:32:53.83Z</time></trkpt><trkpt lat="43.792584368741934" lon="11.7078181050109"><ele>506.50000000000006</ele><time>2026-04-06T12:32:55.83Z</time></trkpt><trkpt lat="43.79249806247319" lon="11.707813479583228"><ele>505.0</ele><time>2026-04-06T12:32:58.83Z</time></trkpt><trkpt lat="43.79242045265851" lon="11.707790100562265"><ele>508.50000000000006</ele><time>2026-04-06T12:33:01.83Z</time></trkpt><trkpt lat="43.79234210310467" lon="11.707757538878477"><ele>512.0</ele><time>2026-04-06T12:33:04.83Z</time></trkpt><trkpt lat="43.79226546649463" lon="11.707735601898346"><ele>515.5</ele><time>2026-04-06T12:33:07.83Z</time></trkpt><trkpt lat="43.7921878083727" lon="11.707709346391098"><ele>519.0</ele><time>2026-04-06T12:33:10.83Z</time></trkpt><trkpt lat="43.792108149738745" lon="11.707679468340311"><ele>522.5</ele><time>2026-04-06T12:33:13.83Z</time></trkpt><trkpt lat="43.79202613315029" lon="11.707651139066718"><ele>526.0</ele><time>2026-04-06T12:33:16.83Z</time></trkpt><trkpt lat="43.79195171066747" lon="11.707625050454908"><ele>528.3333333333334</ele><time>2026-04-06T12:33:19.83Z</time></trkpt><trkpt lat="43.79188596131223" lon="11.707601910421143"><ele>530.6666666666667</ele><time>2026-04-06T12:33:22.83Z</time></trkpt><trkpt lat="43.791814513616075" lon="11.707576085688686"><ele>533.0</ele><time>2026-04-06T12:33:25.83Z</time></trkpt><trkpt lat="43.791736215609795" lon="11.707553315281864"><ele>535.3333333333334</ele><time>2026-04-06T12:33:28.83Z</time></trkpt><trkpt lat="43.791655578686346" lon="11.707535794164079"><ele>537.6666666666666</ele><time>2026-04-06T12:33:31.83Z</time></trkpt><trkpt lat="43.79158891517631" lon="11.70748517536704"><ele>540.0</ele><time>2026-04-06T12:33:34.83Z</time></trkpt><trkpt lat="43.79151491884837" lon="11.70744902056937"><ele>540.6666666666666</ele><time>2026-04-06T12:33:37.83Z</time></trkpt><trkpt lat="43.79142644064339" lon="11.70742113469432"><ele>541.3333333333334</ele><time>2026-04-06T12:33:40.83Z</time></trkpt><trkpt lat="43.79134284043031" lon="11.707396014500583"><ele>542.0</ele><time>2026-04-06T12:33:43.83Z</time></trkpt><trkpt lat="43.79125853910553" lon="11.707369885546152"><ele>542.6666666666667</ele><time>2026-04-06T12:33:46.83Z</time></trkpt><trkpt lat="43.79117647163643" lon="11.70733756428048"><ele>543.3333333333334</ele><time>2026-04-06T12:33:49.83Z</time></trkpt><trkpt lat="43.79109749850348" lon="11.707312349775528"><ele>544.0</ele><time>2026-04-06T12:33:52.83Z</time></trkpt><trkpt lat="43.791019132457485" lon="11.707278919428303"><ele>543.6666666666667</ele><time>2026-04-06T12:33:55.83Z</time></trkpt><trkpt lat="43.79093572454029" lon="11.707247859498137"><ele>543.3333333333334</ele><time>2026-04-06T12:33:58.826Z</time></trkpt><trkpt lat="43.790852040479244" lon="11.707217963138113"><ele>543.0</ele><time>2026-04-06T12:34:01.827Z</time></trkpt><trkpt lat="43.790766624070585" lon="11.70718379162753"><ele>542.6666666666666</ele><time>2026-04-06T12:34:04.826Z</time></trkpt><trkpt lat="43.79067900004304" lon="11.707147718146114"><ele>542.3333333333333</ele><time>2026-04-06T12:34:07.827Z</time></trkpt><trkpt lat="43.79060172497869" lon="11.70712359495252"><ele>542.0</ele><time>2026-04-06T12:34:10.826Z</time></trkpt><trkpt lat="43.790522594126124" lon="11.707092413960574"><ele>542.0</ele><time>2026-04-06T12:34:13.826Z</time></trkpt><trkpt lat="43.790444798596106" lon="11.707061499047771"><ele>542.0</ele><time>2026-04-06T12:34:16.826Z</time></trkpt><trkpt lat="43.79036353205958" lon="11.707020766618937"><ele>542.0</ele><time>2026-04-06T12:34:19.826Z</time></trkpt><trkpt lat="43.790301689451574" lon="11.707002667146144"><ele>542.0</ele><time>2026-04-06T12:34:21.826Z</time></trkpt><trkpt lat="43.79023637173732" lon="11.70698393516241"><ele>542.0</ele><time>2026-04-06T12:34:23.826Z</time></trkpt><trkpt lat="43.7901718730776" lon="11.70696243919359"><ele>542.0</ele><time>2026-04-06T12:34:25.826Z</time></trkpt><trkpt lat="43.79007736398884" lon="11.706932187773983"><ele>543.4285714285714</ele><time>2026-04-06T12:34:28.826Z</time></trkpt><trkpt lat="43.79000740780042" lon="11.70690813637188"><ele>544.8571428571429</ele><time>2026-04-06T12:34:30.826Z</time></trkpt><trkpt lat="43.78994128364203" lon="11.706887809321355"><ele>546.2857142857143</ele><time>2026-04-06T12:34:32.826Z</time></trkpt><trkpt lat="43.78987852421089" lon="11.706871782540814"><ele>547.7142857142858</ele><time>2026-04-06T12:34:34.826Z</time></trkpt><trkpt lat="43.7898117500777" lon="11.706861271328412"><ele>549.1428571428572</ele><time>2026-04-06T12:34:36.826Z</time></trkpt><trkpt lat="43.789716826441136" lon="11.706855196215608"><ele>550.5714285714286</ele><time>2026-04-06T12:34:39.826Z</time></trkpt><trkpt lat="43.78965336008653" lon="11.706847816051598"><ele>552.0</ele><time>2026-04-06T12:34:41.826Z</time></trkpt><trkpt lat="43.78958837023828" lon="11.706840957251545"><ele>552.0</ele><time>2026-04-06T12:34:43.826Z</time></trkpt><trkpt lat="43.789523292630335" lon="11.706838754834745"><ele>552.0</ele><time>2026-04-06T12:34:45.826Z</time></trkpt><trkpt lat="43.78946008436219" lon="11.706843782646903"><ele>552.0</ele><time>2026-04-06T12:34:47.826Z</time></trkpt><trkpt lat="43.789368250777656" lon="11.706854863843764"><ele>552.0</ele><time>2026-04-06T12:34:50.826Z</time></trkpt><trkpt lat="43.789281175572704" lon="11.706875970696627"><ele>552.0</ele><time>2026-04-06T12:34:53.826Z</time></trkpt><trkpt lat="43.7891922153176" lon="11.706874710157855"><ele>552.0</ele><time>2026-04-06T12:34:56.826Z</time></trkpt><trkpt lat="43.78910242663892" lon="11.706892661196829"><ele>550.8333333333334</ele><time>2026-04-06T12:34:59.826Z</time></trkpt><trkpt lat="43.78901909727008" lon="11.706911824301084"><ele>549.6666666666666</ele><time>2026-04-06T12:35:02.826Z</time></trkpt><trkpt lat="43.78893902002762" lon="11.706922536317771"><ele>548.5</ele><time>2026-04-06T12:35:05.826Z</time></trkpt><trkpt lat="43.788859465617726" lon="11.706915135790748"><ele>547.3333333333333</ele><time>2026-04-06T12:35:08.826Z</time></trkpt><trkpt lat="43.78877736535889" lon="11.706925320386611"><ele>546.1666666666666</ele><time>2026-04-06T12:35:11.826Z</time></trkpt><trkpt lat="43.788688839903536" lon="11.70694657623066"><ele>545.0</ele><time>2026-04-06T12:35:14.826Z</time></trkpt><trkpt lat="43.78860029354808" lon="11.706963588159693"><ele>545.0</ele><time>2026-04-06T12:35:17.826Z</time></trkpt><trkpt lat="43.78853476579047" lon="11.706971973675675"><ele>545.0</ele><time>2026-04-06T12:35:19.826Z</time></trkpt><trkpt lat="43.78844193184149" lon="11.706973214491311"><ele>545.0</ele><time>2026-04-06T12:35:22.826Z</time></trkpt><trkpt lat="43.78837671618039" lon="11.706983744612048"><ele>545.0</ele><time>2026-04-06T12:35:24.826Z</time></trkpt><trkpt lat="43.78828616520387" lon="11.7070037054361"><ele>545.0</ele><time>2026-04-06T12:35:27.826Z</time></trkpt><trkpt lat="43.78822184223799" lon="11.70702289051154"><ele>545.0</ele><time>2026-04-06T12:35:29.826Z</time></trkpt><trkpt lat="43.78815988776517" lon="11.707049540809985"><ele>545.0</ele><time>2026-04-06T12:35:31.826Z</time></trkpt><trkpt lat="43.788075384441626" lon="11.707093439142904"><ele>547.0</ele><time>2026-04-06T12:35:34.826Z</time></trkpt><trkpt lat="43.788013850333016" lon="11.707128012459616"><ele>549.0</ele><time>2026-04-06T12:35:36.826Z</time></trkpt><trkpt lat="43.78792892490567" lon="11.707180778063252"><ele>551.0</ele><time>2026-04-06T12:35:39.826Z</time></trkpt><trkpt lat="43.7878453231481" lon="11.707234293585943"><ele>553.0</ele><time>2026-04-06T12:35:42.826Z</time></trkpt><trkpt lat="43.78778742552607" lon="11.70727186512471"><ele>555.0</ele><time>2026-04-06T12:35:44.826Z</time></trkpt><trkpt lat="43.78771132292824" lon="11.707342112094944"><ele>557.0</ele><time>2026-04-06T12:35:47.826Z</time></trkpt><trkpt lat="43.78764801747425" lon="11.707360950036527"><ele>558.6666666666666</ele><time>2026-04-06T12:35:49.826Z</time></trkpt><trkpt lat="43.78758808700604" lon="11.707397735663681"><ele>560.3333333333333</ele><time>2026-04-06T12:35:51.826Z</time></trkpt><trkpt lat="43.78750347705384" lon="11.707450285962459"><ele>562.0</ele><time>2026-04-06T12:35:54.826Z</time></trkpt><trkpt lat="43.787418839503474" lon="11.707503737623124"><ele>563.6666666666666</ele><time>2026-04-06T12:35:57.826Z</time></trkpt><trkpt lat="43.787340631262325" lon="11.70754412071886"><ele>565.3333333333334</ele><time>2026-04-06T12:36:00.826Z</time></trkpt><trkpt lat="43.787286784275985" lon="11.707590942917626"><ele>567.0</ele><time>2026-04-06T12:36:02.826Z</time></trkpt><trkpt lat="43.787198793398325" lon="11.707613901334415"><ele>567.0</ele><time>2026-04-06T12:36:05.823Z</time></trkpt><trkpt lat="43.78710814744197" lon="11.707624361794421"><ele>567.0</ele><time>2026-04-06T12:36:08.822Z</time></trkpt><trkpt lat="43.78701684637477" lon="11.70763426007371"><ele>567.0</ele><time>2026-04-06T12:36:11.823Z</time></trkpt><trkpt lat="43.7869293139265" lon="11.707634688450687"><ele>567.0</ele><time>2026-04-06T12:36:14.822Z</time></trkpt><trkpt lat="43.78686660396959" lon="11.707645485890325"><ele>567.0</ele><time>2026-04-06T12:36:16.822Z</time></trkpt><trkpt lat="43.78677498399808" lon="11.707645680663752"><ele>567.0</ele><time>2026-04-06T12:36:19.822Z</time></trkpt><trkpt lat="43.78668988090705" lon="11.707646095420005"><ele>565.8333333333334</ele><time>2026-04-06T12:36:22.822Z</time></trkpt><trkpt lat="43.78660330643416" lon="11.707660527972413"><ele>564.6666666666666</ele><time>2026-04-06T12:36:25.822Z</time></trkpt><trkpt lat="43.78654076338914" lon="11.707673605136598"><ele>563.5</ele><time>2026-04-06T12:36:27.822Z</time></trkpt><trkpt lat="43.78645601922087" lon="11.707683734761957"><ele>562.3333333333333</ele><time>2026-04-06T12:36:30.822Z</time></trkpt><trkpt lat="43.78639315393313" lon="11.707716081821502"><ele>561.1666666666666</ele><time>2026-04-06T12:36:32.822Z</time></trkpt><trkpt lat="43.78631432295097" lon="11.707768685374466"><ele>560.0</ele><time>2026-04-06T12:36:35.822Z</time></trkpt><trkpt lat="43.786236286532166" lon="11.707833576128094"><ele>560.0</ele><time>2026-04-06T12:36:38.822Z</time></trkpt><trkpt lat="43.786154710765494" lon="11.707902993475663"><ele>560.0</ele><time>2026-04-06T12:36:41.822Z</time></trkpt><trkpt lat="43.786078433778286" lon="11.707968603275937"><ele>560.0</ele><time>2026-04-06T12:36:44.822Z</time></trkpt><trkpt lat="43.78600143559507" lon="11.708034833249366"><ele>560.0</ele><time>2026-04-06T12:36:47.822Z</time></trkpt><trkpt lat="43.7859201865487" lon="11.708104719196974"><ele>560.0</ele><time>2026-04-06T12:36:50.822Z</time></trkpt><trkpt lat="43.78584753142805" lon="11.708167214951523"><ele>562.5</ele><time>2026-04-06T12:36:53.822Z</time></trkpt><trkpt lat="43.78579117391651" lon="11.708216462590965"><ele>565.0</ele><time>2026-04-06T12:36:55.822Z</time></trkpt><trkpt lat="43.78571405758183" lon="11.708283849916494"><ele>567.5</ele><time>2026-04-06T12:36:58.822Z</time></trkpt><trkpt lat="43.785649507601946" lon="11.708340257727068"><ele>570.0</ele><time>2026-04-06T12:37:01.822Z</time></trkpt><trkpt lat="43.7855962622576" lon="11.708386785595973"><ele>572.5</ele><time>2026-04-06T12:37:03.822Z</time></trkpt><trkpt lat="43.78552037111028" lon="11.708453102374785"><ele>575.0</ele><time>2026-04-06T12:37:06.822Z</time></trkpt><trkpt lat="43.78546654862205" lon="11.708498643373847"><ele>575.0</ele><time>2026-04-06T12:37:08.822Z</time></trkpt><trkpt lat="43.78539168140342" lon="11.708560449001936"><ele>575.0</ele><time>2026-04-06T12:37:11.822Z</time></trkpt><trkpt lat="43.78533532761402" lon="11.708602216382033"><ele>575.0</ele><time>2026-04-06T12:37:13.822Z</time></trkpt><trkpt lat="43.7852708562275" lon="11.708637983607426"><ele>575.0</ele><time>2026-04-06T12:37:15.822Z</time></trkpt><trkpt lat="43.78520102854008" lon="11.708682934296288"><ele>575.0</ele><time>2026-04-06T12:37:18.822Z</time></trkpt><trkpt lat="43.78513145198541" lon="11.708690473768128"><ele>575.0</ele><time>2026-04-06T12:37:20.822Z</time></trkpt><trkpt lat="43.785066261351126" lon="11.708694300554642"><ele>575.0</ele><time>2026-04-06T12:37:22.822Z</time></trkpt><trkpt lat="43.78497459381052" lon="11.708681405342306"><ele>575.6</ele><time>2026-04-06T12:37:25.821Z</time></trkpt><trkpt lat="43.78488197711203" lon="11.708666153734672"><ele>576.2</ele><time>2026-04-06T12:37:28.821Z</time></trkpt><trkpt lat="43.784795119976636" lon="11.708637369315852"><ele>576.8</ele><time>2026-04-06T12:37:31.821Z</time></trkpt><trkpt lat="43.78470978872826" lon="11.70860775593651"><ele>577.4</ele><time>2026-04-06T12:37:34.821Z</time></trkpt><trkpt lat="43.78461934731681" lon="11.708582377192164"><ele>578.0</ele><time>2026-04-06T12:37:37.821Z</time></trkpt><trkpt lat="43.78452627541396" lon="11.708565591177665"><ele>579.0</ele><time>2026-04-06T12:37:40.821Z</time></trkpt><trkpt lat="43.784444053468974" lon="11.708554397044361"><ele>580.0</ele><time>2026-04-06T12:37:43.821Z</time></trkpt><trkpt lat="43.78437751574762" lon="11.70855141350124"><ele>581.0</ele><time>2026-04-06T12:37:45.821Z</time></trkpt><trkpt lat="43.784294107790004" lon="11.708557757059065"><ele>582.0</ele><time>2026-04-06T12:37:48.821Z</time></trkpt><trkpt lat="43.78420383815545" lon="11.70858224469625"><ele>583.0</ele><time>2026-04-06T12:37:51.821Z</time></trkpt><trkpt lat="43.78411917919189" lon="11.708610751210575"><ele>584.0</ele><time>2026-04-06T12:37:54.821Z</time></trkpt><trkpt lat="43.78403073970775" lon="11.708622423619028"><ele>584.0</ele><time>2026-04-06T12:37:57.821Z</time></trkpt><trkpt lat="43.78394863561226" lon="11.708678235618143"><ele>584.0</ele><time>2026-04-06T12:38:00.821Z</time></trkpt><trkpt lat="43.78386274848724" lon="11.708707029272551"><ele>584.0</ele><time>2026-04-06T12:38:03.821Z</time></trkpt><trkpt lat="43.783779212943486" lon="11.708736955862163"><ele>584.0</ele><time>2026-04-06T12:38:06.821Z</time></trkpt><trkpt lat="43.783716195479926" lon="11.708751022139081"><ele>584.0</ele><time>2026-04-06T12:38:08.821Z</time></trkpt><trkpt lat="43.78362345269118" lon="11.708750436343884"><ele>584.0</ele><time>2026-04-06T12:38:11.819Z</time></trkpt><trkpt lat="43.78353965487806" lon="11.708725003388963"><ele>585.2</ele><time>2026-04-06T12:38:14.818Z</time></trkpt><trkpt lat="43.78346984063572" lon="11.708690245228993"><ele>586.4</ele><time>2026-04-06T12:38:17.818Z</time></trkpt><trkpt lat="43.7833880809821" lon="11.708646854625156"><ele>587.6</ele><time>2026-04-06T12:38:20.818Z</time></trkpt><trkpt lat="43.78331290499979" lon="11.70858626461809"><ele>588.8</ele><time>2026-04-06T12:38:23.818Z</time></trkpt><trkpt lat="43.783258835388374" lon="11.708536432095714"><ele>590.0</ele><time>2026-04-06T12:38:29.818Z</time></trkpt><trkpt lat="43.78309468262344" lon="11.708645114742229"><ele>590.0</ele><time>2026-04-06T12:38:32.818Z</time></trkpt><trkpt lat="43.7830331768387" lon="11.70872558280309"><ele>590.0</ele><time>2026-04-06T12:38:35.818Z</time></trkpt><trkpt lat="43.782975953693544" lon="11.708794821536474"><ele>590.0</ele><time>2026-04-06T12:38:37.818Z</time></trkpt><trkpt lat="43.782909773568214" lon="11.708884586915449"><ele>590.0</ele><time>2026-04-06T12:38:39.818Z</time></trkpt><trkpt lat="43.78285218385176" lon="11.708966612036164"><ele>590.0</ele><time>2026-04-06T12:38:41.818Z</time></trkpt><trkpt lat="43.782770465349245" lon="11.709085266914247"><ele>590.0</ele><time>2026-04-06T12:38:43.818Z</time></trkpt><trkpt lat="43.78272427687944" lon="11.709152898733338"><ele>590.0</ele><time>2026-04-06T12:38:44.818Z</time></trkpt><trkpt lat="43.78268085945373" lon="11.70921898669986"><ele>590.0</ele><time>2026-04-06T12:38:45.818Z</time></trkpt><trkpt lat="43.7826337028855" lon="11.709290706626055"><ele>590.0</ele><time>2026-04-06T12:38:46.818Z</time></trkpt><trkpt lat="43.782588977101334" lon="11.709359901203426"><ele>590.0</ele><time>2026-04-06T12:38:47.818Z</time></trkpt><trkpt lat="43.78254476825355" lon="11.709433206152223"><ele>590.0</ele><time>2026-04-06T12:38:48.818Z</time></trkpt><trkpt lat="43.78246982476086" lon="11.70956127561045"><ele>588.2</ele><time>2026-04-06T12:38:50.818Z</time></trkpt><trkpt lat="43.78238733681179" lon="11.709660652040132"><ele>586.4</ele><time>2026-04-06T12:38:52.818Z</time></trkpt><trkpt lat="43.78228955425061" lon="11.709732563784511"><ele>584.6</ele><time>2026-04-06T12:38:54.818Z</time></trkpt><trkpt lat="43.782211168163556" lon="11.709786095702201"><ele>582.8</ele><time>2026-04-06T12:38:56.818Z</time></trkpt><trkpt lat="43.7821401773361" lon="11.709840352380771"><ele>581.0</ele><time>2026-04-06T12:38:58.818Z</time></trkpt><trkpt lat="43.78207134499401" lon="11.709925365207575"><ele>581.0</ele><time>2026-04-06T12:39:00.818Z</time></trkpt><trkpt lat="43.78198495206138" lon="11.710003220703058"><ele>581.0</ele><time>2026-04-06T12:39:02.818Z</time></trkpt><trkpt lat="43.78196158689774" lon="11.71010029796331"><ele>581.0</ele><time>2026-04-06T12:39:03.818Z</time></trkpt><trkpt lat="43.78190176595192" lon="11.71021245315927"><ele>581.0</ele><time>2026-04-06T12:39:05.818Z</time></trkpt><trkpt lat="43.781841708620654" lon="11.710325050683696"><ele>581.0</ele><time>2026-04-06T12:39:07.818Z</time></trkpt><trkpt lat="43.78177892640993" lon="11.710442756901056"><ele>580.0</ele><time>2026-04-06T12:39:09.818Z</time></trkpt><trkpt lat="43.78173550041798" lon="11.71055883196528"><ele>579.0</ele><time>2026-04-06T12:39:11.818Z</time></trkpt><trkpt lat="43.781683843990756" lon="11.710653830973458"><ele>578.0</ele><time>2026-04-06T12:39:13.818Z</time></trkpt><trkpt lat="43.781640571618006" lon="11.710733460661316"><ele>577.0</ele><time>2026-04-06T12:39:15.818Z</time></trkpt><trkpt lat="43.78159527319914" lon="11.710809364934033"><ele>576.0</ele><time>2026-04-06T12:39:17.818Z</time></trkpt><trkpt lat="43.78156215242694" lon="11.710934154012968"><ele>575.0</ele><time>2026-04-06T12:39:20.818Z</time></trkpt><trkpt lat="43.781508056554024" lon="11.711025027876223"><ele>575.8333333333333</ele><time>2026-04-06T12:39:23.818Z</time></trkpt><trkpt lat="43.7814770917136" lon="11.711109671625751"><ele>576.6666666666666</ele><time>2026-04-06T12:39:25.818Z</time></trkpt><trkpt lat="43.78144441886863" lon="11.711209918641686"><ele>577.5</ele><time>2026-04-06T12:39:27.818Z</time></trkpt><trkpt lat="43.781415896547784" lon="11.711308034138703"><ele>578.3333333333334</ele><time>2026-04-06T12:39:29.818Z</time></trkpt><trkpt lat="43.78140244016205" lon="11.71143645997525"><ele>579.1666666666667</ele><time>2026-04-06T12:39:31.818Z</time></trkpt><trkpt lat="43.781366038769505" lon="11.711562667266747"><ele>580.0</ele><time>2026-04-06T12:39:33.818Z</time></trkpt><trkpt lat="43.78135058320249" lon="11.711648296003137"><ele>580.0</ele><time>2026-04-06T12:39:35.818Z</time></trkpt><trkpt lat="43.781332654792884" lon="11.711747625057475"><ele>580.0</ele><time>2026-04-06T12:39:38.818Z</time></trkpt><trkpt lat="43.781415795201625" lon="11.711821411368316"><ele>580.0</ele><time>2026-04-06T12:39:39.818Z</time></trkpt><trkpt lat="43.78142676898491" lon="11.711907793015932"><ele>580.0</ele><time>2026-04-06T12:39:41.818Z</time></trkpt><trkpt lat="43.78139845574534" lon="11.712015285898733"><ele>580.0</ele><time>2026-04-06T12:39:43.818Z</time></trkpt><trkpt lat="43.781385606791424" lon="11.712128740305626"><ele>580.0</ele><time>2026-04-06T12:39:45.818Z</time></trkpt><trkpt lat="43.78138613192062" lon="11.71224449387354"><ele>581.1666666666667</ele><time>2026-04-06T12:39:47.818Z</time></trkpt><trkpt lat="43.781371390198586" lon="11.712349320021403"><ele>582.3333333333334</ele><time>2026-04-06T12:39:49.818Z</time></trkpt><trkpt lat="43.781339508633884" lon="11.712457421391532"><ele>583.5</ele><time>2026-04-06T12:39:51.818Z</time></trkpt><trkpt lat="43.78132240980759" lon="11.712562677082465"><ele>584.6666666666666</ele><time>2026-04-06T12:39:53.818Z</time></trkpt><trkpt lat="43.781301324366716" lon="11.712674023720183"><ele>585.8333333333333</ele><time>2026-04-06T12:39:56.818Z</time></trkpt><trkpt lat="43.78128953010924" lon="11.712774480822373"><ele>587.0</ele><time>2026-04-06T12:39:58.818Z</time></trkpt><trkpt lat="43.7812596456462" lon="11.712871370425866"><ele>587.0</ele><time>2026-04-06T12:40:00.818Z</time></trkpt><trkpt lat="43.78121648892713" lon="11.712954111003587"><ele>587.0</ele><time>2026-04-06T12:40:02.818Z</time></trkpt><trkpt lat="43.781156457030576" lon="11.713026736560973"><ele>587.0</ele><time>2026-04-06T12:40:04.818Z</time></trkpt><trkpt lat="43.781112960146515" lon="11.713100426012627"><ele>587.0</ele><time>2026-04-06T12:40:06.818Z</time></trkpt><trkpt lat="43.78108228804452" lon="11.713182005574868"><ele>587.0</ele><time>2026-04-06T12:40:08.818Z</time></trkpt><trkpt lat="43.781040253994554" lon="11.713258297783925"><ele>587.0</ele><time>2026-04-06T12:40:10.818Z</time></trkpt><trkpt lat="43.78099732388423" lon="11.713334594046822"><ele>587.0</ele><time>2026-04-06T12:40:12.818Z</time></trkpt><trkpt lat="43.78095072197863" lon="11.713413925915518"><ele>587.7142857142858</ele><time>2026-04-06T12:40:14.818Z</time></trkpt><trkpt lat="43.78090838770904" lon="11.713491621047728"><ele>588.4285714285714</ele><time>2026-04-06T12:40:16.814Z</time></trkpt><trkpt lat="43.78086181043032" lon="11.713572795411054"><ele>589.1428571428571</ele><time>2026-04-06T12:40:18.813Z</time></trkpt><trkpt lat="43.78081916138164" lon="11.71364318355723"><ele>589.8571428571429</ele><time>2026-04-06T12:40:20.813Z</time></trkpt><trkpt lat="43.78076695134622" lon="11.713735671246296"><ele>590.5714285714286</ele><time>2026-04-06T12:40:23.813Z</time></trkpt><trkpt lat="43.780716810869244" lon="11.713827231315012"><ele>591.2857142857143</ele><time>2026-04-06T12:40:25.813Z</time></trkpt><trkpt lat="43.78067466032377" lon="11.713899058424301"><ele>592.0</ele><time>2026-04-06T12:40:28.814Z</time></trkpt><trkpt lat="43.78063478143766" lon="11.713969711455913"><ele>594.0</ele><time>2026-04-06T12:40:32.814Z</time></trkpt><trkpt lat="43.78057898352229" lon="11.714041265859604"><ele>594.0</ele><time>2026-04-06T12:41:10.813Z</time></trkpt><trkpt lat="43.780532355896504" lon="11.714125879653858"><ele>594.0</ele><time>2026-04-06T12:41:14.813Z</time></trkpt><trkpt lat="43.78049218811281" lon="11.714198771270881"><ele>594.0</ele><time>2026-04-06T12:41:17.813Z</time></trkpt><trkpt lat="43.78045272203129" lon="11.71430014294924"><ele>594.0</ele><time>2026-04-06T12:41:21.813Z</time></trkpt><trkpt lat="43.78039601862865" lon="11.714367586821536"><ele>594.0</ele><time>2026-04-06T12:41:25.813Z</time></trkpt></trkseg></trk></gpx>